[[{"header":{"parameterUnit":"m.s-1","parameterCategory":1,"la1":30.6,"la2":29.2853,"lo1":-89.7004,"lo2":-87.6739,"dy":0.0162,"dx":0.0183,"nx":112,"ny":82,"refTime":"2026-03-07T12:00:00:Z","depth":0,"parameterNumber":2,"parameterNumberName":"U-component_of_WINDS"},"data":[0.0,0.0,0.0,0.0,0.0,0.0,0.0,0.0,0.0,0.0,0.0,0.0,0.0,0.0,0.0,0.0,0.0,0.0,0.0,0.0,0.0,0.0,0.0,0.0,0.0,0.0,0.0,0.0,0.0,0.0,0.0,0.0,0.0,0.0,0.0,0.0,0.0,0.0,0.0,0.0,0.0,0.0,0.0,0.0,0.0,0.0,0.0,0.0,0.0,0.0,0.0,0.0,0.0,0.0,0.0,0.0,0.0,0.0,0.0,0.0,0.0,0.0,0.0,0.0,0.0,0.0,0.0,0.0,0.0,0.0,0.0,0.0,0.0,0.0,0.0,0.0,0.0,0.0,0.0,0.0,0.0,0.0,0.0,0.0,0.0,0.0,0.0,0.0,0.0,0.0,0.0,1.9271,2.1638,2.2791,2.2091,2.1777,2.0563,1.8052,0.0,0.0,0.0,0.0,0.0,0.0,0.0,0.0,0.0,0.0,0.0,0.0,0.0,0.0,0.0,0.0,0.0,0.0,0.0,0.0,0.0,0.0,0.0,0.0,0.0,0.0,0.0,0.0,0.0,0.0,0.0,0.0,0.0,0.0,0.0,0.0,0.0,0.0,0.0,0.0,0.0,0.0,0.0,0.0,0.0,0.0,0.0,0.0,0.0,0.0,0.0,0.0,0.0,0.0,0.0,0.0,0.0,0.0,0.0,0.0,0.0,0.0,0.0,0.0,0.0,0.0,0.0,0.0,0.0,0.0,0.0,0.0,0.0,0.0,0.0,0.0,0.0,0.0,0.0,0.0,0.0,0.0,0.0,0.0,0.0,0.0,0.0,0.0,0.0,0.0,0.0,0.0,0.0,0.0,0.0,0.0,0.0,0.0,0.0,0.0,0.0,0.0,0.0,0.0,1.7422,2.106,2.2647,2.3079,2.2234,2.163,2.0403,1.8356,0.0,0.0,0.0,0.0,0.0,0.0,0.0,0.0,0.0,0.0,0.0,0.0,0.0,0.0,0.0,0.0,0.0,0.0,0.0,0.0,0.0,0.0,0.0,0.0,0.0,0.0,0.0,0.0,0.0,0.0,0.0,0.0,0.0,0.0,0.0,0.0,0.0,0.0,0.0,0.0,0.0,0.0,0.0,0.0,0.0,0.0,0.0,0.0,0.0,0.0,0.0,0.0,0.0,0.0,0.0,0.0,0.0,0.0,0.0,0.0,0.0,0.0,0.0,0.0,0.0,0.0,0.0,0.0,0.0,0.0,0.0,0.0,0.0,0.0,0.0,0.0,0.0,0.0,0.0,0.0,0.0,0.0,0.0,0.0,0.0,0.0,0.0,0.0,0.0,0.0,0.0,0.0,0.0,0.0,0.0,0.0,0.0,0.0,0.0,0.0,0.0,0.0,0.0,1.7171,1.9087,2.202,2.3197,2.3448,2.2704,2.1907,2.0534,1.8276,1.6589,0.0,0.0,0.0,0.0,0.0,0.0,0.0,0.0,0.0,0.0,0.0,0.0,0.0,0.0,0.0,0.0,0.0,0.0,0.0,0.0,0.0,0.0,0.0,0.0,0.0,0.0,0.0,0.0,0.0,0.0,0.0,0.0,0.0,0.0,0.0,0.0,0.0,0.0,0.0,0.0,0.0,0.0,0.0,0.0,0.0,0.0,0.0,0.0,0.0,0.0,0.0,0.0,0.0,0.0,0.0,0.0,0.0,0.0,0.0,0.0,0.0,0.0,0.0,0.0,0.0,0.0,0.0,0.0,0.0,0.0,0.0,0.0,0.0,0.0,0.0,0.0,0.0,0.0,0.0,0.0,0.0,0.0,0.0,0.0,0.0,0.0,0.0,0.0,0.0,0.0,0.0,0.0,0.0,0.0,0.0,0.0,0.0,0.0,0.0,0.0,0.0,0.0,1.937,2.0964,2.2637,2.3606,2.3816,2.3103,2.208,2.049,1.8238,1.6342,0.0,0.0,0.0,0.0,0.0,0.0,0.0,0.0,0.0,0.0,0.0,0.0,0.0,0.0,0.0,0.0,0.0,0.0,0.0,0.0,0.0,0.0,0.0,0.0,0.0,0.0,0.0,0.0,0.0,0.0,0.0,0.0,0.0,0.0,0.0,0.0,0.0,0.0,0.0,0.0,0.0,0.0,0.0,0.0,0.0,0.0,0.0,0.0,0.0,0.0,0.0,0.0,0.0,0.0,0.0,0.0,0.0,0.0,0.0,0.0,0.0,0.0,0.0,0.0,0.0,0.0,0.0,0.0,0.0,0.0,0.0,0.0,0.0,0.0,0.0,0.0,0.0,0.0,0.0,0.0,0.0,0.0,0.0,0.0,0.0,0.0,0.0,0.0,0.0,0.0,0.0,0.0,0.0,0.0,0.0,0.0,0.0,0.0,0.0,0.0,0.0,0.0,2.0031,2.2186,2.3072,2.3939,2.4091,2.3155,2.1665,2.0084,1.8476,1.6047,0.0,0.0,0.0,0.0,0.0,0.0,0.0,0.0,0.0,0.0,0.0,0.0,0.0,0.0,0.0,0.0,0.0,0.0,0.0,0.0,0.0,0.0,0.0,0.0,0.0,0.0,0.0,0.0,0.0,0.0,0.0,0.0,0.0,0.0,0.0,0.0,0.0,0.0,0.0,0.0,0.0,0.0,0.0,0.0,0.0,0.0,0.0,0.0,0.0,0.0,0.0,0.0,0.0,0.0,0.0,0.0,0.0,0.0,0.0,0.0,0.0,0.0,0.0,0.0,0.0,0.0,0.0,0.0,0.0,0.0,0.0,0.0,0.0,0.0,0.0,0.0,0.0,0.0,0.0,0.0,0.0,0.0,0.0,0.0,0.0,0.0,0.0,0.0,0.0,0.0,0.0,0.0,0.0,0.0,0.0,0.0,0.0,0.0,0.0,0.0,0.0,0.0,1.9984,2.1839,0.0,2.3894,2.3813,2.3041,2.1914,2.0357,1.8269,0.0,0.0,0.0,0.0,0.0,0.0,0.0,0.0,0.0,0.0,0.0,0.0,0.0,0.0,0.0,0.0,0.0,0.0,0.0,0.0,0.0,0.0,0.0,0.0,0.0,0.0,0.0,0.0,0.0,0.0,0.0,0.0,0.0,0.0,0.0,0.0,0.0,0.0,0.0,0.0,0.0,0.0,0.0,0.0,0.0,0.0,0.0,0.0,0.0,0.0,0.0,0.0,0.0,0.0,0.0,0.0,0.0,0.0,0.0,0.0,0.0,0.0,0.0,0.0,0.0,0.0,0.0,0.0,0.0,0.0,0.0,0.0,0.0,0.0,0.0,0.0,0.0,0.0,0.0,0.0,0.0,0.0,0.0,0.0,0.0,0.0,0.0,0.0,0.0,0.0,0.0,0.0,0.0,0.0,0.0,0.0,0.0,0.0,0.0,0.0,0.0,0.0,1.8411,2.0144,2.1732,0.0,2.3507,2.3356,2.2858,2.1636,2.014,1.8348,0.0,0.0,0.0,0.0,0.0,0.0,0.0,0.0,0.0,0.0,0.0,0.0,0.0,0.0,0.0,0.0,0.0,0.0,0.0,0.0,0.0,0.0,0.0,0.0,0.0,0.0,0.0,0.0,0.0,0.0,0.0,0.0,0.0,0.0,0.0,0.0,0.0,0.0,0.0,0.0,0.0,0.0,0.0,0.0,0.0,0.0,0.0,0.0,0.0,0.0,0.0,0.0,0.0,0.0,0.0,0.0,0.0,0.0,0.0,0.0,0.0,0.0,0.0,0.0,0.0,0.0,0.0,0.0,0.0,0.0,0.0,0.0,0.0,0.0,0.0,0.0,0.0,0.0,0.0,0.0,0.0,0.0,0.0,0.0,0.0,0.0,0.0,0.0,0.0,0.0,0.0,0.0,0.0,0.0,0.0,0.0,0.0,0.0,0.0,0.0,0.0,0.0,1.8493,2.0571,2.2094,2.2633,2.2807,2.2795,2.2599,2.0649,1.9207,0.0,0.0,0.0,0.0,0.0,0.0,0.0,0.0,0.0,0.0,0.0,0.0,0.0,0.0,0.0,0.0,0.0,0.0,0.0,0.0,0.0,0.0,0.0,0.0,0.0,0.0,0.0,0.0,0.0,0.0,0.0,0.0,0.0,0.0,0.0,0.0,0.0,0.0,0.0,0.0,0.0,0.0,0.0,0.0,0.0,0.0,0.0,0.0,0.0,0.0,0.0,0.0,0.0,0.0,0.0,0.0,0.0,0.0,0.0,0.0,0.0,0.0,0.0,0.0,0.0,0.0,0.0,0.0,0.0,0.0,0.0,0.0,0.0,0.0,0.0,0.0,0.0,0.0,0.0,0.0,0.0,0.0,0.0,0.0,0.0,0.0,0.0,0.0,0.0,0.0,0.0,0.0,0.0,0.0,0.0,0.0,0.0,0.0,0.0,0.0,0.0,0.0,0.0,0.0,2.0611,2.1951,2.2429,2.2323,2.2186,2.2116,2.1083,1.9806,1.8305,0.0,0.0,0.0,0.0,0.0,0.0,0.0,0.0,0.0,0.0,0.0,0.0,0.0,0.0,0.0,0.0,0.0,0.0,0.0,0.0,0.0,0.0,0.0,0.0,0.0,0.0,0.0,0.0,0.0,0.0,0.0,0.0,0.0,0.0,0.0,0.0,0.0,0.0,0.0,0.0,0.0,0.0,0.0,0.0,0.0,0.0,0.0,0.0,0.0,0.0,0.0,0.0,0.0,0.0,0.0,0.0,0.0,0.0,0.0,0.0,0.0,0.0,0.0,0.0,0.0,0.0,0.0,0.0,0.0,0.0,0.0,0.0,0.0,0.0,0.0,0.0,0.0,0.0,0.0,0.0,0.0,0.0,0.0,0.0,0.0,0.0,0.0,0.0,0.0,0.0,0.0,0.0,0.0,0.0,0.0,0.0,0.0,0.0,0.0,0.0,0.0,0.0,1.8825,2.0675,2.197,2.2246,2.2159,2.1976,2.1795,2.1247,2.0085,1.8115,0.0,0.0,0.0,0.0,0.0,0.0,0.0,0.0,0.0,0.0,0.0,0.0,0.0,0.0,0.0,0.0,0.0,0.0,0.0,0.0,0.0,0.0,0.0,0.0,0.0,0.0,0.0,0.0,0.0,0.0,0.0,0.0,0.0,0.0,0.0,0.0,0.0,0.0,0.0,0.0,0.0,0.0,0.0,0.0,0.0,0.0,0.0,0.0,0.0,0.0,0.0,0.0,0.0,0.0,0.0,0.0,0.0,0.0,0.0,0.0,0.0,0.0,0.0,0.0,0.0,0.0,0.0,0.0,0.0,0.0,0.0,0.0,0.0,0.0,0.0,0.0,0.0,0.0,0.0,0.0,0.0,0.0,0.0,0.0,0.0,0.0,0.0,0.0,0.0,0.0,0.0,0.0,0.0,0.0,0.0,0.0,0.0,0.0,0.0,0.0,0.0,0.0,1.8716,2.0757,2.2062,2.2062,2.217,2.2044,2.1642,2.1205,2.015,1.8196,0.0,0.0,0.0,0.0,0.0,0.0,0.0,0.0,0.0,0.0,0.0,0.0,0.0,0.0,0.0,0.0,0.0,0.0,0.0,0.0,0.0,0.0,0.0,0.0,0.0,0.0,0.0,0.0,0.0,0.0,0.0,0.0,0.0,0.0,0.0,0.0,0.0,0.0,0.0,0.0,0.0,0.0,0.0,0.0,0.0,0.0,0.0,0.0,0.0,0.0,0.0,0.0,0.0,0.0,0.0,0.0,0.0,0.0,0.0,0.0,1.3496,0.0,0.0,0.0,0.0,0.0,0.0,0.0,0.0,0.0,0.0,0.0,0.0,0.0,0.0,0.0,0.0,0.0,0.0,0.0,0.0,0.0,0.0,0.0,0.0,0.0,0.0,0.0,0.0,0.0,0.0,0.0,0.0,0.0,0.0,0.0,0.0,0.0,0.0,0.0,0.0,0.0,1.8879,2.0707,2.1855,2.1855,2.1791,2.1712,2.1621,2.1511,2.0615,1.8676,0.0,0.0,0.0,0.0,0.0,0.0,0.0,0.0,0.0,0.0,0.0,0.0,0.0,0.0,0.0,0.0,0.0,0.0,0.0,0.0,0.0,0.0,0.0,0.0,0.0,0.0,0.0,0.0,0.0,0.0,0.0,0.0,0.0,0.0,0.0,0.0,0.0,0.0,0.0,0.0,0.0,0.0,0.0,0.0,0.0,0.0,0.0,0.0,0.0,0.0,0.0,0.0,0.0,0.0,0.0,0.0,0.0,0.0,0.0,0.0,0.0,1.4613,0.0,0.0,0.0,0.0,0.0,0.0,0.0,0.0,0.0,0.0,0.0,0.0,0.0,0.0,0.0,0.0,0.0,0.0,0.0,0.0,0.0,0.0,0.0,0.0,0.0,0.0,0.0,0.0,0.0,0.0,0.0,0.0,0.0,0.0,0.0,0.0,0.0,0.0,0.0,0.0,1.8881,2.0892,2.2178,2.2178,2.2235,2.2171,2.1953,2.1931,2.1193,1.949,1.848,0.0,0.0,0.0,0.0,0.0,0.0,0.0,0.0,0.0,0.0,0.0,0.0,0.0,0.0,0.0,0.0,0.0,0.0,0.0,0.0,0.0,0.0,0.0,0.0,0.0,0.0,0.0,0.0,0.0,0.0,0.0,0.0,0.0,0.0,0.0,0.0,0.0,0.0,0.0,0.0,0.0,0.0,0.0,0.0,0.0,0.0,0.0,0.0,0.0,0.0,0.0,0.0,0.0,0.0,0.0,1.8524,1.8248,1.849,1.9033,1.7242,1.6765,1.712,0.0,0.0,0.0,0.0,0.0,0.0,0.0,0.0,0.0,0.0,0.0,0.0,0.0,0.0,0.0,0.0,0.0,0.0,0.0,0.0,0.0,0.0,0.0,0.0,0.0,1.9773,1.8627,0.0,0.0,0.0,0.0,0.0,0.0,0.0,0.0,0.0,0.0,0.0,0.0,1.9198,2.1361,2.2779,2.2691,2.2875,2.2848,2.2459,2.2415,2.1826,2.0456,1.955,1.8283,0.0,0.0,0.0,0.0,0.0,0.0,0.0,0.0,0.0,0.0,0.0,0.0,0.0,0.0,0.0,0.0,0.0,0.0,0.0,0.0,0.0,0.0,0.0,0.0,0.0,0.0,0.0,0.0,0.0,0.0,0.0,0.0,1.0908,1.1761,0.0,0.0,0.0,0.0,0.0,0.0,0.0,0.0,0.0,0.0,0.0,0.0,0.0,0.0,1.553,1.7624,1.8446,1.804,1.9143,1.974,1.9849,1.9807,2.0045,2.0452,2.0395,0.0,1.7922,1.7629,0.0,0.0,0.0,0.0,0.0,0.0,0.0,0.0,0.0,0.0,0.0,0.0,0.0,0.0,0.0,0.0,0.0,0.0,0.0,0.0,0.0,0.0,2.0607,2.1068,2.0565,2.0115,0.0,1.8857,1.7027,1.63,0.0,0.0,0.0,0.0,0.0,0.0,0.0,0.0,2.0528,2.2338,2.3391,2.2995,2.2976,2.2979,2.2914,2.2914,2.2477,2.1472,2.0899,2.009,1.8967,1.7256,0.0,0.0,0.0,0.0,0.0,0.0,0.0,0.0,0.0,0.0,0.0,0.0,0.0,0.0,0.0,0.0,0.0,0.0,0.0,0.0,0.0,0.0,0.0,0.0,0.0,0.0,0.0,0.0,0.0,1.1037,1.2049,1.2398,1.2275,1.2,0.0,0.0,0.0,0.0,0.0,0.0,0.0,0.0,0.0,1.608,1.6617,1.7205,1.7925,1.9214,2.0024,2.0375,2.0935,2.1364,2.1626,2.1649,2.1737,2.1896,2.2037,2.1774,2.1133,1.9607,1.8695,1.82,0.0,0.0,0.0,0.0,0.0,1.8636,1.9893,0.0,0.0,0.0,0.0,0.0,0.0,0.0,0.0,0.0,0.0,0.0,0.0,0.0,0.0,2.2655,2.2286,2.186,2.2797,2.1466,1.9699,0.0,1.8212,1.7687,1.5527,0.0,0.0,0.0,0.0,0.0,2.1533,2.2873,2.3746,2.3831,2.3831,2.3831,2.3831,2.3569,2.3351,2.3238,2.2517,2.1756,2.1062,2.0024,1.8709,0.0,0.0,0.0,0.0,0.0,0.0,0.0,0.0,0.0,0.0,0.0,0.0,0.0,0.0,0.0,0.0,0.0,0.0,0.0,0.0,0.0,0.0,0.0,0.0,0.0,0.0,0.0,0.0,1.233,1.3213,1.3304,1.3355,1.3077,0.0,0.0,0.0,0.0,0.0,0.0,1.6167,1.6333,1.6915,1.7996,1.8403,1.904,1.994,2.0712,2.1456,2.2209,2.2399,2.2619,2.2894,2.2945,2.2945,2.292,2.3022,2.3353,2.362,2.162,2.0511,1.9989,1.9378,1.8969,0.0,1.9746,2.0152,2.0482,2.2151,2.2537,2.2245,2.161,0.0,2.0663,1.9384,0.0,0.0,0.0,0.0,1.9823,2.157,0.0,2.1553,2.3727,2.349,2.3019,2.4005,2.3325,2.2008,0.0,2.0296,1.9855,1.7122,0.0,0.0,0.0,0.0,2.1406,2.2528,2.3594,2.4314,2.4465,2.4506,2.4506,2.4506,2.4117,2.4008,2.429,2.3722,2.3176,2.2677,2.2191,2.0902,0.0,0.0,0.0,0.0,0.0,0.0,0.0,0.0,0.0,0.0,0.0,0.0,0.0,0.0,0.0,0.0,0.0,0.0,0.0,0.0,0.0,0.0,0.0,0.0,0.0,0.0,0.0,0.0,0.0,0.0,1.4928,1.514,0.0,0.0,0.0,0.0,1.5749,1.5995,1.6847,1.8624,1.8134,1.8425,1.9717,2.0087,2.0587,2.119,2.2556,2.3177,2.3023,2.3365,2.3412,2.3181,2.3181,2.3181,2.3181,2.3446,2.3737,2.394,2.3431,2.2797,2.2143,2.1965,2.1292,2.0482,2.1291,2.1985,2.2648,2.353,2.4166,2.4629,2.4655,2.3459,2.2027,2.213,2.1113,0.0,0.0,2.1288,2.1459,2.3072,2.2853,2.2524,2.3729,2.3448,2.3098,2.3843,2.3614,2.2879,0.0,2.0775,2.0075,1.9571,0.0,0.0,2.1129,2.2503,2.3463,2.3604,2.4881,2.5448,2.4574,2.4506,2.4506,2.4506,2.4484,2.4246,2.3768,2.4181,2.4181,2.3659,2.2764,2.2247,2.2236,1.9094,0.0,0.0,0.0,0.0,0.0,0.0,0.0,0.0,0.0,0.0,0.0,0.0,0.0,0.0,0.0,0.0,0.0,0.0,0.0,0.0,0.0,0.0,0.0,0.0,0.0,0.0,0.0,0.0,1.5776,1.6332,0.0,0.0,1.5722,1.6329,1.6997,1.7759,1.8742,1.9982,2.0086,2.0482,2.1335,2.1487,2.1853,2.2519,2.2854,2.3174,2.3489,2.3697,2.3767,2.372,2.4147,2.4246,2.4048,2.4359,2.4642,2.4901,2.4698,2.4221,2.3595,2.3481,2.3214,2.291,2.3204,2.3623,2.4095,2.4393,2.4633,2.4784,2.4669,2.4012,2.3321,2.3808,2.3448,2.2995,2.3351,2.3301,2.3308,2.4172,2.4145,2.4079,2.4759,2.4701,2.4576,2.4852,2.4361,2.3733,2.3321,2.2776,2.2024,2.0856,2.1272,2.179,2.1868,2.2615,2.3433,2.4239,2.4808,2.5209,2.5364,2.5404,2.5513,2.582,2.5295,2.512,2.5536,2.5185,2.4878,2.4661,2.405,2.3282,2.2378,2.061,1.876,0.0,0.0,0.0,0.0,0.0,0.0,0.0,0.0,0.0,0.0,0.0,0.0,0.0,0.0,0.0,0.0,0.0,0.0,0.0,0.0,0.0,0.0,0.0,0.0,0.0,0.0,1.6369,1.6823,1.7442,1.7493,1.6631,1.7183,1.7826,1.8496,1.9305,2.0206,2.1276,2.1409,2.1719,2.2251,2.2407,2.2732,2.3303,2.336,2.3562,2.3988,2.4067,2.4085,2.404,2.447,2.4584,2.4362,2.4613,2.4848,2.5107,2.5163,2.4977,2.4677,2.4661,2.4669,2.4695,2.4951,2.5214,2.5469,2.5748,2.5645,2.5393,2.5245,2.4831,2.4476,2.489,2.4913,2.4799,2.4799,2.4728,2.4679,2.4929,2.5003,2.5076,2.5333,2.5388,2.5388,2.5388,2.4966,2.4581,2.4581,2.3942,2.3044,2.1945,2.2405,2.2814,2.2582,2.3315,2.4132,2.4679,2.523,2.5658,2.5886,2.5906,2.6103,2.6562,2.5884,2.5688,2.6322,2.5622,2.5118,2.4965,2.4486,2.37,2.2546,2.114,1.9569,1.7931,0.0,0.0,0.0,0.0,0.0,0.0,0.0,0.0,0.0,0.0,0.0,0.0,0.0,0.0,0.0,0.0,0.0,0.0,0.0,0.0,0.0,0.0,0.0,1.5133,1.6158,1.7224,1.8158,1.8575,1.8579,1.8124,1.8627,1.9397,2.0359,2.0592,2.123,2.2539,2.2137,2.2026,2.2425,2.2827,2.3195,2.3505,2.4156,2.448,2.448,2.4496,2.4365,2.4129,2.4145,2.4145,2.4145,2.4145,2.4293,2.4541,2.488,2.5173,2.541,2.5559,2.5622,2.573,2.6447,2.6731,2.6841,2.7533,2.7298,2.6628,2.6628,2.6123,2.5462,2.5462,2.5462,2.5462,2.5462,2.5462,2.5462,2.5462,2.5462,2.5462,2.5462,2.5462,2.5462,2.5462,2.5443,2.5407,2.5407,2.4091,2.2986,2.2986,2.2986,2.3098,2.3423,2.4845,0.0,2.5058,2.6302,2.6933,2.6059,2.595,2.6147,2.6606,2.6191,2.5928,2.5928,2.5468,2.4987,2.455,2.4008,2.3506,2.3023,2.0669,1.9399,1.9254,0.0,0.0,0.0,0.0,0.0,0.0,0.0,0.0,0.0,0.0,0.0,0.0,0.0,0.0,0.0,0.0,0.0,0.0,0.0,0.0,0.0,0.0,1.6191,1.6888,1.779,1.8756,1.9743,1.9985,2.0077,2.0028,2.0403,2.0883,2.1431,2.1755,2.2168,2.2787,2.29,2.3014,2.3186,2.3604,2.3827,2.3943,2.4135,2.4202,2.4202,2.4458,2.4526,2.4466,2.4706,2.4817,2.4817,2.4817,2.4878,2.4969,2.5303,2.5484,2.557,2.5676,2.6046,2.6473,2.6693,2.7089,2.7533,2.7728,2.7646,2.7463,2.7463,2.7316,2.7132,2.7132,2.7132,2.7132,2.7132,2.7132,2.7132,2.7132,2.7132,2.7132,2.7132,2.6912,2.671,2.671,2.6251,2.5855,2.5855,2.5242,2.4702,2.4702,2.4702,2.4741,2.4832,0.0,0.0,2.6411,2.6536,2.6783,2.7345,2.7108,2.7108,2.7588,2.6868,2.6409,0.0,2.5643,2.514,2.5009,2.455,2.405,2.3528,2.1865,2.0802,0.0,0.0,0.0,0.0,0.0,0.0,0.0,0.0,0.0,0.0,0.0,0.0,0.0,0.0,0.0,0.0,0.0,0.0,0.0,0.0,0.0,0.0,1.6544,1.7862,1.8964,1.9149,1.9579,2.07,2.0761,2.0888,2.1277,2.1476,2.1733,2.213,2.2456,2.2782,2.3135,2.3516,2.3719,2.3753,2.4116,2.4307,2.4307,2.445,2.4529,2.4529,2.4849,2.5024,2.504,2.5389,2.5579,0.0,2.5579,2.5579,2.5579,2.5767,2.5861,0.0,0.0,0.0,0.0,0.0,2.7416,2.7882,2.7882,2.7879,2.7849,2.7849,2.7807,2.7793,2.7793,2.7793,2.7793,2.7793,2.7793,2.7793,2.7793,2.7793,2.7793,2.7793,2.761,2.7444,2.7444,2.7077,2.6747,2.6747,0.0,0.0,2.6159,2.5737,2.5333,2.5168,2.5872,2.6505,0.0,2.7311,2.7736,2.7976,2.7959,2.8047,2.8309,2.7631,0.0,0.0,0.0,2.5315,2.4922,0.0,0.0,0.0,0.0,0.0,0.0,0.0,0.0,0.0,2.0303,2.0253,0.0,0.0,0.0,0.0,0.0,0.0,0.0,0.0,0.0,0.0,0.0,0.0,0.0,0.0,0.0,0.0,1.8401,1.9586,2.0942,2.0295,2.0118,2.1302,2.119,2.129,2.1984,2.208,2.2255,2.2577,2.2927,2.3248,2.3549,0.0,0.0,0.0,0.0,2.4658,2.4706,2.5008,2.5183,2.523,2.5548,2.566,2.5675,2.6041,2.6216,2.6216,2.6216,2.6216,2.6216,2.6216,2.6216,2.6216,2.6199,2.6383,2.6719,2.7358,2.7751,0.0,0.0,0.0,0.0,2.8131,2.813,2.805,2.8014,2.7995,2.7995,2.794,2.794,2.794,2.794,2.794,2.794,2.794,2.7903,2.7867,2.7867,2.783,2.7793,2.7793,2.7518,2.7261,2.7261,2.6306,2.5407,2.5058,2.6538,0.0,2.6736,2.8229,2.9076,2.8278,0.0,0.0,2.8967,2.8484,2.8155,2.8089,2.6802,2.5666,2.477,2.427,2.427,2.4812,2.4749,2.5068,2.5713,2.5924,2.5967,2.5713,2.2871,2.2408,0.0,0.0,0.0,0.0,0.0,0.0,0.0,0.0,0.0,0.0,0.0,0.0,0.0,0.0,0.0,1.7989,1.92,2.0264,2.1141,2.1416,2.1675,2.2123,2.1953,2.1952,2.2366,2.2641,2.2958,2.3279,2.3657,2.3909,2.3973,2.4323,0.0,2.4514,2.4817,2.5151,2.5406,2.5469,2.5675,2.5977,0.0,0.0,2.6088,2.6152,2.6216,2.6216,2.6216,2.6216,2.6216,2.6216,2.6216,2.6264,2.6723,2.6958,2.7084,2.7744,2.8009,2.8182,2.8711,2.8875,2.8959,2.9561,2.977,2.9672,2.9354,2.9243,0.0,2.8858,2.8785,2.8785,2.8785,2.8785,2.8785,2.8785,2.8528,2.8278,2.8278,2.8032,2.7793,2.7793,2.7738,2.7683,2.7683,2.6949,2.6334,2.6243,2.6594,2.7031,2.7484,2.8187,2.8812,2.9323,2.971,2.9947,2.9925,2.9489,2.9053,2.866,2.7632,2.678,2.6213,2.6104,2.6278,2.6758,2.6387,2.6431,2.6933,2.6998,2.7195,2.7479,2.6125,2.5596,0.0,0.0,0.0,0.0,0.0,0.0,0.0,0.0,0.0,0.0,0.0,1.5283,1.6068,0.0,1.8071,1.9338,2.0231,2.1031,2.1787,2.2113,2.2309,2.2418,2.2336,2.2461,2.2958,2.2681,2.2873,2.3739,2.3674,2.3831,2.4309,2.4689,2.4849,2.4849,2.5183,2.5422,2.5612,2.5802,2.6009,2.6216,2.6359,2.6438,2.6454,2.6629,2.6709,2.6709,2.6709,2.6709,2.6709,2.6709,2.6709,2.6741,2.7035,2.7036,2.6902,2.741,2.76,2.7664,2.82,2.8483,2.8703,2.9471,2.9813,2.9932,2.9916,2.9892,2.9868,2.9654,2.9599,2.9568,2.9398,2.9459,2.9568,2.9398,2.9178,2.9005,2.9005,2.8693,2.8399,2.8399,2.8252,2.8105,2.8105,2.761,2.7206,2.7206,2.754,2.813,2.8996,2.9655,3.0197,3.0611,3.1247,3.1345,3.0624,3.0122,2.9642,2.9185,2.8462,2.796,2.7697,2.7697,2.7807,2.8048,2.8047,2.8178,2.8396,2.8877,2.9226,2.9443,2.9489,2.9033,0.0,0.0,0.0,0.0,0.0,0.0,0.0,0.0,1.4257,1.5306,1.6035,1.685,1.7992,1.8651,1.936,2.0381,2.1113,2.1697,2.2178,2.2435,2.2538,2.2356,2.2363,2.263,2.3166,2.2434,2.2467,2.3808,2.3475,2.3642,2.4644,2.5024,2.5214,2.5214,2.5517,2.5739,2.5802,2.6152,2.6311,2.6391,2.6677,2.6804,2.682,2.7073,2.72,2.72,2.72,2.72,2.72,2.728,2.7312,2.7312,2.7375,2.7223,2.6923,2.7084,2.7131,2.7195,2.7659,2.7946,2.8264,2.9074,2.9515,2.9762,3.0052,3.0127,3.0109,3.0005,3.0031,3.0031,2.9689,2.9844,3.0031,2.9764,2.9652,2.9629,2.969,2.9452,2.9195,2.9133,2.8847,2.859,2.8517,2.8252,2.7977,2.7812,2.8512,2.9327,3.0087,3.1079,3.1698,3.1642,3.2533,3.2617,3.1411,3.0974,3.0559,3.0103,2.9707,2.9445,2.9338,2.9338,2.9381,2.9514,2.9862,3.0125,3.0212,3.0977,3.1349,3.1371,3.2158,3.1848,1.21,1.1557,1.1592,1.305,1.3217,1.3682,0.0,0.0,1.6717,1.7849,1.8398,1.879,1.925,1.9953,2.0373,2.0025,2.1326,2.2108,2.136,2.2221,2.2633,2.1798,2.1911,2.2092,2.2153,2.1854,2.2078,2.3142,2.3426,2.3993,2.4994,2.5358,2.5549,2.5549,2.5945,2.6279,2.6549,2.6629,2.6804,2.7089,2.7121,2.7137,2.7153,2.7185,2.72,2.72,2.72,2.72,2.7232,2.75,2.7643,2.7659,2.7961,2.8058,2.795,2.7379,2.7189,2.7288,2.7982,2.8246,2.8426,2.944,2.9747,2.9792,2.9843,2.9832,2.976,2.9341,2.9502,2.9689,2.9266,2.9453,2.9751,2.972,2.9697,2.9772,3.0069,3.0094,2.9947,2.9611,2.9501,2.9354,2.8975,2.8913,2.8638,2.7903,2.8587,2.9215,2.9327,3.075,3.1795,3.177,3.2556,3.3032,3.2857,3.2813,3.2573,3.2114,3.2048,3.1782,3.1298,3.1276,3.152,3.2005,3.2048,3.2289,3.2704,3.2792,3.2857,3.2857,3.2967,3.2704,1.339,1.3203,0.0,0.0,1.4446,1.5287,1.6699,1.7198,1.7614,1.8456,1.9046,1.951,1.9848,1.9966,2.0066,0.0,2.1091,2.1602,2.1434,2.1852,2.1981,2.1418,2.0816,2.0715,2.146,2.089,2.1057,2.2408,2.2114,2.2363,2.3527,2.4307,2.4806,2.4958,2.5941,2.655,2.6709,2.6883,2.7057,2.72,2.72,2.72,2.72,2.72,2.7312,2.7484,2.7709,2.7804,2.7804,2.7929,2.7976,2.7992,2.8135,2.8183,2.8151,2.79,2.7804,2.7872,2.8382,2.8455,2.8442,2.9259,2.9371,2.9265,2.9436,2.9531,2.9463,2.9275,2.9462,2.9654,2.9319,2.9512,2.975,2.975,2.9732,2.9793,3.0176,3.0244,3.0149,2.9965,2.9947,2.9892,2.9727,2.969,2.958,2.9262,2.9127,2.9276,2.9824,3.0522,3.1402,3.2441,3.2862,3.3207,3.3491,3.3251,3.301,3.2813,3.2813,3.2704,3.2459,3.2459,3.2595,3.2813,3.2813,3.2901,3.3098,3.3382,3.3639,3.3923,3.4185,3.4387,1.3845,0.0,0.0,1.4675,1.5641,1.6727,1.7222,1.7896,1.8567,1.9156,1.9674,2.0015,2.0049,1.9928,0.0,1.9836,2.0435,2.0854,2.0845,2.1074,2.1057,2.0539,1.964,1.9358,2.0096,1.9702,2.0054,2.156,2.1067,2.1246,2.2456,2.3653,2.4439,2.4645,2.6073,2.6852,2.6852,2.7073,2.72,2.72,2.7296,2.7343,2.7359,2.7439,2.7629,2.7849,2.8088,2.8183,2.8199,2.8329,2.8376,2.8376,2.8487,2.8484,2.8484,2.8484,2.8357,2.8233,2.851,2.8486,2.8363,2.8973,2.8993,2.8843,2.9193,2.9293,2.9293,2.9293,2.9541,2.9706,2.9392,2.9473,2.965,2.965,2.965,2.9725,3.0191,3.0357,3.0403,3.0387,3.0369,3.0332,3.0222,3.0204,3.0204,3.0204,2.969,2.9628,3.0447,3.0684,3.1431,3.3137,3.3328,3.361,3.4338,3.4103,3.3885,3.3885,3.3885,3.3819,3.3688,3.3819,3.3819,3.3688,3.3819,3.3885,3.3885,3.4256,3.4578,3.4928,3.5255,3.5634,0.0,0.0,1.4416,1.5643,1.677,1.7806,1.8704,1.9451,2.0081,2.0638,2.0742,2.0546,1.9855,2.0181,2.0003,1.8257,1.9285,1.9997,1.9113,1.978,1.99,1.8717,1.8562,1.8279,0.0,1.8307,1.9242,2.055,2.085,2.144,2.2438,2.4061,2.4991,2.4973,2.6415,2.7185,2.7185,2.72,2.72,2.72,2.7516,2.7675,2.7691,2.8008,2.8167,2.8183,2.8183,2.8183,2.8214,2.8599,2.8793,2.8825,2.9123,2.9266,2.9266,2.9266,2.8821,2.8183,2.8217,2.8217,2.827,2.8666,2.8804,2.8873,2.9182,2.9301,2.9301,2.9301,2.9525,2.9713,2.9388,2.9327,2.9312,2.9312,2.9291,2.9495,3.018,3.0584,3.0846,3.0782,3.0772,3.0644,3.0259,3.0204,3.0204,3.0204,3.0185,3.034,3.0926,3.1426,3.2304,3.3712,3.3899,3.4444,3.5838,3.5918,3.5918,3.5918,3.5918,3.5677,3.5168,3.5655,3.5677,3.5146,3.5655,3.5918,3.5918,3.5918,3.594,3.5961,3.5961,3.5983,0.0,0.0,1.433,1.5342,1.6645,1.7849,1.8572,1.9516,2.032,2.0502,2.015,1.9744,1.9496,1.8843,1.8198,1.7762,1.864,1.9258,1.8939,1.933,1.9285,1.8341,1.7989,0.0,0.0,0.0,0.0,1.9274,1.9764,2.023,2.0747,2.2808,2.408,2.4261,2.6188,2.72,2.72,2.72,2.7328,2.7532,2.7865,2.8024,2.804,2.8424,2.8583,2.8599,2.8837,2.8932,2.8948,2.9059,2.9123,2.9123,2.925,2.9298,2.9298,2.9298,2.9139,2.8932,2.8932,2.8773,2.8618,2.8758,2.8598,2.8441,2.8544,2.8579,2.8579,2.8579,2.882,2.9112,2.9008,2.8979,2.9034,2.9239,2.9309,2.9513,3.022,3.0645,3.096,3.1161,3.1216,3.1171,3.1043,3.1006,3.1006,3.1006,3.0534,3.0272,3.0463,3.1728,3.2821,3.3309,3.4529,3.549,3.5954,3.6005,3.6005,3.6005,3.6005,3.5918,3.5743,3.5896,3.5918,3.5743,3.5918,3.6005,3.6005,3.6005,3.6158,3.6457,3.6457,3.6639,1.3202,1.3967,1.4766,1.569,1.6838,1.794,1.8622,1.9481,2.019,2.0366,1.9741,1.902,1.8577,1.7565,1.6834,1.6954,1.7611,1.8224,1.8487,1.8678,1.8551,1.7973,1.7667,0.0,0.0,0.0,0.0,1.8669,1.9298,1.9886,2.0422,2.2485,2.3916,2.4486,2.6282,2.72,2.72,2.7328,2.7629,2.8106,2.8313,2.8487,2.8614,2.8853,2.9,2.9,2.9202,2.9298,2.9298,2.9298,2.9298,2.9298,2.9298,2.9298,2.9298,2.9298,2.9298,2.9298,2.9298,2.9155,2.9,2.9,2.8805,2.8614,2.8614,2.8614,2.8614,2.8614,2.879,2.8981,2.8981,2.8884,2.8857,2.9065,2.9331,2.9627,3.0122,3.068,3.1207,3.154,3.1606,3.1654,3.1818,3.1689,3.1598,3.1598,3.1047,3.0571,3.0424,3.137,3.2259,3.2761,3.3949,3.5049,3.5873,3.5954,3.6132,3.6479,3.6508,3.6421,3.6268,3.6421,3.6421,3.6268,3.6421,3.6508,3.6508,3.6508,3.6748,3.7199,3.7199,3.744,1.3456,1.4519,1.5581,1.6505,1.7288,1.8062,1.884,1.9331,1.9733,2.0166,1.9419,1.8345,0.0,0.0,1.5906,1.5848,1.6356,1.7008,1.7798,1.7931,1.7847,0.0,0.0,0.0,0.0,0.0,0.0,1.8662,0.0,2.0335,2.1397,2.2943,2.4312,2.5394,2.6517,2.715,2.7132,2.7564,2.8122,2.8809,2.8825,2.9,2.9298,2.9298,2.9298,2.9298,2.9298,2.9298,2.9298,2.9298,2.9298,2.9298,2.9298,2.9298,2.9298,2.9298,2.9298,2.9298,2.9298,2.9298,2.9298,2.9298,2.9298,2.9298,2.9298,2.9298,2.9298,2.9298,2.9298,2.9298,2.9298,2.9043,2.8825,2.8825,2.939,2.99,2.9916,3.0719,3.1549,3.192,3.2036,3.2152,3.2521,3.2276,3.2038,3.2038,3.1689,3.1318,3.0882,3.056,3.0854,3.2195,3.2389,3.3353,3.5704,3.59,3.635,3.7344,3.7404,3.7208,3.6741,3.7156,3.7178,3.6784,3.7229,3.7448,3.7492,3.7492,3.768,3.8139,3.8139,3.837,1.3634,1.4342,1.5033,1.567,1.6458,1.7194,1.7591,1.8067,1.8336,1.8061,1.7018,1.5923,0.0,0.0,0.0,1.5235,1.6416,0.0,1.7847,1.8258,0.0,0.0,0.0,1.801,1.7822,1.8234,0.0,0.0,1.9382,1.9914,2.0586,2.1944,2.2846,2.3119,2.5022,2.6121,2.6379,2.7805,2.8634,2.8809,2.9043,2.9202,2.9298,2.9298,2.9298,2.9298,2.9298,2.9298,2.9298,2.9298,2.9298,2.9298,2.9298,2.9298,2.9298,2.9298,2.9298,2.9298,2.9298,2.9298,2.9298,2.9298,2.9298,2.9298,2.9298,2.9298,2.9298,2.9298,2.9298,2.9298,2.9298,2.9234,2.9155,2.9155,2.9554,2.9968,3.0232,3.0489,3.0943,3.187,3.2302,3.2488,3.2588,3.2514,3.2441,3.2441,3.2349,3.2019,3.1355,3.1821,3.2352,3.2719,3.3411,3.4417,3.5777,3.59,3.635,3.7344,3.7404,3.7361,3.7229,3.7339,3.7505,3.7745,3.7855,3.8095,3.8435,3.8435,3.8501,3.861,3.861,3.8697,1.4051,1.463,1.5161,1.5572,1.6036,1.6444,1.6638,1.6924,1.6966,1.6386,1.5325,0.0,0.0,0.0,0.0,0.0,0.0,0.0,1.798,1.8324,1.8475,0.0,1.8372,0.0,1.827,1.8645,1.9044,0.0,1.96,2.0065,2.0955,2.1812,2.2516,2.2996,2.4814,2.6284,2.727,2.8287,2.8888,2.9031,2.9202,2.9298,2.9298,2.9298,2.9298,2.9298,0.0,2.9298,2.9298,2.9298,2.9298,2.9298,2.9298,2.9298,2.9314,2.9472,2.9536,2.9552,2.9695,2.9743,2.9695,2.9393,2.9298,2.9298,2.9298,2.9298,2.9298,2.9298,2.9298,2.9298,2.9298,2.9298,2.9298,2.9298,2.9712,3.014,3.0176,3.0684,3.1408,3.2191,3.2669,3.29,3.29,3.289,3.2863,3.2863,3.2716,3.2423,3.1964,3.2413,3.2771,3.2771,3.327,3.4201,3.5693,3.5819,3.6446,3.7915,3.8008,3.8008,3.8008,3.8008,3.8139,3.8392,3.8392,3.8522,3.8806,3.8806,3.8915,3.9143,3.9143,3.9253,1.4789,1.525,1.5608,1.5837,1.5861,1.5842,1.5817,1.5742,1.5473,1.4803,0.0,0.0,1.2883,1.2729,1.3109,1.4473,0.0,1.6779,1.8106,1.8324,1.8444,1.8741,1.8734,1.8778,1.8782,1.9032,1.9382,1.9893,1.9941,2.0487,2.1695,2.1975,2.2667,2.394,2.5266,2.6881,2.8793,2.8856,2.8996,2.9298,2.9298,2.9298,2.9298,2.9298,2.9298,2.9298,0.0,0.0,2.9298,2.9298,2.9298,2.9298,2.9298,2.9329,2.9409,2.9674,2.9817,2.9897,3.0219,3.0315,3.0219,2.9631,2.9441,2.9441,2.9441,2.9441,2.9441,2.9441,2.9441,2.9441,2.9441,2.9441,2.9441,2.9441,2.9964,3.0362,3.0043,3.1062,3.2158,3.2561,3.2981,3.3313,3.3365,3.3335,3.3269,3.3269,3.2991,3.2753,3.2753,3.2661,3.2588,3.2588,3.2588,3.3369,3.5301,3.5496,3.6325,3.8249,3.8501,3.8564,3.8564,3.8743,3.8828,3.8893,3.8893,3.8937,3.9003,3.9003,3.9253,3.9678,3.9678,3.994,1.61,1.6158,1.5837,1.5885,1.5728,1.5466,1.5022,1.441,0.0,0.0,0.0,1.1507,1.147,1.1945,1.287,1.4437,0.0,0.0,0.0,0.0,1.8741,0.0,0.0,0.0,0.0,0.0,0.0,0.0,0.0,0.0,2.0892,2.0953,2.2034,2.4302,2.4889,2.6337,2.8757,2.9059,2.9234,2.9298,2.9298,2.9298,2.9298,2.9298,2.9298,2.9298,0.0,0.0,2.9298,2.9298,2.9298,2.9298,2.9298,2.9472,2.9706,2.977,2.996,3.0198,3.0262,3.0315,3.0262,3.0172,3.014,3.014,3.014,3.014,3.014,3.014,3.014,3.014,3.014,3.014,3.014,3.014,3.0472,3.0738,3.0409,3.1033,3.1806,3.2158,3.2806,3.3383,3.3678,3.3692,3.3707,3.3707,3.3651,3.3596,3.3596,3.301,3.2588,3.2588,3.2588,3.3088,3.4274,3.4373,3.4897,3.6066,3.6999,3.7477,3.7477,3.8344,3.9012,3.9459,3.9459,3.9656,4.0039,4.0039,4.0115,4.0181,4.0181,4.0443,1.629,1.6197,1.5885,1.5885,1.5982,1.5694,1.4206,0.0,0.0,0.0,0.0,1.0484,1.0484,0.0,0.0,0.0,0.0,0.0,0.0,0.0,0.0,0.0,0.0,0.0,0.0,0.0,0.0,0.0,0.0,0.0,2.07,2.1391,2.2697,2.4694,2.5639,2.7074,2.9043,2.9218,2.9298,2.9298,2.9298,2.9298,2.9298,2.9298,2.9298,2.9298,0.0,0.0,2.9298,2.9298,2.9298,2.9314,2.9504,2.9679,2.9833,3.0235,3.0458,3.0632,3.0807,3.0871,3.0871,3.0871,3.0616,3.0315,3.0315,3.0315,3.0315,3.0315,3.0315,3.0315,3.0315,3.0315,3.0315,3.0315,3.0442,3.0653,3.0934,3.1119,3.1529,3.2483,3.3001,3.3429,3.4068,3.4299,3.4405,3.4405,3.4257,3.411,3.411,3.3596,3.323,3.323,3.323,3.3653,3.4681,3.4782,3.5485,3.7106,3.7696,3.8216,3.8787,3.9324,3.9689,3.9962,3.9962,4.0071,4.0312,4.0541,4.0651,4.0672,4.0891,4.1131,1.6703,1.6523,1.6232,1.6391,1.6612,1.6183,1.39,1.3527,0.0,0.0,0.0,0.9853,0.9961,0.0,0.0,0.0,0.0,0.0,0.0,0.0,0.0,0.0,0.0,0.0,0.0,0.0,0.0,0.0,0.0,0.0,2.07,2.2027,2.3469,2.4954,2.6352,2.7799,2.9298,2.9298,2.9298,2.9298,2.9298,2.9298,2.9298,2.9298,2.9298,2.9298,0.0,0.0,0.0,2.9298,2.9298,2.9329,2.9659,2.9833,3.0013,3.067,3.0956,3.1052,3.13,3.1395,3.1395,3.1395,3.1014,3.0553,3.0553,3.0553,3.0553,3.0553,3.0553,3.0553,3.0553,3.0553,3.0553,3.0553,3.0489,3.0628,3.1334,3.1174,3.1367,3.2891,3.3202,3.351,3.4433,3.4847,3.4991,3.4991,3.4752,3.4532,3.4532,3.4257,3.4073,3.4073,3.4,3.4274,3.51,3.5505,3.6436,3.8184,3.8741,3.9375,4.0202,4.0487,4.0618,4.0618,4.0618,4.0618,4.0618,4.0956,4.1153,4.1153,4.1524,4.1743,1.8351,1.7988,1.7252,1.8003,1.7795,1.6866,1.4754,0.0,0.0,1.0344,0.9704,0.968,1.0166,0.0,0.0,0.0,0.0,1.4304,0.0,0.0,0.0,0.0,0.0,0.0,0.0,0.0,0.0,0.0,0.0,0.0,0.0,2.2027,2.3469,2.4954,2.6352,2.7799,2.9298,2.9298,2.9298,2.9298,2.9298,2.9298,2.9298,2.9298,2.9298,2.9298,0.0,0.0,0.0,2.9298,2.9298,2.9329,2.9659,2.9976,3.0315,3.0749,3.1099,3.1347,3.1379,3.1395,3.1395,3.1395,3.1347,3.13,3.13,3.13,3.13,3.13,3.13,3.13,3.13,3.13,3.13,3.13,3.1083,3.0958,3.1313,3.1129,3.1367,3.2891,3.3202,3.3583,3.4739,3.4991,3.4991,3.4991,3.4954,3.4936,3.4936,3.4899,3.4881,3.4881,3.4568,3.4384,3.4489,3.5828,3.6762,3.6973,3.8869,4.0022,4.0124,4.1041,4.1568,4.1568,4.1568,4.1568,4.1568,4.1612,4.1634,4.1634,4.1677,4.1918,1.8469,1.8363,1.7989,1.8318,1.7806,1.6717,1.462,0.0,1.2261,1.0088,0.9572,0.956,0.9776,0.9949,0.0,0.0,0.0,0.0,0.0,0.0,0.0,0.0,0.0,0.0,0.0,0.0,0.0,0.0,0.0,0.0,0.0,2.323,2.4701,2.5918,2.7555,2.871,2.9298,2.9298,2.9298,2.9298,2.9298,2.9298,2.9298,2.9298,2.9298,2.9298,0.0,0.0,0.0,2.9298,2.9298,2.9345,2.9901,3.0166,3.0394,3.0966,3.1268,3.1395,3.1395,3.1395,3.1395,3.1395,3.1395,3.1395,3.1395,3.1395,3.1395,3.1395,3.1395,3.1395,3.1395,3.1395,3.1395,3.1395,3.1284,3.1265,3.1379,3.1669,3.2234,3.334,3.3935,3.4583,3.5559,3.5742,3.5742,3.5742,3.5504,3.5339,3.5339,3.5138,3.4991,3.4991,3.4844,3.5055,3.5727,3.6409,3.7352,3.8714,3.9612,4.0388,4.1035,4.1475,4.1699,4.1699,4.1699,4.1699,4.1699,4.1983,4.2136,4.2136,4.2442,4.2682,1.8574,1.8714,1.8671,1.893,1.8378,1.7144,0.0,0.0,1.2502,1.0011,0.9628,0.9692,0.9532,0.9716,1.0081,0.0,0.0,1.2087,0.0,0.0,0.0,0.0,0.0,0.0,0.0,0.0,0.0,0.0,0.0,0.0,0.0,2.4177,2.5496,2.6564,2.8349,2.9298,2.9298,2.9298,2.9298,2.9298,2.9298,2.9298,2.9298,2.9298,2.9298,0.0,0.0,0.0,0.0,2.9298,2.9298,2.9361,3.0044,3.0315,3.041,3.1125,3.1395,3.1395,3.1395,3.1395,3.1395,3.1395,3.1395,3.1395,3.1395,3.1395,3.1395,3.1395,3.1395,3.1395,3.1395,3.1395,3.1395,3.1395,3.1395,3.1472,3.1686,3.2184,3.2892,3.3954,3.4632,3.5269,3.6052,3.6201,3.6201,3.6201,3.5981,3.5797,3.5797,3.5522,3.5484,3.5846,3.5882,3.6151,3.6858,3.77,3.8819,4.041,4.0824,4.1362,4.2102,4.2136,4.2136,4.2136,4.2136,4.2136,4.2136,4.2485,4.2638,4.266,4.301,4.3285,1.8965,1.925,1.9305,2.0175,1.9876,1.8558,0.0,1.4526,1.3452,1.0175,0.9919,1.0126,0.9596,0.9716,1.0081,1.0617,1.1593,0.0,0.0,0.0,0.0,0.0,0.0,0.0,0.0,0.0,0.0,0.0,0.0,0.0,0.0,2.4595,2.5496,2.6564,2.8349,2.9298,2.9298,2.9298,2.9298,2.9298,2.9298,2.9298,2.9298,2.9298,0.0,0.0,0.0,0.0,0.0,2.9298,2.9298,2.9361,3.0044,3.0315,3.041,3.1125,3.1395,3.1395,3.1395,3.1395,3.1395,3.1395,3.1395,3.1395,3.1395,3.1395,3.1395,3.1395,3.1395,3.1395,3.1395,3.1395,3.1395,3.1395,3.1395,3.1609,3.2413,3.2588,3.3082,3.4669,3.5007,3.5269,3.6052,3.6201,3.6201,3.6201,3.6201,3.6201,3.6201,3.6201,3.6627,3.7841,3.7951,3.7797,3.7429,3.9826,4.1353,4.1389,4.2489,4.3163,4.3163,4.3163,4.3163,4.3163,4.3163,4.3163,4.3163,4.3197,4.3197,4.3197,4.3219,4.346,1.8078,1.852,1.8745,1.8646,1.7748,1.6451,1.4854,1.3733,1.2473,1.0458,1.0174,1.0142,0.9596,0.9572,0.9985,1.1068,1.1533,0.0,0.0,0.0,0.0,0.0,0.0,0.0,0.0,0.0,0.0,0.0,0.0,0.0,0.0,0.0,2.6344,2.7663,2.8739,2.9298,2.9298,2.9298,2.9298,2.9298,2.9298,2.9298,2.9298,2.9298,0.0,0.0,0.0,0.0,0.0,2.9298,2.9298,2.9361,3.0044,3.0315,3.041,3.1125,3.1395,3.1395,3.1395,3.1395,3.1395,3.1395,3.1395,3.1395,3.1395,3.1395,3.1395,3.1395,3.1395,3.1395,3.1395,3.1395,3.1395,3.1395,3.1395,3.1609,3.2452,3.2816,3.331,3.4368,3.5044,3.5493,3.5754,3.6015,3.6201,3.6201,3.6201,3.6201,3.6201,3.6904,3.7567,3.797,3.9405,4.0279,4.0136,4.09,4.1728,4.2581,4.2988,4.3219,4.3219,4.3219,4.3219,4.3219,4.3219,4.3219,4.3219,4.3219,4.3372,4.37,4.4028,4.4233,0.0,1.7891,1.8208,1.7792,1.687,1.5746,1.4505,1.3465,1.2303,1.0645,1.0301,1.0142,0.9596,0.9584,0.9944,1.0906,1.1465,0.0,0.0,0.0,0.0,0.0,0.0,0.0,0.0,0.0,0.0,0.0,0.0,0.0,0.0,0.0,2.6756,2.8148,2.8789,2.9155,2.9298,2.9298,2.9298,2.9298,2.9298,2.9298,2.9298,0.0,0.0,0.0,0.0,0.0,0.0,2.9298,2.9298,2.9345,2.9917,3.0166,3.0394,3.0982,3.1268,3.1395,3.1395,3.1395,3.1395,3.1395,3.1395,3.1395,3.1395,3.1395,3.1395,3.1395,3.1395,3.1395,3.1395,3.1395,3.1395,3.1395,3.1395,3.1648,3.2626,3.3006,3.3538,3.4632,3.5269,3.5642,3.5791,3.6015,3.6201,3.6201,3.6201,3.6201,3.6201,3.6867,3.7494,3.7934,3.9658,4.0948,4.1374,4.182,4.2405,4.315,4.3219,4.3219,4.3219,4.3219,4.3285,4.346,4.3482,4.3569,4.3744,4.3744,4.3897,4.4181,4.4648,4.4866,0.0,1.7196,1.7536,1.7296,1.6869,1.602,1.4256,1.36,0.0,1.0776,1.0349,1.0187,0.9661,0.9757,1.0021,1.0382,0.0,0.0,0.0,0.0,0.0,0.0,0.0,0.0,0.0,0.0,0.0,0.0,0.0,0.0,0.0,0.0,2.6794,2.8101,2.8519,2.892,2.9298,2.9298,2.9298,2.9298,2.9298,2.9298,2.9298,0.0,0.0,0.0,0.0,0.0,0.0,2.9298,2.9298,2.9329,2.9659,2.9992,3.0362,3.0765,3.1131,3.1395,3.1395,3.1395,3.1395,3.1395,3.1395,3.1395,3.1395,3.1395,3.1395,3.1395,3.1395,3.1395,3.1395,3.1395,3.1395,3.1395,3.1395,3.1725,3.2892,3.3196,3.3651,3.5231,3.5568,3.5717,3.6089,3.62,3.6256,3.6256,3.6274,3.6292,3.6292,3.6367,3.6849,3.7956,3.9126,4.0263,4.1408,4.2554,4.3219,4.3263,4.3263,4.3263,4.3307,4.3307,4.3504,4.3941,4.3941,4.4181,4.4582,4.4626,4.4648,4.4648,4.515,4.5369,1.4509,0.0,1.5425,1.4825,1.4502,1.4155,0.0,1.3229,1.2718,1.1159,0.0,0.0,1.0202,0.9997,0.0,0.0,0.0,0.0,0.0,0.0,0.0,0.0,0.0,0.0,0.0,0.0,0.0,0.0,0.0,0.0,0.0,0.0,2.7217,2.7802,2.7897,2.8392,2.9282,2.9298,2.9298,2.9298,2.9298,2.9298,2.9298,2.9298,0.0,0.0,0.0,0.0,2.9298,2.9298,2.9298,2.9329,2.9659,2.9992,3.0362,3.0765,3.1131,3.1395,3.1395,3.1395,3.1395,3.1395,3.1395,3.1395,3.1395,3.1395,3.1395,3.1395,3.1395,3.1395,3.1395,3.1395,3.1395,3.1395,3.1395,3.1664,3.2566,3.2968,3.35,3.4481,3.5194,3.5642,3.5717,3.6251,3.6658,3.6658,3.6915,3.7098,3.7098,3.7933,3.8613,3.8876,3.9941,4.1106,4.2277,4.2884,4.3372,4.3722,4.3744,4.3897,4.4233,4.4255,4.4298,4.4408,4.4465,4.4473,4.4582,4.4976,4.515,4.515,4.5631,4.5849,1.3214,1.4112,1.4882,1.4413,1.4211,1.3979,1.3558,0.0,0.0,0.0,0.0,0.0,0.0,0.0,0.0,0.0,0.0,0.0,0.0,0.0,0.0,0.0,0.0,0.0,0.0,0.0,0.0,0.0,0.0,0.0,0.0,0.0,2.7359,2.7691,2.7691,2.8119,2.9043,2.9059,2.9139,2.9298,2.9298,2.9298,2.9298,2.9298,0.0,0.0,0.0,0.0,2.9298,2.9298,2.9298,2.9314,2.9504,2.979,3.014,3.0489,3.0877,3.1211,3.1331,3.1395,3.1395,3.1395,3.1395,3.1395,3.1395,3.1395,3.1395,3.1395,3.1395,3.1395,3.1395,3.1395,3.1395,3.1395,3.1395,3.1648,3.2664,3.3044,3.3589,3.4953,3.5592,3.5985,3.6355,3.6801,3.7061,3.7061,3.7244,3.7391,3.7391,3.7947,3.8595,3.9164,4.0275,4.1448,4.2685,4.3458,4.3963,4.4225,4.4225,4.4356,4.4582,4.4582,4.4692,4.4932,4.5129,4.5238,4.5238,4.55,4.5631,4.5631,4.5893,4.6002,1.268,1.3853,1.4981,1.4679,1.4547,1.4378,1.3916,0.0,0.0,0.0,0.0,0.0,0.0,0.0,0.0,0.0,0.0,0.0,0.0,0.0,0.0,0.0,0.0,0.0,0.0,0.0,0.0,0.0,0.0,0.0,0.0,0.0,0.0,2.7611,2.7611,2.7963,2.8634,2.8745,2.8952,2.9218,2.9266,2.9298,2.9298,2.9298,0.0,0.0,0.0,0.0,2.9298,2.9298,2.9298,2.9298,2.9298,2.9504,2.9833,3.0203,3.0553,3.0956,3.1268,3.1395,3.1395,3.1395,3.1395,3.1395,3.1395,3.1395,3.1395,3.1395,3.1395,3.1395,3.1395,3.1395,3.1395,3.1395,3.1395,3.1686,3.2778,3.3171,3.3839,3.5653,3.6158,3.6531,3.7259,3.7428,3.7482,3.7482,3.7537,3.7574,3.7574,3.7767,3.8287,3.9356,4.051,4.1708,4.3005,4.3979,4.462,4.4801,4.4735,4.4735,4.4801,4.4801,4.4997,4.5412,4.5806,4.6002,4.6002,4.6002,4.6002,4.6002,4.6002,4.6002,1.3693,1.442,1.4591,1.3489,1.3398,1.3558,1.3413,0.0,0.0,0.0,0.0,0.0,0.0,0.0,0.0,0.0,0.0,0.0,0.0,0.0,0.0,0.0,0.0,0.0,0.0,0.0,0.0,0.0,0.0,0.0,0.0,0.0,0.0,2.728,2.728,2.7471,2.7849,2.8471,2.8825,2.8888,2.9155,2.9298,2.9298,2.9298,2.9298,0.0,0.0,2.9298,2.9298,2.9298,2.9298,2.9298,2.9298,2.9504,2.9833,3.0203,3.0553,3.0956,3.1268,3.1395,3.1395,3.1395,3.1395,3.1395,3.1395,3.1395,3.1395,3.1395,3.1395,3.1395,3.1395,3.1395,3.1395,3.1395,3.1395,3.1549,3.2069,3.3006,3.4009,3.4981,3.6029,3.6857,3.7334,3.7666,3.7924,3.7924,3.8197,3.8417,3.8417,3.9342,4.0123,4.0278,4.1381,4.2645,4.3874,4.4137,4.4721,4.571,4.5412,4.5391,4.5762,4.5784,4.5828,4.5893,4.5959,4.6002,4.6002,4.6002,4.6002,4.6002,4.6002,4.6002,1.3186,1.373,1.4015,1.3894,1.4209,1.4461,1.4223,0.0,0.0,0.0,0.0,0.0,0.0,0.0,0.0,0.0,0.0,0.0,0.0,0.0,0.0,0.0,0.0,0.0,0.0,0.0,0.0,0.0,0.0,0.0,0.0,0.0,0.0,0.0,2.72,2.728,2.7439,2.7947,2.8392,2.8809,2.8968,2.9107,2.9298,2.9298,2.9298,2.9298,0.0,2.9298,2.9298,2.9298,2.9298,2.9298,2.9298,2.9393,2.96,3.0124,3.0553,3.0956,3.1268,3.1395,3.1395,3.1395,3.1395,3.1395,3.1395,3.1395,3.1395,3.1395,3.1395,3.1395,3.1395,3.1395,3.1395,3.1395,3.1538,3.182,3.2478,3.3182,3.4121,3.5613,3.639,3.7036,3.7897,3.8197,3.8307,3.8307,3.8472,3.8838,3.9529,4.0157,4.0997,4.2368,4.2981,4.3818,4.5084,4.5159,4.5421,4.5965,4.5806,4.5784,4.6002,4.6002,4.6002,4.6002,4.6002,4.6002,4.6002,4.6002,4.6002,4.6002,4.6002,4.6133,1.2955,1.3315,1.3731,1.4601,0.0,1.5196,1.5247,0.0,0.0,0.0,0.0,0.0,0.0,0.0,0.0,0.0,0.0,0.0,0.0,0.0,0.0,0.0,0.0,0.0,0.0,0.0,0.0,0.0,0.0,0.0,0.0,0.0,0.0,0.0,2.72,2.72,2.72,2.7437,2.7915,2.8535,2.8729,2.8952,2.9171,2.925,2.9298,2.9298,2.9298,2.9298,2.9298,2.9298,2.9298,2.9298,2.9298,2.9345,2.9488,3.0092,3.0553,3.0956,3.1268,3.1395,3.1395,3.1395,3.1395,3.1395,3.1395,3.1395,3.1395,3.1395,3.1395,3.1395,3.1395,3.1395,3.1411,3.149,3.1713,3.2131,3.2914,3.3365,3.4169,3.6158,3.6636,3.7112,3.8387,3.86,3.86,3.86,3.8838,3.9391,4.0392,4.0997,4.2099,4.4008,4.4424,4.5009,4.5928,4.6002,4.6002,4.6002,4.6002,4.6002,4.6002,4.6002,4.6002,4.6002,4.6002,4.6002,4.6002,4.6002,4.6068,4.6177,4.6046,4.633,1.4066,1.4115,1.4072,1.4964,0.0,0.0,1.6056,0.0,0.0,0.0,0.0,0.0,0.0,0.0,0.0,0.0,0.0,0.0,0.0,0.0,0.0,0.0,0.0,0.0,0.0,0.0,0.0,0.0,0.0,0.0,0.0,0.0,0.0,0.0,0.0,2.72,2.72,2.7232,2.7439,2.7786,2.8456,2.8809,2.8856,2.9155,2.9298,2.9298,2.9298,2.9298,2.9298,2.9298,2.9298,2.9298,2.9298,2.9504,2.9801,3.0187,3.0553,3.0956,3.1268,3.1395,3.1395,3.1395,3.1395,3.1395,3.1395,3.1395,3.1395,3.1395,3.1395,3.1395,3.1395,3.1395,3.1474,3.1808,3.1864,3.2093,3.2846,3.3305,3.4109,3.5815,3.645,3.7112,3.8402,3.86,3.86,3.86,3.9608,4.0392,4.0509,4.2522,4.4008,4.4159,4.5197,4.5928,4.6002,4.6002,4.6002,4.6002,4.6002,4.6002,4.6002,4.6002,4.6002,4.6002,4.6002,4.6002,4.6002,4.6002,4.6243,4.662,4.6221,4.6526,1.3455,1.3754,1.4114,1.5036,0.0,0.0,0.0,0.0,0.0,0.0,0.0,0.0,0.0,0.0,0.0,0.0,0.0,0.0,0.0,0.0,0.0,0.0,0.0,0.0,0.0,0.0,0.0,0.0,0.0,0.0,0.0,0.0,0.0,0.0,0.0,2.72,2.72,2.72,2.7264,2.7373,2.7884,2.8344,2.8809,2.8952,2.9091,2.9298,2.9298,2.9298,2.9298,2.9298,2.9298,2.9298,2.9298,2.9377,2.9568,3.0108,3.041,3.0601,3.1188,3.1395,3.1395,3.1395,3.1395,3.1395,3.1395,3.1395,3.1395,3.1395,3.1395,3.1395,3.1395,3.1554,3.1744,3.1887,3.2253,3.2682,3.293,3.3718,3.469,3.588,3.6642,3.7428,3.8441,3.86,3.8877,3.9647,4.0197,4.1074,4.2598,4.3629,4.4499,4.5234,4.5742,4.6002,4.6002,4.6002,4.6002,4.6002,4.6002,4.6002,4.6002,4.6002,4.6002,4.6002,4.6002,4.6002,4.6002,4.6308,4.6395,4.6286,4.6965,4.7383,1.31,1.3436,1.4019,0.0,0.0,0.0,0.0,0.0,0.0,0.0,0.0,0.0,0.0,0.0,0.0,0.0,0.0,0.0,0.0,0.0,0.0,0.0,0.0,0.0,0.0,0.0,0.0,0.0,0.0,0.0,0.0,0.0,0.0,0.0,0.0,0.0,2.72,2.72,2.72,2.72,2.7421,2.7868,2.8456,2.8697,2.8936,2.9139,2.925,2.9298,2.9298,2.9298,2.9298,2.9298,2.9298,2.9298,2.9377,3.006,3.0315,3.0426,3.1141,3.1395,3.1395,3.1395,3.1395,3.1395,3.1395,3.1395,3.1395,3.1395,3.1395,3.1411,3.1522,3.1744,3.1967,3.2189,3.2642,3.3024,3.3135,3.401,3.5027,3.574,3.6707,3.7645,3.8282,3.8838,3.949,4.0353,4.1152,4.2291,4.397,4.4537,4.5084,4.5928,4.6002,4.6002,4.6002,4.6002,4.6002,4.6002,4.6002,4.6002,4.6002,4.6002,4.6002,4.6002,4.6155,4.6155,4.6002,4.6445,4.6598,4.6483,4.7289,4.7756,1.3275,1.3353,1.3795,0.0,0.0,0.0,0.0,0.0,0.0,0.0,0.0,0.0,0.0,0.0,0.0,0.0,0.0,0.0,0.0,0.0,0.0,0.0,0.0,0.0,0.0,0.0,0.0,0.0,0.0,0.0,0.0,0.0,0.0,0.0,0.0,0.0,2.72,2.72,2.72,2.72,2.72,2.7391,2.7723,2.844,2.8793,2.8809,2.9139,2.9298,2.9298,2.9298,2.9298,2.9298,2.9298,2.9298,2.9377,3.006,3.0315,3.0388,3.1141,3.1379,3.1395,3.1395,3.1395,3.1395,3.1395,3.1395,3.1395,3.1395,3.1395,3.1474,3.1824,3.188,3.2094,3.2833,3.2992,3.3104,3.3413,3.4172,3.4905,3.5311,3.6483,3.7565,3.7964,3.9411,4.0509,4.0548,4.2637,4.4197,4.4197,4.5272,4.6002,4.6002,4.6002,4.6002,4.6002,4.6002,4.6002,4.6002,4.6002,4.6002,4.6002,4.6002,4.6002,4.6002,4.6483,4.6445,4.6002,4.6467,4.7007,4.7488,4.6985,4.7531,1.2989,1.3622,0.0,1.4761,0.0,0.0,0.0,0.0,0.0,0.0,0.0,0.0,0.0,0.0,0.0,0.0,0.0,0.0,0.0,0.0,0.0,0.0,0.0,0.0,0.0,0.0,0.0,0.0,0.0,0.0,0.0,0.0,0.0,0.0,0.0,0.0,2.72,2.72,2.72,2.72,2.72,2.7391,2.7707,2.7947,2.817,2.8408,2.8773,2.8968,2.8984,2.9202,2.9298,2.9298,2.9298,2.9298,2.9345,2.9806,3.0124,3.0378,3.0855,3.1188,3.1395,3.1395,3.1395,3.1395,3.1395,3.1395,3.1395,3.1395,3.1395,3.1474,3.1824,3.2094,3.238,3.2881,3.3183,3.339,3.346,3.4417,3.5271,3.5392,3.6707,3.8105,3.9117,3.9943,4.1074,4.2828,4.3743,4.4499,4.5346,4.5779,4.6002,4.6002,4.6002,4.6002,4.6002,4.6002,4.6002,4.6002,4.6002,4.6002,4.6002,4.633,4.6352,4.6002,4.6483,4.662,4.6489,4.7007,4.7335,4.7509,4.8283,4.8569,1.3379,1.411,0.0,1.5613,1.7025,0.0,0.0,0.0,0.0,0.0,0.0,0.0,0.0,0.0,0.0,0.0,0.0,0.0,0.0,0.0,0.0,0.0,0.0,0.0,0.0,0.0,0.0,0.0,0.0,0.0,0.0,0.0,0.0,0.0,0.0,0.0,2.72,2.72,2.72,2.72,2.72,2.7312,2.7518,2.7627,2.7802,2.8024,2.8586,2.8809,2.8825,2.9155,2.9298,2.9298,2.9298,2.9298,2.9345,2.9695,2.9992,3.0378,3.0765,3.1131,3.1395,3.1395,3.1395,3.1395,3.1395,3.1395,3.1395,3.1395,3.1395,3.1474,3.1824,3.2158,3.2507,3.2913,3.3263,3.3492,3.3492,3.4661,3.5619,3.5433,3.7348,3.9175,3.9728,4.1016,4.2483,4.397,4.4612,4.5197,4.5928,4.6002,4.6002,4.6002,4.6002,4.6002,4.6002,4.6002,4.6002,4.6002,4.6348,4.657,4.657,4.647,4.6395,4.6286,4.6789,4.7029,4.7029,4.7531,4.7772,4.781,4.8613,4.8793,1.4098,0.0,0.0,1.654,1.7476,0.0,0.0,0.0,0.0,0.0,0.0,0.0,0.0,0.0,0.0,0.0,0.0,0.0,0.0,0.0,0.0,0.0,0.0,0.0,0.0,0.0,0.0,0.0,0.0,0.0,0.0,0.0,0.0,0.0,0.0,0.0,2.72,2.72,2.72,0.0,2.72,2.72,2.7216,2.75,2.7659,2.7738,2.8424,2.8777,2.8825,2.9155,2.9298,2.9298,2.9298,2.9298,2.9329,2.9663,2.9981,3.0315,3.0718,3.1083,3.1347,3.1379,3.1395,3.1395,3.1395,3.1395,3.1395,3.1395,3.1395,3.1458,3.1792,3.2142,3.2491,3.2865,3.3247,3.3492,3.3492,3.4848,3.5901,3.5474,3.8127,4.0334,4.0041,4.2309,4.4235,4.4348,4.5309,4.6002,4.6002,4.6002,4.6002,4.6002,4.6002,4.6002,4.6002,4.6046,4.6068,4.6068,4.6924,4.7399,4.7399,4.668,4.6449,4.6826,4.7329,4.7592,4.7553,4.8007,4.8226,4.8269,4.8269,4.8471,1.3717,1.473,0.0,0.0,1.8975,2.0836,0.0,0.0,0.0,0.0,0.0,0.0,0.0,0.0,0.0,0.0,0.0,0.0,0.0,0.0,0.0,0.0,0.0,0.0,0.0,0.0,0.0,0.0,0.0,0.0,0.0,0.0,0.0,0.0,0.0,2.6914,2.72,2.72,2.72,0.0,2.72,2.72,2.72,2.728,2.7437,2.7723,2.817,2.8503,2.8825,2.9155,2.9298,2.9298,2.9298,2.9298,2.9314,2.9377,2.9631,2.9981,3.0315,3.0664,3.1052,3.13,3.1395,3.1395,3.1395,3.1395,3.1395,3.1395,3.1395,3.1411,3.149,3.1951,3.2428,3.2507,3.3015,3.3492,3.3492,3.458,3.5514,3.5433,3.7888,4.0237,4.1132,4.2884,4.4499,4.5459,4.5853,4.6002,4.6002,4.6002,4.6002,4.6002,4.6002,4.6002,4.6002,4.6352,4.6533,4.6533,4.7127,4.7488,4.7488,4.8227,4.838,4.7787,4.8273,4.8383,4.8073,4.816,4.8361,4.8733,4.8733,4.8798,1.4206,0.0,0.0,1.8061,0.0,2.1735,0.0,0.0,0.0,0.0,0.0,0.0,0.0,0.0,0.0,0.0,0.0,0.0,0.0,0.0,0.0,0.0,0.0,0.0,0.0,0.0,0.0,0.0,0.0,0.0,0.0,0.0,0.0,0.0,2.6454,2.655,2.6725,2.6867,2.6946,2.6946,2.7121,2.72,2.72,2.72,2.7312,2.7469,2.7802,2.8186,2.8535,2.89,2.9139,2.9298,2.9298,2.9298,2.9298,2.9298,2.952,2.9833,3.0166,3.0553,3.0956,3.1268,3.1395,3.1395,3.1395,3.1395,3.1395,3.1395,3.1395,3.1395,3.1395,3.1776,3.2221,3.238,3.2968,3.3599,3.4009,3.4987,3.6022,3.705,3.9237,4.1404,4.2655,4.4084,4.5272,4.5928,4.6002,4.6002,4.6002,4.6002,4.609,4.633,4.6352,4.6439,4.6701,4.6942,4.7094,4.7094,4.7745,4.8124,4.8124,4.9207,4.9268,4.8179,4.8405,4.853,4.8514,4.8514,4.8645,4.8907,4.8907,4.8907,1.4641,0.0,1.7346,1.8983,2.0696,0.0,0.0,0.0,0.0,0.0,0.0,0.0,0.0,0.0,0.0,0.0,0.0,0.0,0.0,0.0,0.0,0.0,0.0,0.0,0.0,0.0,0.0,0.0,0.0,0.0,0.0,0.0,2.6025,2.6088,2.6088,2.612,2.6216,2.647,2.6645,2.6709,2.7042,2.72,2.72,2.72,2.72,2.7216,2.7548,2.7881,2.8214,2.8614,2.9015,2.9298,2.9298,2.9298,2.9298,2.9298,2.9488,2.9738,3.0124,3.0473,3.0861,3.1188,3.1347,3.1395,3.1395,3.1395,3.1395,3.1395,3.1395,3.1395,3.1395,3.1697,3.2078,3.2348,3.3089,3.3886,3.4539,3.5699,3.7112,3.8764,4.0996,4.3019,4.4273,4.5346,4.6002,4.6002,4.6002,4.6002,4.6002,4.6142,4.6361,4.6679,4.6848,4.7105,4.7444,4.7553,4.7597,4.7597,4.8344,4.8802,4.8802,4.9552,4.9457,4.8335,4.8374,4.8571,4.8907,4.8907,4.8907,4.8907,4.8907,4.8907,0.0,0.0,1.7946,0.0,2.0696,2.2011,0.0,0.0,0.0,0.0,0.0,0.0,0.0,0.0,0.0,0.0,0.0,0.0,0.0,0.0,0.0,0.0,0.0,0.0,0.0,0.0,0.0,0.0,0.0,0.0,0.0,2.5214,2.5389,2.566,2.5675,2.585,2.62,2.6232,2.6407,2.6709,2.7042,2.72,2.72,2.72,2.72,2.7216,2.7548,2.7881,2.8214,2.8614,2.9015,2.9298,2.9298,2.9298,2.9298,2.9298,2.9329,2.9409,2.9738,3.0071,3.0442,3.0845,3.1179,3.1395,3.1395,3.1395,3.1395,3.1395,3.1395,3.1395,3.1395,3.1872,3.2348,3.2396,3.3516,3.4539,3.4254,3.6592,3.8764,3.8685,4.1519,4.431,4.5533,4.5891,4.6002,4.6002,4.6002,4.6002,4.6002,4.6733,4.7094,4.6723,4.7437,4.7821,4.7526,4.7859,4.8116,4.8116,4.8615,4.8877,4.8877,4.9022,4.8982,4.8798,4.9153,4.9197,4.8907,4.8907,4.8907,4.8907,4.8907,4.8907,1.4614,1.6351,1.8103,0.0,2.0553,2.1481,0.0,0.0,0.0,0.0,0.0,0.0,0.0,0.0,0.0,0.0,0.0,0.0,0.0,0.0,0.0,0.0,0.0,0.0,0.0,0.0,0.0,0.0,0.0,0.0,2.5103,2.5103,2.5183,2.531,2.531,2.5405,2.5595,2.5755,2.6168,2.6709,2.6868,2.701,2.72,2.72,2.72,2.7216,2.7359,2.7596,2.7945,2.8313,2.8678,2.9047,2.9218,2.9298,2.9298,2.9298,2.9298,2.9345,2.9659,3.0008,3.0378,3.0781,3.1131,3.1395,3.1395,3.1395,3.1395,3.1395,3.1395,3.1395,3.1395,3.176,3.2292,3.2958,3.4574,3.6051,3.6499,3.7791,3.9374,4.1074,4.3456,4.5384,4.5928,4.6002,4.6002,4.6002,4.6002,4.6002,4.6002,4.6814,4.7368,4.7154,4.7959,4.8433,4.8291,4.8471,4.858,4.858,4.8776,4.8907,4.8907,4.8907,4.8907,4.8907,4.9065,4.9105,4.8907,4.8907,4.8907,4.8907,4.8907,4.8907,0.0,0.0,1.7578,1.8898,2.0003,2.0941,0.0,0.0,0.0,0.0,0.0,0.0,0.0,0.0,0.0,0.0,0.0,0.0,0.0,0.0,0.0,0.0,0.0,0.0,0.0,0.0,0.0,0.0,0.0,0.0,2.5103,2.5103,2.5103,2.5103,2.5103,2.5103,2.5103,2.5437,2.5866,2.6406,2.6613,2.6836,2.7073,2.7169,2.72,2.72,2.72,2.7407,2.7723,2.8056,2.844,2.884,2.9155,2.9298,2.9298,2.9298,2.9298,2.9329,2.96,2.9881,3.0251,3.0601,3.1004,3.1268,3.1363,3.1395,3.1395,3.1395,3.1395,3.1395,3.1395,3.1713,3.2385,3.3729,3.5494,3.7492,3.9418,3.9865,4.0724,4.3629,4.5159,4.6002,4.6002,4.6002,4.6002,4.6002,4.6002,4.6046,4.6177,4.7012,4.761,4.7657,4.8465,4.8984,4.8903,4.8907,4.8907,4.8907,4.8907,4.8907,4.8907,4.8907,4.8907,4.8907,4.8907,4.8907,4.8907,4.8907,4.8907,4.8907,4.8907,4.8907,0.0,1.4598,0.0,1.7164,1.8923,0.0,0.0,0.0,0.0,0.0,0.0,0.0,0.0,0.0,0.0,0.0,0.0,0.0,0.0,0.0,0.0,0.0,0.0,0.0,0.0,0.0,0.0,0.0,0.0,0.0,2.5103,2.5103,2.5103,2.5103,2.5103,2.5103,2.5103,2.5437,2.5628,2.5675,2.6358,2.6709,2.6741,2.7057,2.72,2.72,2.72,2.7407,2.7723,2.8056,2.844,2.884,2.9155,2.9298,2.9298,2.9298,2.9298,2.9298,2.9314,2.9552,2.9865,3.0235,3.0601,3.0988,3.1284,3.1395,3.1395,3.1395,3.1395,3.1395,3.1395,3.1887,3.2816,3.4508,3.6119,3.8411,4.2463,4.3286,4.378,4.5533,4.5928,4.6002,4.6002,4.6002,4.6002,4.6002,4.6002,4.6177,4.6598,4.7497,4.8096,4.8155,4.8933,4.932,4.8947,4.8907,4.8907,4.8907,4.8907,4.8907,4.8907,4.8907,4.8907,4.8907,4.8907,4.8907,4.8907,4.8907,4.8907,4.8907,4.8907,4.8907,0.0,0.0,0.0,1.6333,1.7826,0.0,0.0,0.0,0.0,0.0,0.0,0.0,0.0,0.0,0.0,0.0,0.0,0.0,0.0,0.0,0.0,0.0,0.0,0.0,0.0,0.0,0.0,0.0,0.0,0.0,2.5103,2.5103,2.5103,2.5103,2.5103,2.5103,2.5103,2.5199,2.539,2.5612,2.6136,2.6486,2.6725,2.7042,2.72,2.72,2.72,2.728,2.7423,2.7723,2.8072,2.8456,2.8821,2.9091,2.9298,2.9298,2.9298,2.9298,2.9298,2.9536,2.9849,3.0166,3.0569,3.0972,3.1284,3.1395,3.1395,3.1395,3.1395,3.1395,3.1395,3.2745,3.4901,3.8133,4.0143,4.1925,4.3915,4.4558,4.4896,4.5518,4.5816,4.6002,4.6002,4.6002,4.5893,4.5609,4.6313,4.6739,4.6324,4.7797,4.8763,4.826,4.8955,4.9342,4.8947,4.8907,4.8907,4.8907,4.8907,4.8907,4.8907,4.8907,4.8907,4.8907,4.8907,4.8907,4.8907,4.8907,4.8907,4.8907,4.8907,4.8907,1.2201,0.0,0.0,0.0,0.0,0.0,0.0,0.0,0.0,0.0,0.0,0.0,0.0,0.0,0.0,0.0,0.0,0.0,0.0,0.0,0.0,0.0,0.0,0.0,0.0,0.0,0.0,0.0,0.0,0.0,2.5103,2.5103,2.5103,2.5103,2.5103,2.5103,2.5103,2.5103,2.5199,2.5437,2.5818,2.6184,2.6534,2.6867,2.7089,2.72,2.72,2.72,2.7232,2.7548,2.7897,2.823,2.863,2.898,2.9298,2.9298,2.9298,2.9298,2.9298,2.9536,2.9849,3.0166,3.0569,3.0972,3.1284,3.1395,3.1395,3.1395,3.1801,3.2239,3.2353,3.4736,3.78,4.0647,4.279,4.4331,4.488,4.533,4.5592,4.5592,4.5816,4.6002,4.6002,4.6002,4.5959,4.5769,4.6576,4.7047,4.6761,4.8074,4.8852,4.8483,4.8947,4.9184,4.8947,4.8907,4.8907,4.8907,4.8907,4.8907,4.8907,4.8907,4.8907,4.8907,4.8907,4.8907,4.8907,4.8907,4.8907,4.8907,4.8907,4.8907,0.0,0.0,0.0,0.0,0.0,0.0,0.0,0.0,0.0,0.0,0.0,0.0,0.0,0.0,0.0,0.0,0.0,0.0,0.0,0.0,0.0,0.0,0.0,0.0,0.0,0.0,0.0,0.0,0.0,2.5103,2.5103,2.5103,2.5103,2.5103,2.5103,2.5103,2.5103,2.5103,2.5103,2.5119,2.5437,2.5818,2.6216,2.655,2.6867,2.72,2.72,2.72,2.7232,2.7532,2.7881,2.823,2.8614,2.898,2.9298,2.9298,2.9298,2.9298,2.9298,2.9536,2.9849,3.0166,3.0569,3.0972,3.1284,3.1433,3.1472,3.1472,3.2609,3.3967,3.4422,3.7835,4.1272,4.1633,4.3591,4.5405,4.5368,4.5704,4.6002,4.6002,4.6002,4.6002,4.6002,4.6024,4.6177,4.6598,4.6685,4.7073,4.8073,4.8182,4.8379,4.8842,4.8907,4.8907,4.8907,4.8907,4.8907,4.8907,4.8907,4.8907,4.8907,4.8907,4.8907,4.8907,4.8907,4.8907,4.8907,4.8907,4.8907,4.8907,4.8907,4.8907,1.1434,0.0,0.0,0.0,0.0,0.0,0.0,0.0,0.0,0.0,0.0,0.0,0.0,0.0,0.0,0.0,0.0,0.0,0.0,0.0,0.0,0.0,0.0,0.0,0.0,0.0,0.0,0.0,2.496,2.5103,2.5103,2.5103,2.5103,2.5103,2.5103,2.5103,2.5103,2.5103,2.5103,2.5119,2.5437,2.5818,2.6216,2.655,2.6867,2.72,2.72,2.72,2.7216,2.7312,2.7693,2.8199,2.8329,2.8757,2.9298,2.9298,2.9298,2.9298,2.9298,2.9536,2.9849,3.0166,3.0569,3.0972,3.1284,3.2206,3.3142,3.3142,3.4241,3.5713,3.6723,3.909,4.1348,4.1999,4.3801,4.533,4.5031,4.5518,4.6002,4.6002,4.6002,4.6002,4.6002,4.6286,4.6461,4.6243,4.6768,4.7327,4.7635,4.797,4.8317,4.8838,4.8907,4.8907,4.8907,4.8907,4.8907,4.8907,4.8907,4.8907,4.8907,4.8907,4.8907,4.8907,4.8907,4.8907,4.8907,4.8907,4.8907,4.8907,4.8907,4.8907,0.0,0.0,0.0,0.0,0.0,0.0,0.0,1.617,0.0,0.0,0.0,0.0,0.0,0.0,0.0,0.0,0.0,0.0,0.0,0.0,0.0,0.0,0.0,0.0,0.0,0.0,0.0,0.0,2.469,2.496,2.5103,2.5103,2.5103,2.5103,2.5103,2.5103,2.5103,2.5103,2.5103,2.5119,2.5295,2.5675,2.6216,2.6391,2.6757,2.72,2.72,2.72,2.72,2.72,2.7614,2.8183,2.8183,2.8662,2.9298,2.9298,2.9298,2.9298,2.9298,2.9615,3.0023,3.0251,3.0664,3.1261,3.2141,3.3066,3.394,3.4579,3.5785,3.709,3.7989,4.0082,4.2008,4.2461,4.4142,4.5592,4.5368,4.5667,4.5965,4.5779,4.5891,4.6002,4.6002,4.6567,4.6912,4.6673,4.7408,4.803,4.8089,4.8288,4.8547,4.8881,4.8907,4.8907,4.8907,4.8907,4.8907,4.8907,4.8907,4.8907,4.8907,4.8907,4.8907,4.8907,4.8907,4.8907,4.8907,4.8907,4.8907,4.8907,4.8907,4.8907,0.0,0.0,0.0,0.0,0.0,0.0,1.5853,1.6154,0.0,0.0,0.0,0.0,0.0,0.0,0.0,0.0,0.0,0.0,0.0,0.0,0.0,0.0,0.0,0.0,0.0,0.0,2.402,2.402,2.4354,2.4674,2.5024,2.5056,2.5071,2.5103,2.5103,2.5103,2.5103,2.5103,2.5103,2.5103,2.5103,2.5469,2.6216,2.6216,2.6566,2.72,2.72,2.72,2.72,2.72,2.7614,2.8183,2.8183,2.8662,2.9298,2.9298,2.9298,2.9298,2.9298,2.9743,3.0315,3.0315,3.0904,3.1955,3.3352,3.4053,3.4654,3.622,3.7521,3.8538,3.8804,4.0963,4.3096,4.2981,4.452,4.6002,4.5928,4.5965,4.5891,4.548,4.5742,4.6002,4.6002,4.6799,4.7478,4.7499,4.8185,4.8763,4.886,4.8798,4.8776,4.8886,4.8907,4.8907,4.8907,4.8907,4.8907,4.8907,4.8907,4.8907,4.8907,4.8907,4.8907,4.8907,4.8907,4.8907,4.8907,4.8907,4.8907,4.8907,4.8907,4.8907,1.3331,1.3584,1.3807,0.0,0.0,0.0,0.0,1.4377,0.0,0.0,0.0,0.0,0.0,0.0,0.0,0.0,0.0,0.0,0.0,0.0,0.0,0.0,0.0,0.0,0.0,0.0,2.3613,2.3613,2.3989,2.4339,2.4689,2.472,2.4817,2.5103,2.5103,2.5103,2.5103,2.5103,2.5103,2.5103,2.5103,2.5469,2.6216,2.6216,2.6566,2.72,2.72,2.72,2.72,2.72,2.7614,2.8183,2.8183,2.8662,2.9298,2.9298,2.9298,2.9298,2.9298,2.9743,3.0315,3.0315,3.1677,3.339,3.3693,3.557,3.7913,3.9514,4.0667,4.134,4.0686,4.2478,4.4256,4.3553,4.4725,4.5928,4.5592,4.5779,4.5891,4.548,4.5742,4.6002,4.6002,4.7063,4.7853,4.7542,4.7937,4.8405,4.8816,4.823,4.8056,4.882,4.8907,4.8907,4.8907,4.8907,4.8907,4.8907,4.8907,4.8907,4.8907,4.8907,4.8907,4.8907,4.8907,4.8907,4.8907,4.8907,4.8907,4.8907,4.8907,4.8907,1.3982,1.4091,1.4314,1.4172,0.0,0.0,0.0,0.0,0.0,0.0,0.0,0.0,0.0,0.0,0.0,0.0,0.0,0.0,0.0,0.0,0.0,0.0,0.0,0.0,0.0,0.0,2.3327,2.3501,2.3705,2.3943,2.4323,2.4514,2.4689,2.4833,2.5024,2.5103,2.5103,2.5103,2.5103,2.5103,2.5103,2.5469,2.6216,2.6216,2.6566,2.72,2.72,2.72,2.72,2.72,2.7614,2.8183,2.8183,2.8662,2.9298,2.9298,2.9298,2.9298,2.9298,3.0252,3.1519,3.1519,3.3078,3.5103,3.5923,3.7803,3.9622,3.9261,4.0358,4.1414,4.0387,4.1968,4.378,4.3553,4.4612,4.5704,4.5704,4.5853,4.5928,4.5742,4.5853,4.6002,4.6002,4.7339,4.8192,4.7603,4.846,4.908,4.8921,4.8492,4.8383,4.8842,4.8907,4.8907,4.8907,4.8907,4.8907,4.8907,4.8907,4.8907,4.8907,4.8907,4.8907,4.8907,4.8907,4.8907,4.8907,4.8907,4.8907,4.8907,4.8907,4.8907,0.0,0.0,0.0,0.0,0.0,1.4824,0.0,0.0,0.0,0.0,0.0,0.0,0.0,0.0,0.0,0.0,0.0,0.0,0.0,0.0,0.0,0.0,0.0,0.0,0.0,0.0,2.2883,2.3375,2.3203,2.3359,2.3957,2.4259,2.4436,2.4609,2.4865,2.504,2.5103,2.5103,2.5103,2.5103,2.5103,2.5469,2.6216,2.6216,2.6566,2.72,2.72,2.72,2.72,2.72,2.7614,2.8183,2.8183,2.8662,2.9334,2.9604,2.9712,2.9747,3.0053,3.1447,3.3112,3.3112,3.4682,3.6848,3.846,3.9874,4.0504,3.8608,3.9603,4.1022,4.0162,4.1514,4.3286,4.3743,4.4671,4.5518,4.5928,4.6002,4.6002,4.6002,4.6002,4.6002,4.6002,4.749,4.8421,4.7603,4.9035,4.9892,4.9026,4.8907,4.8907,4.8907,4.8907,4.8907,4.8907,4.8907,4.8907,4.8907,4.8907,4.8907,4.8907,4.8907,4.8907,4.8907,4.8907,4.8907,4.8907,4.8907,4.8907,4.8907,4.8907,4.8907,0.0,0.0,0.0,0.0,1.6512,0.0,0.0,0.0,0.0,0.0,0.0,0.0,0.0,0.0,0.0,0.0,0.0,0.0,0.0,0.0,0.0,0.0,0.0,0.0,0.0,0.0,0.0,2.2978,2.2184,2.2189,2.3501,2.3613,2.3914,2.4593,2.4657,2.4785,2.5103,2.5103,2.5103,2.5103,2.5103,2.5469,2.6216,2.6216,2.6566,2.72,2.72,2.72,2.72,2.72,2.7614,2.8183,2.8183,2.8662,2.9477,3.0783,3.1261,3.1437,3.2752,3.3816,3.4648,3.4648,3.6284,3.8552,4.0126,4.0775,4.0847,4.0576,4.1291,4.2212,4.2412,4.3248,4.4239,4.4993,4.5293,4.5518,4.5928,4.6002,4.6002,4.6002,4.6002,4.6002,4.6002,4.749,4.8421,4.7603,4.9035,4.9892,4.9026,4.8907,4.8907,4.8907,4.8907,4.8907,4.8907,4.8907,4.8907,4.8907,4.8907,4.8907,4.8907,4.8907,4.8907,4.8907,4.8907,4.8907,4.8907,4.8907,4.8907,4.8907,4.8907,4.8907,0.0,0.0,0.0,0.0,0.0,0.0,0.0,0.0,1.4885,0.0,0.0,0.0,0.0,0.0,0.0,0.0,0.0,0.0,0.0,0.0,0.0,0.0,0.0,0.0,0.0,0.0,0.0,0.0,0.0,2.1645,2.2835,2.3295,2.3739,2.4291,2.4498,2.4754,2.5103,2.5103,2.5103,2.5103,2.5103,2.5469,2.6216,2.6216,2.6566,2.72,2.72,2.72,2.72,2.72,2.7614,2.8286,2.9182,2.9974,3.0641,3.1261,3.2053,3.2892,3.3499,3.4834,3.6508,3.7936,3.905,3.9874,3.9874,4.0325,4.0755,4.0074,4.1197,4.269,4.2874,4.3695,4.4692,4.5256,4.5405,4.5518,4.5928,4.6002,4.6002,4.6002,4.6002,4.6002,4.6002,4.749,4.8421,4.7603,4.9035,4.9892,4.9026,4.8907,4.8907,4.8907,4.8907,4.8907,4.8907,4.8907,4.8907,4.8907,4.8907,4.8907,4.8907,4.8907,4.8907,4.8907,4.8907,4.8907,4.8907,4.8907,4.8907,4.8907,4.8907,4.8907,1.762,0.0,0.0,0.0,0.0,0.0,0.0,0.0,0.0,0.0,0.0,0.0,0.0,0.0,0.0,0.0,0.0,0.0,0.0,0.0,0.0,0.0,0.0,0.0,0.0,0.0,0.0,0.0,0.0,0.0,2.2418,2.2946,2.3499,2.4098,2.4339,2.4689,2.5103,2.5103,2.5103,2.5103,2.5168,2.5564,2.6216,2.6311,2.6661,2.72,2.72,2.72,2.72,2.72,2.7834,2.8941,3.0071,3.1408,3.2717,3.2717,3.3378,3.4399,3.4925,3.6417,3.8387,4.0294,4.0918,4.0719,3.9838,4.0218,4.0719,3.9838,4.1125,4.2727,4.2727,4.3679,4.473,4.5143,4.533,4.5518,4.5928,4.6002,4.6002,4.6002,4.6002,4.6046,4.6177,4.7578,4.8421,4.7603,4.9035,4.9892,4.9026,4.8907,4.8907,4.8907,4.8907,4.8907,4.8907,4.8907,4.8907,4.8907,4.8907,4.8907,4.8907,4.8907,4.8907,4.8907,4.8907,4.8907,4.8907,4.8907,4.8907,4.8907,4.8907,4.8907,0.0,0.0,0.0,0.0,0.0,0.0,0.0,0.0,1.6361,0.0,0.0,0.0,0.0,0.0,0.0,0.0,0.0,0.0,0.0,0.0,0.0,0.0,0.0,0.0,0.0,0.0,0.0,0.0,0.0,0.0,2.2355,2.2513,2.3018,2.4082,2.4129,2.4434,2.5103,2.5103,2.5103,2.5119,2.5422,2.5802,2.6216,2.6534,2.6851,2.72,2.72,2.72,2.72,2.72,2.8474,3.0446,3.048,3.2655,3.5734,3.5734,3.5787,3.6118,3.797,3.9296,4.0212,4.0737,4.0918,4.0882,4.0847,4.0882,4.0882,4.0847,4.1545,4.2322,4.2322,4.3268,4.4315,4.473,4.5106,4.5518,4.5928,4.6002,4.6002,4.6002,4.6002,4.6155,4.6576,4.78,4.8421,4.7603,4.9035,4.9892,4.9026,4.8907,4.8907,4.8907,4.8907,4.8907,4.8907,4.8907,4.8907,4.8907,4.8907,4.8907,4.8907,4.8907,4.8907,4.8907,4.8907,4.8907,4.8907,4.8907,4.8907,4.8907,4.8907,4.8907,0.0,0.0,2.0439,1.8566,0.0,0.0,0.0,0.0,0.0,0.0,0.0,0.0,0.0,0.0,0.0,0.0,0.0,0.0,0.0,0.0,0.0,0.0,0.0,0.0,0.0,0.0,0.0,0.0,1.9074,0.0,0.0,2.2116,2.2863,2.3689,2.3973,2.4418,2.5103,2.5103,2.5103,2.5119,2.5437,2.5818,2.6216,2.655,2.6867,2.72,2.72,2.72,2.7283,2.8494,2.9581,3.0735,3.2894,3.4623,3.5889,3.5889,3.6553,3.7583,3.8835,3.9668,4.0268,4.0737,4.0918,4.0918,4.0918,4.0918,4.0918,4.0918,4.1581,4.2285,4.2285,4.3434,4.4617,4.4767,4.5293,4.5816,4.5965,4.6002,4.6002,4.6002,4.6002,4.623,4.7034,4.7784,4.8205,4.8019,4.8962,4.9538,4.8986,4.8907,4.8907,4.8907,4.8907,4.8907,4.8907,4.8907,4.8907,4.8907,4.8907,4.8907,4.8907,4.8907,4.8907,4.8907,4.8907,4.8907,4.8907,4.8907,4.8907,4.8907,4.8907,4.8907,2.0798,2.1074,0.0,0.0,1.9018,0.0,0.0,0.0,0.0,0.0,0.0,0.0,0.0,0.0,0.0,0.0,0.0,0.0,0.0,0.0,0.0,0.0,0.0,0.0,0.0,0.0,1.6984,1.8503,1.8265,0.0,0.0,0.0,2.2533,2.3486,2.388,2.4418,2.5103,2.5103,2.5103,2.5119,2.5596,2.5961,2.6232,2.6677,2.6994,2.72,2.72,2.75,2.8047,2.9377,3.0739,3.2201,3.4504,3.5955,3.6722,3.6722,3.755,3.875,3.9296,3.9916,4.051,4.0779,4.0918,4.0918,4.0918,4.0918,4.0939,4.1104,4.1814,4.2548,4.2715,4.3747,4.4805,4.4805,4.5293,4.5779,4.5779,4.5891,4.6002,4.6002,4.6002,4.637,4.7465,4.7803,4.8003,4.8371,4.9011,4.9342,4.8947,4.8907,4.8907,4.8907,4.8907,4.8907,4.8907,4.8907,4.8907,4.8907,4.8907,4.8907,4.8907,4.8907,4.8907,4.8907,4.8907,4.8907,4.8907,4.8907,4.8907,4.8907,4.8907,4.8907]},{"header":{"parameterUnit":"m.s-1","parameterCategory":1,"la1":30.6,"la2":29.2853,"lo1":-89.7004,"lo2":-87.6739,"dy":0.0162,"dx":0.0183,"nx":112,"ny":82,"refTime":"2026-03-07T12:00:00:Z","depth":0,"parameterNumber":3,"parameterNumberName":"V-component_of_WINDS"},"data":[0.0,0.0,0.0,0.0,0.0,0.0,0.0,0.0,0.0,0.0,0.0,0.0,0.0,0.0,0.0,0.0,0.0,0.0,0.0,0.0,0.0,0.0,0.0,0.0,0.0,0.0,0.0,0.0,0.0,0.0,0.0,0.0,0.0,0.0,0.0,0.0,0.0,0.0,0.0,0.0,0.0,0.0,0.0,0.0,0.0,0.0,0.0,0.0,0.0,0.0,0.0,0.0,0.0,0.0,0.0,0.0,0.0,0.0,0.0,0.0,0.0,0.0,0.0,0.0,0.0,0.0,0.0,0.0,0.0,0.0,0.0,0.0,0.0,0.0,0.0,0.0,0.0,0.0,0.0,0.0,0.0,0.0,0.0,0.0,0.0,0.0,0.0,0.0,0.0,0.0,0.0,2.4749,2.7758,2.9336,2.879,2.8735,2.7351,2.401,0.0,0.0,0.0,0.0,0.0,0.0,0.0,0.0,0.0,0.0,0.0,0.0,0.0,0.0,0.0,0.0,0.0,0.0,0.0,0.0,0.0,0.0,0.0,0.0,0.0,0.0,0.0,0.0,0.0,0.0,0.0,0.0,0.0,0.0,0.0,0.0,0.0,0.0,0.0,0.0,0.0,0.0,0.0,0.0,0.0,0.0,0.0,0.0,0.0,0.0,0.0,0.0,0.0,0.0,0.0,0.0,0.0,0.0,0.0,0.0,0.0,0.0,0.0,0.0,0.0,0.0,0.0,0.0,0.0,0.0,0.0,0.0,0.0,0.0,0.0,0.0,0.0,0.0,0.0,0.0,0.0,0.0,0.0,0.0,0.0,0.0,0.0,0.0,0.0,0.0,0.0,0.0,0.0,0.0,0.0,0.0,0.0,0.0,0.0,0.0,0.0,0.0,0.0,0.0,2.2476,2.7415,2.9447,3.0248,2.9809,2.9332,2.7762,2.4806,0.0,0.0,0.0,0.0,0.0,0.0,0.0,0.0,0.0,0.0,0.0,0.0,0.0,0.0,0.0,0.0,0.0,0.0,0.0,0.0,0.0,0.0,0.0,0.0,0.0,0.0,0.0,0.0,0.0,0.0,0.0,0.0,0.0,0.0,0.0,0.0,0.0,0.0,0.0,0.0,0.0,0.0,0.0,0.0,0.0,0.0,0.0,0.0,0.0,0.0,0.0,0.0,0.0,0.0,0.0,0.0,0.0,0.0,0.0,0.0,0.0,0.0,0.0,0.0,0.0,0.0,0.0,0.0,0.0,0.0,0.0,0.0,0.0,0.0,0.0,0.0,0.0,0.0,0.0,0.0,0.0,0.0,0.0,0.0,0.0,0.0,0.0,0.0,0.0,0.0,0.0,0.0,0.0,0.0,0.0,0.0,0.0,0.0,0.0,0.0,0.0,0.0,0.0,2.1978,2.4596,2.8697,3.0403,3.1046,3.0578,3.0049,2.8392,2.5155,2.3097,0.0,0.0,0.0,0.0,0.0,0.0,0.0,0.0,0.0,0.0,0.0,0.0,0.0,0.0,0.0,0.0,0.0,0.0,0.0,0.0,0.0,0.0,0.0,0.0,0.0,0.0,0.0,0.0,0.0,0.0,0.0,0.0,0.0,0.0,0.0,0.0,0.0,0.0,0.0,0.0,0.0,0.0,0.0,0.0,0.0,0.0,0.0,0.0,0.0,0.0,0.0,0.0,0.0,0.0,0.0,0.0,0.0,0.0,0.0,0.0,0.0,0.0,0.0,0.0,0.0,0.0,0.0,0.0,0.0,0.0,0.0,0.0,0.0,0.0,0.0,0.0,0.0,0.0,0.0,0.0,0.0,0.0,0.0,0.0,0.0,0.0,0.0,0.0,0.0,0.0,0.0,0.0,0.0,0.0,0.0,0.0,0.0,0.0,0.0,0.0,0.0,0.0,2.4821,2.7045,2.9602,3.122,3.1894,3.1401,3.06,2.876,2.5568,2.3177,0.0,0.0,0.0,0.0,0.0,0.0,0.0,0.0,0.0,0.0,0.0,0.0,0.0,0.0,0.0,0.0,0.0,0.0,0.0,0.0,0.0,0.0,0.0,0.0,0.0,0.0,0.0,0.0,0.0,0.0,0.0,0.0,0.0,0.0,0.0,0.0,0.0,0.0,0.0,0.0,0.0,0.0,0.0,0.0,0.0,0.0,0.0,0.0,0.0,0.0,0.0,0.0,0.0,0.0,0.0,0.0,0.0,0.0,0.0,0.0,0.0,0.0,0.0,0.0,0.0,0.0,0.0,0.0,0.0,0.0,0.0,0.0,0.0,0.0,0.0,0.0,0.0,0.0,0.0,0.0,0.0,0.0,0.0,0.0,0.0,0.0,0.0,0.0,0.0,0.0,0.0,0.0,0.0,0.0,0.0,0.0,0.0,0.0,0.0,0.0,0.0,0.0,2.5841,2.8914,3.0548,3.2094,3.2856,3.2425,3.0656,2.8616,2.6356,2.305,0.0,0.0,0.0,0.0,0.0,0.0,0.0,0.0,0.0,0.0,0.0,0.0,0.0,0.0,0.0,0.0,0.0,0.0,0.0,0.0,0.0,0.0,0.0,0.0,0.0,0.0,0.0,0.0,0.0,0.0,0.0,0.0,0.0,0.0,0.0,0.0,0.0,0.0,0.0,0.0,0.0,0.0,0.0,0.0,0.0,0.0,0.0,0.0,0.0,0.0,0.0,0.0,0.0,0.0,0.0,0.0,0.0,0.0,0.0,0.0,0.0,0.0,0.0,0.0,0.0,0.0,0.0,0.0,0.0,0.0,0.0,0.0,0.0,0.0,0.0,0.0,0.0,0.0,0.0,0.0,0.0,0.0,0.0,0.0,0.0,0.0,0.0,0.0,0.0,0.0,0.0,0.0,0.0,0.0,0.0,0.0,0.0,0.0,0.0,0.0,0.0,0.0,2.6221,2.8982,0.0,3.2662,3.3155,3.2602,3.1626,2.9758,2.6737,0.0,0.0,0.0,0.0,0.0,0.0,0.0,0.0,0.0,0.0,0.0,0.0,0.0,0.0,0.0,0.0,0.0,0.0,0.0,0.0,0.0,0.0,0.0,0.0,0.0,0.0,0.0,0.0,0.0,0.0,0.0,0.0,0.0,0.0,0.0,0.0,0.0,0.0,0.0,0.0,0.0,0.0,0.0,0.0,0.0,0.0,0.0,0.0,0.0,0.0,0.0,0.0,0.0,0.0,0.0,0.0,0.0,0.0,0.0,0.0,0.0,0.0,0.0,0.0,0.0,0.0,0.0,0.0,0.0,0.0,0.0,0.0,0.0,0.0,0.0,0.0,0.0,0.0,0.0,0.0,0.0,0.0,0.0,0.0,0.0,0.0,0.0,0.0,0.0,0.0,0.0,0.0,0.0,0.0,0.0,0.0,0.0,0.0,0.0,0.0,0.0,0.0,2.413,2.6884,2.9403,0.0,3.2653,3.3048,3.2682,3.1628,2.9858,2.7203,0.0,0.0,0.0,0.0,0.0,0.0,0.0,0.0,0.0,0.0,0.0,0.0,0.0,0.0,0.0,0.0,0.0,0.0,0.0,0.0,0.0,0.0,0.0,0.0,0.0,0.0,0.0,0.0,0.0,0.0,0.0,0.0,0.0,0.0,0.0,0.0,0.0,0.0,0.0,0.0,0.0,0.0,0.0,0.0,0.0,0.0,0.0,0.0,0.0,0.0,0.0,0.0,0.0,0.0,0.0,0.0,0.0,0.0,0.0,0.0,0.0,0.0,0.0,0.0,0.0,0.0,0.0,0.0,0.0,0.0,0.0,0.0,0.0,0.0,0.0,0.0,0.0,0.0,0.0,0.0,0.0,0.0,0.0,0.0,0.0,0.0,0.0,0.0,0.0,0.0,0.0,0.0,0.0,0.0,0.0,0.0,0.0,0.0,0.0,0.0,0.0,0.0,2.4264,2.7832,3.0445,3.1116,3.2049,3.2631,3.2767,3.0363,2.8509,0.0,0.0,0.0,0.0,0.0,0.0,0.0,0.0,0.0,0.0,0.0,0.0,0.0,0.0,0.0,0.0,0.0,0.0,0.0,0.0,0.0,0.0,0.0,0.0,0.0,0.0,0.0,0.0,0.0,0.0,0.0,0.0,0.0,0.0,0.0,0.0,0.0,0.0,0.0,0.0,0.0,0.0,0.0,0.0,0.0,0.0,0.0,0.0,0.0,0.0,0.0,0.0,0.0,0.0,0.0,0.0,0.0,0.0,0.0,0.0,0.0,0.0,0.0,0.0,0.0,0.0,0.0,0.0,0.0,0.0,0.0,0.0,0.0,0.0,0.0,0.0,0.0,0.0,0.0,0.0,0.0,0.0,0.0,0.0,0.0,0.0,0.0,0.0,0.0,0.0,0.0,0.0,0.0,0.0,0.0,0.0,0.0,0.0,0.0,0.0,0.0,0.0,0.0,0.0,2.8336,3.0597,3.1263,3.177,3.2056,3.2104,3.0965,2.9329,2.7138,0.0,0.0,0.0,0.0,0.0,0.0,0.0,0.0,0.0,0.0,0.0,0.0,0.0,0.0,0.0,0.0,0.0,0.0,0.0,0.0,0.0,0.0,0.0,0.0,0.0,0.0,0.0,0.0,0.0,0.0,0.0,0.0,0.0,0.0,0.0,0.0,0.0,0.0,0.0,0.0,0.0,0.0,0.0,0.0,0.0,0.0,0.0,0.0,0.0,0.0,0.0,0.0,0.0,0.0,0.0,0.0,0.0,0.0,0.0,0.0,0.0,0.0,0.0,0.0,0.0,0.0,0.0,0.0,0.0,0.0,0.0,0.0,0.0,0.0,0.0,0.0,0.0,0.0,0.0,0.0,0.0,0.0,0.0,0.0,0.0,0.0,0.0,0.0,0.0,0.0,0.0,0.0,0.0,0.0,0.0,0.0,0.0,0.0,0.0,0.0,0.0,0.0,2.5674,2.8819,3.1015,3.1441,3.1979,3.22,3.1898,3.1279,2.9707,2.6889,0.0,0.0,0.0,0.0,0.0,0.0,0.0,0.0,0.0,0.0,0.0,0.0,0.0,0.0,0.0,0.0,0.0,0.0,0.0,0.0,0.0,0.0,0.0,0.0,0.0,0.0,0.0,0.0,0.0,0.0,0.0,0.0,0.0,0.0,0.0,0.0,0.0,0.0,0.0,0.0,0.0,0.0,0.0,0.0,0.0,0.0,0.0,0.0,0.0,0.0,0.0,0.0,0.0,0.0,0.0,0.0,0.0,0.0,0.0,0.0,0.0,0.0,0.0,0.0,0.0,0.0,0.0,0.0,0.0,0.0,0.0,0.0,0.0,0.0,0.0,0.0,0.0,0.0,0.0,0.0,0.0,0.0,0.0,0.0,0.0,0.0,0.0,0.0,0.0,0.0,0.0,0.0,0.0,0.0,0.0,0.0,0.0,0.0,0.0,0.0,0.0,0.0,2.585,2.9337,3.1618,3.1618,3.2446,3.272,3.2049,3.1401,2.9804,2.6976,0.0,0.0,0.0,0.0,0.0,0.0,0.0,0.0,0.0,0.0,0.0,0.0,0.0,0.0,0.0,0.0,0.0,0.0,0.0,0.0,0.0,0.0,0.0,0.0,0.0,0.0,0.0,0.0,0.0,0.0,0.0,0.0,0.0,0.0,0.0,0.0,0.0,0.0,0.0,0.0,0.0,0.0,0.0,0.0,0.0,0.0,0.0,0.0,0.0,0.0,0.0,0.0,0.0,0.0,0.0,0.0,0.0,0.0,0.0,0.0,2.2742,0.0,0.0,0.0,0.0,0.0,0.0,0.0,0.0,0.0,0.0,0.0,0.0,0.0,0.0,0.0,0.0,0.0,0.0,0.0,0.0,0.0,0.0,0.0,0.0,0.0,0.0,0.0,0.0,0.0,0.0,0.0,0.0,0.0,0.0,0.0,0.0,0.0,0.0,0.0,0.0,0.0,2.6837,2.9849,3.1762,3.1762,3.2042,3.219,3.2016,3.1854,3.0527,2.7688,0.0,0.0,0.0,0.0,0.0,0.0,0.0,0.0,0.0,0.0,0.0,0.0,0.0,0.0,0.0,0.0,0.0,0.0,0.0,0.0,0.0,0.0,0.0,0.0,0.0,0.0,0.0,0.0,0.0,0.0,0.0,0.0,0.0,0.0,0.0,0.0,0.0,0.0,0.0,0.0,0.0,0.0,0.0,0.0,0.0,0.0,0.0,0.0,0.0,0.0,0.0,0.0,0.0,0.0,0.0,0.0,0.0,0.0,0.0,0.0,0.0,2.4623,0.0,0.0,0.0,0.0,0.0,0.0,0.0,0.0,0.0,0.0,0.0,0.0,0.0,0.0,0.0,0.0,0.0,0.0,0.0,0.0,0.0,0.0,0.0,0.0,0.0,0.0,0.0,0.0,0.0,0.0,0.0,0.0,0.0,0.0,0.0,0.0,0.0,0.0,0.0,0.0,2.7217,3.0291,3.2345,3.2345,3.2733,3.287,3.2546,3.2514,3.1457,2.893,2.7397,0.0,0.0,0.0,0.0,0.0,0.0,0.0,0.0,0.0,0.0,0.0,0.0,0.0,0.0,0.0,0.0,0.0,0.0,0.0,0.0,0.0,0.0,0.0,0.0,0.0,0.0,0.0,0.0,0.0,0.0,0.0,0.0,0.0,0.0,0.0,0.0,0.0,0.0,0.0,0.0,0.0,0.0,0.0,0.0,0.0,0.0,0.0,0.0,0.0,0.0,0.0,0.0,0.0,0.0,0.0,3.359,3.3785,3.4187,3.4558,3.0593,2.9111,2.9357,0.0,0.0,0.0,0.0,0.0,0.0,0.0,0.0,0.0,0.0,0.0,0.0,0.0,0.0,0.0,0.0,0.0,0.0,0.0,0.0,0.0,0.0,0.0,0.0,0.0,3.0195,2.9169,0.0,0.0,0.0,0.0,0.0,0.0,0.0,0.0,0.0,0.0,0.0,0.0,2.79,3.1153,3.326,3.3131,3.3714,3.3874,3.3336,3.3271,3.2396,3.0399,2.8984,2.7106,0.0,0.0,0.0,0.0,0.0,0.0,0.0,0.0,0.0,0.0,0.0,0.0,0.0,0.0,0.0,0.0,0.0,0.0,0.0,0.0,0.0,0.0,0.0,0.0,0.0,0.0,0.0,0.0,0.0,0.0,0.0,0.0,2.0435,2.2061,0.0,0.0,0.0,0.0,0.0,0.0,0.0,0.0,0.0,0.0,0.0,0.0,0.0,0.0,2.9833,3.3366,3.4875,3.4471,3.6627,3.777,3.7977,3.7999,3.8404,3.9028,3.8307,0.0,3.2003,3.1002,0.0,0.0,0.0,0.0,0.0,0.0,0.0,0.0,0.0,0.0,0.0,0.0,0.0,0.0,0.0,0.0,0.0,0.0,0.0,0.0,0.0,0.0,3.3918,3.3311,3.3395,3.3394,0.0,2.8694,2.5125,2.4108,0.0,0.0,0.0,0.0,0.0,0.0,0.0,0.0,3.0256,3.304,3.4638,3.4011,3.4023,3.4068,3.3971,3.3971,3.3323,3.1834,3.0948,2.975,2.8152,2.5584,0.0,0.0,0.0,0.0,0.0,0.0,0.0,0.0,0.0,0.0,0.0,0.0,0.0,0.0,0.0,0.0,0.0,0.0,0.0,0.0,0.0,0.0,0.0,0.0,0.0,0.0,0.0,0.0,0.0,2.0676,2.2571,2.3226,2.3026,2.2509,0.0,0.0,0.0,0.0,0.0,0.0,0.0,0.0,0.0,3.1263,3.2437,3.354,3.4663,3.7207,3.8723,3.9245,4.0758,4.1986,4.2905,4.2893,4.3067,4.3381,4.3309,4.1995,3.9641,3.6159,3.4076,3.2876,0.0,0.0,0.0,0.0,0.0,3.1638,3.3026,0.0,0.0,0.0,0.0,0.0,0.0,0.0,0.0,0.0,0.0,0.0,0.0,0.0,0.0,3.7473,3.7693,3.7672,3.7707,3.4858,3.1449,0.0,2.7482,2.6377,2.3824,0.0,0.0,0.0,0.0,0.0,3.1887,3.3951,3.5247,3.5331,3.5331,3.5331,3.5331,3.4943,3.4619,3.4412,3.3343,3.2255,3.1262,2.9512,2.7478,0.0,0.0,0.0,0.0,0.0,0.0,0.0,0.0,0.0,0.0,0.0,0.0,0.0,0.0,0.0,0.0,0.0,0.0,0.0,0.0,0.0,0.0,0.0,0.0,0.0,0.0,0.0,0.0,2.3129,2.4784,2.4956,2.5151,2.4723,0.0,0.0,0.0,0.0,0.0,0.0,3.1306,3.2055,3.3512,3.5898,3.6961,3.8084,3.9293,4.1091,4.2509,4.3529,4.444,4.5553,4.6811,4.6786,4.6786,4.6798,4.6748,4.6584,4.5922,4.093,3.8423,3.7594,3.6016,3.5349,0.0,3.6039,3.6261,3.6479,3.827,3.8452,3.7718,3.6641,0.0,3.3472,3.1323,0.0,0.0,0.0,0.0,3.4292,3.671,0.0,3.8834,4.0788,4.115,4.1103,4.1214,3.9847,3.7268,0.0,3.1858,3.0794,2.767,0.0,0.0,0.0,0.0,3.2113,3.3477,3.502,3.6089,3.627,3.6289,3.6289,3.6289,3.5798,3.5636,3.6011,3.5169,3.436,3.366,3.2668,3.0663,0.0,0.0,0.0,0.0,0.0,0.0,0.0,0.0,0.0,0.0,0.0,0.0,0.0,0.0,0.0,0.0,0.0,0.0,0.0,0.0,0.0,0.0,0.0,0.0,0.0,0.0,0.0,0.0,0.0,0.0,2.8075,2.8891,0.0,0.0,0.0,0.0,3.0335,3.1307,3.3065,3.6016,3.6571,3.7777,3.9928,4.1703,4.298,4.3687,4.5802,4.6933,4.7139,4.7972,4.847,4.8668,4.8668,4.8668,4.8668,4.854,4.8399,4.795,4.4126,4.2205,4.1536,3.9677,3.871,3.8571,4.0043,4.0335,4.0235,4.1801,4.2068,4.1708,4.1648,3.9677,3.7302,3.7105,3.5664,0.0,0.0,3.6965,3.8171,3.9316,4.0703,4.1864,4.2317,4.274,4.2931,4.2521,4.1844,4.0284,0.0,3.5093,3.3827,3.2855,0.0,0.0,3.3087,3.4943,3.6044,3.5201,3.6932,3.7728,3.6432,3.6289,3.6289,3.6289,3.6257,3.5946,3.5279,3.5849,3.5849,3.5117,3.3789,3.2866,3.2543,2.7782,0.0,0.0,0.0,0.0,0.0,0.0,0.0,0.0,0.0,0.0,0.0,0.0,0.0,0.0,0.0,0.0,0.0,0.0,0.0,0.0,0.0,0.0,0.0,0.0,0.0,0.0,0.0,0.0,3.0673,3.1924,0.0,0.0,3.175,3.2931,3.3952,3.5667,3.7796,4.0407,4.1183,4.2641,4.5046,4.5752,4.64,4.7079,4.7914,4.8584,4.904,4.9892,5.068,5.1305,5.171,5.1922,5.2015,5.1869,5.1736,5.1481,4.9536,4.7282,4.4966,4.37,4.309,4.3031,4.3583,4.4023,4.4435,4.4984,4.5075,4.4769,4.3491,4.2066,4.0752,4.0469,4.0408,4.0488,4.096,4.1929,4.3039,4.3947,4.4585,4.5108,4.5719,4.5971,4.6039,4.589,4.4868,4.3653,4.2454,3.9849,3.753,3.6537,3.6567,3.658,3.6214,3.7177,3.7913,3.7728,3.8384,3.8542,3.7737,3.7663,3.7825,3.8325,3.7501,3.7242,3.7903,3.7339,3.684,3.6562,3.5655,3.4476,3.306,3.0341,2.7585,0.0,0.0,0.0,0.0,0.0,0.0,0.0,0.0,0.0,0.0,0.0,0.0,0.0,0.0,0.0,0.0,0.0,0.0,0.0,0.0,0.0,0.0,0.0,0.0,0.0,0.0,3.2169,3.3558,3.5127,3.5668,3.448,3.5775,3.7113,3.8134,3.9912,4.195,4.4296,4.5012,4.6247,4.8197,4.8814,4.9309,4.969,5.031,5.0819,5.1224,5.1833,5.247,5.3135,5.354,5.3789,5.3847,5.3775,5.3667,5.346,5.2829,5.114,4.8891,4.7627,4.7138,4.7124,4.7299,4.7734,4.8218,4.8424,4.8169,4.7507,4.6254,4.5145,4.427,4.3994,4.4429,4.5029,4.5029,4.5602,4.6293,4.6824,4.6962,4.71,4.7582,4.7686,4.7686,4.7686,4.6893,4.6169,4.6169,4.336,4.073,4.0001,4.0058,3.9917,3.9014,3.9581,3.9866,3.9161,3.9366,3.9276,3.8468,3.8408,3.8699,3.9426,3.8375,3.8084,3.907,3.7987,3.7196,3.6969,3.6303,3.5137,3.3465,3.1304,2.8876,2.6212,0.0,0.0,0.0,0.0,0.0,0.0,0.0,0.0,0.0,0.0,0.0,0.0,0.0,0.0,0.0,0.0,0.0,0.0,0.0,0.0,0.0,0.0,0.0,2.9861,3.2013,3.4406,3.6821,3.8617,3.9393,3.8701,4.0061,4.1598,4.3045,4.3972,4.5398,4.7588,4.7949,4.8472,4.9278,5.0897,5.1716,5.1576,5.3082,5.3793,5.3793,5.3829,5.3931,5.4037,5.4073,5.4073,5.4073,5.4073,5.4007,5.3851,5.3738,5.3602,5.3274,5.1333,5.0558,5.0634,5.1145,5.1349,5.1424,5.1987,5.1272,5.008,5.008,4.9065,4.7824,4.7824,4.7824,4.7824,4.7824,4.7824,4.7824,4.7824,4.7824,4.7824,4.7824,4.7824,4.7824,4.7824,4.7789,4.772,4.772,4.5368,4.3345,4.3345,4.3345,4.2931,4.1772,4.2442,0.0,3.9523,4.0022,4.0071,3.8634,3.8472,3.8764,3.9491,3.8875,3.844,3.844,3.7714,3.7002,3.6354,3.5636,3.4891,3.4133,3.0679,2.8425,2.7529,0.0,0.0,0.0,0.0,0.0,0.0,0.0,0.0,0.0,0.0,0.0,0.0,0.0,0.0,0.0,0.0,0.0,0.0,0.0,0.0,0.0,0.0,3.2608,3.3919,3.6175,3.8616,4.1045,4.2315,4.3178,4.3631,4.4576,4.5559,4.6554,4.7394,4.8364,4.9499,5.0177,5.0941,5.1849,5.286,5.3359,5.3307,5.3735,5.3962,5.3962,5.4532,5.4844,5.4871,5.5491,5.574,5.574,5.574,5.5713,5.5673,5.5522,5.5439,5.5227,5.3233,5.2312,5.2097,5.2248,5.2176,5.1987,5.2149,5.1927,5.1582,5.1582,5.1306,5.0962,5.0962,5.0962,5.0962,5.0962,5.0962,5.0962,5.0962,5.0962,5.0962,5.0962,5.0548,5.0168,5.0168,4.9306,4.8499,4.8499,4.741,4.6458,4.6458,4.6458,4.6349,4.6034,0.0,0.0,4.3738,4.325,4.2499,4.0876,4.0236,4.0236,4.0949,3.988,3.9199,0.0,3.7973,3.7228,3.7034,3.6354,3.5655,3.4923,3.2417,3.0731,0.0,0.0,0.0,0.0,0.0,0.0,0.0,0.0,0.0,0.0,0.0,0.0,0.0,0.0,0.0,0.0,0.0,0.0,0.0,0.0,0.0,0.0,3.3827,3.6878,3.9426,4.0204,4.1513,4.4266,4.5099,4.59,4.7096,4.7606,4.8176,4.8983,4.9778,5.0574,5.1358,5.2128,5.2808,5.335,5.4086,5.4514,5.4514,5.4835,5.5013,5.5013,5.5812,5.6204,5.624,5.7025,5.7368,0.0,5.7368,5.7368,5.7368,5.7284,5.7242,0.0,0.0,0.0,0.0,0.0,5.359,5.3348,5.3348,5.313,5.2792,5.2792,5.2505,5.2203,5.2203,5.2203,5.2203,5.2203,5.2203,5.2203,5.2203,5.2203,5.2203,5.2203,5.1858,5.1548,5.1548,5.0858,5.0237,5.0237,0.0,0.0,4.9134,4.8341,4.7582,4.7272,4.7158,4.6491,0.0,4.4241,4.3328,4.177,4.1499,4.1581,4.197,4.1013,0.0,0.0,0.0,3.7487,3.6904,0.0,0.0,0.0,0.0,0.0,0.0,0.0,0.0,0.0,2.9889,2.9781,0.0,0.0,0.0,0.0,0.0,0.0,0.0,0.0,0.0,0.0,0.0,0.0,0.0,0.0,0.0,0.0,3.831,4.1294,4.5102,4.4024,4.389,4.6742,4.7178,4.7818,4.9305,4.9519,4.9912,5.0709,5.1494,5.2292,5.297,0.0,0.0,0.0,0.0,5.5384,5.5491,5.6169,5.6561,5.6668,5.7382,5.7717,5.7753,5.8403,5.8709,5.8709,5.8709,5.8709,5.8709,5.8709,5.8709,5.8538,5.683,5.6098,5.5939,5.5629,5.5433,0.0,0.0,0.0,0.0,5.3967,5.3395,5.2686,5.2617,5.2582,5.2582,5.2479,5.2479,5.2479,5.2479,5.2479,5.2479,5.2479,5.241,5.2341,5.2341,5.2272,5.2203,5.2203,5.1686,5.1203,5.1203,4.941,4.772,4.7065,4.6787,0.0,4.4773,4.4311,4.3619,4.232,0.0,0.0,4.2845,4.2229,4.1791,4.1742,3.9782,3.8051,3.6724,3.6024,3.6024,3.6743,3.6691,3.6947,3.75,3.8254,3.8272,3.75,3.367,3.3182,0.0,0.0,0.0,0.0,0.0,0.0,0.0,0.0,0.0,0.0,0.0,0.0,0.0,0.0,0.0,3.7294,4.1,4.421,4.6257,4.7334,4.8117,4.8686,4.8805,4.9234,5.0161,5.0852,5.1565,5.2363,5.3135,5.3622,5.3765,5.455,0.0,5.4978,5.574,5.649,5.7146,5.7289,5.7667,5.826,0.0,0.0,5.851,5.8652,5.8709,5.8709,5.8709,5.8709,5.8709,5.8709,5.8709,5.8645,5.805,5.7812,5.7753,5.7439,5.7267,5.7226,5.6962,5.6748,5.653,5.6261,5.6063,5.5805,5.5134,5.4927,0.0,5.4203,5.4065,5.4065,5.4065,5.4065,5.4065,5.4065,5.3582,5.3184,5.3184,5.2651,5.2203,5.2203,5.2099,5.1996,5.1996,5.0617,4.9528,4.9355,4.93,4.9017,4.8271,4.7319,4.639,4.5698,4.4886,4.4399,4.4366,4.3719,4.3023,4.244,4.0966,3.975,3.8908,3.8746,3.9005,3.9671,3.9167,3.9185,3.9836,4.0027,4.0318,4.0692,3.8732,3.7769,0.0,0.0,0.0,0.0,0.0,0.0,0.0,0.0,0.0,0.0,0.0,3.0485,3.2538,0.0,3.8208,4.141,4.401,4.635,4.8366,4.9376,4.9887,4.9838,4.9875,5.0375,5.1565,5.2242,5.284,5.3398,5.4366,5.4809,5.4598,5.537,5.5812,5.5812,5.6561,5.7182,5.761,5.7953,5.8331,5.8709,5.9116,5.9295,5.933,5.9723,5.9901,5.9901,5.9901,5.9901,5.9901,5.9901,5.9901,5.9886,5.9754,5.9153,5.8355,5.8118,5.8028,5.7998,5.7739,5.76,5.7491,5.7145,5.6967,5.6816,5.6339,5.6219,5.6099,5.577,5.5667,5.5683,5.5729,5.5697,5.5683,5.5729,5.5094,5.4478,5.4478,5.3892,5.3341,5.3341,5.3065,5.2789,5.2789,5.1858,5.1099,5.1099,5.092,5.0552,4.997,4.9172,4.815,4.6912,4.682,4.6471,4.5403,4.4658,4.3945,4.3217,4.2197,4.1452,4.1063,4.1063,4.1225,4.1534,4.1581,4.1776,4.2099,4.2812,4.333,4.3702,4.3719,4.2942,0.0,0.0,0.0,0.0,0.0,0.0,0.0,0.0,2.8247,3.008,3.2162,3.4547,3.751,3.9489,4.1874,4.5443,4.687,4.8235,5.033,5.0686,5.0769,5.0807,5.0974,5.1582,5.2883,5.3663,5.4157,5.435,5.5387,5.5867,5.5433,5.6204,5.6633,5.6633,5.7396,5.7896,5.8038,5.8652,5.9009,5.9188,5.983,6.0115,6.0151,6.0808,6.1093,6.1093,6.1093,6.1093,6.1093,6.1272,6.1343,6.1343,6.1486,6.0698,5.9419,5.9003,5.8852,5.8822,5.8562,5.8426,5.8273,5.7917,5.7693,5.7478,5.7195,5.7111,5.7076,5.6955,5.6853,5.6853,5.7032,5.6951,5.6853,5.6949,5.6434,5.5872,5.5839,5.5391,5.4908,5.472,5.4253,5.377,5.3632,5.3065,5.2548,5.2237,5.1769,5.1312,5.0824,5.0224,4.928,4.7636,4.8403,4.8299,4.6568,4.5921,4.5305,4.4577,4.4043,4.3654,4.3444,4.3444,4.3508,4.3654,4.4221,4.4609,4.4738,4.5872,4.6422,4.6454,4.762,4.7216,2.5692,2.4263,2.39,2.6317,2.6583,2.7442,0.0,0.0,3.3393,3.6494,3.7878,3.912,4.1106,4.3407,4.549,4.6963,4.8827,5.0318,5.0937,5.1334,5.1666,5.1982,5.2654,5.3171,5.34,5.5039,5.5958,5.5611,5.6382,5.6695,5.6303,5.7039,5.7467,5.7467,5.8189,5.8938,5.963,5.9723,6.0115,6.0843,6.0915,6.095,6.0986,6.1058,6.1093,6.1093,6.1093,6.1093,6.1165,6.1858,6.2179,6.2215,6.2893,6.302,6.2684,6.1313,6.0799,6.0754,6.0438,6.0315,6.0187,5.9698,5.9502,5.9348,5.8491,5.8233,5.8094,5.7431,5.7129,5.7032,5.7206,5.711,5.6999,5.7016,5.6896,5.6812,5.67,5.6598,5.6322,5.5616,5.5409,5.5134,5.4494,5.4306,5.3789,5.241,5.1772,5.1376,5.1312,5.0426,4.9728,4.9511,4.9186,4.8915,4.8656,4.8591,4.8235,4.7555,4.7458,4.7119,4.6456,4.6424,4.673,4.7393,4.7458,4.7814,4.8429,4.8558,4.8656,4.8656,4.8817,4.8429,2.8797,2.8194,0.0,0.0,3.0286,3.2005,3.4143,3.5507,3.6825,3.8586,4.0382,4.2019,4.324,4.5243,4.7201,0.0,4.9991,5.1047,5.1668,5.1874,5.1862,5.1548,5.3013,5.4141,5.448,5.5412,5.6225,5.6794,5.7328,5.7692,5.7776,5.7876,5.8174,5.8619,5.913,5.9544,5.9901,6.038,6.0772,6.1093,6.1093,6.1093,6.1093,6.1093,6.1343,6.1822,6.2235,6.2449,6.2449,6.2821,6.2928,6.2964,6.3285,6.3392,6.3321,6.2663,6.2449,6.2419,6.2189,6.1812,6.1344,6.0915,6.0471,6.0001,5.9526,5.9391,5.9338,5.9039,5.8771,5.8674,5.8886,5.879,5.8625,5.8625,5.8196,5.777,5.7659,5.7182,5.6702,5.6357,5.6322,5.6219,5.5908,5.5839,5.5632,5.4961,5.3925,5.3088,5.2781,5.2336,5.1813,5.1168,4.9826,4.9174,4.9594,4.9238,4.8882,4.8591,4.8591,4.8429,4.8123,4.8123,4.8267,4.8591,4.8591,4.872,4.9012,4.9432,4.9872,5.0293,5.0681,5.0922,3.0779,0.0,0.0,3.156,3.3781,3.6076,3.6362,3.816,4.0046,4.1021,4.2676,4.4238,4.5164,4.6877,0.0,4.9956,5.0978,5.1778,5.2413,5.2406,5.2118,5.14,5.2793,5.4102,5.4748,5.5638,5.6632,5.7664,5.8178,5.857,5.8787,5.8821,5.9091,5.9682,6.0053,6.0222,6.0222,6.0808,6.1093,6.1093,6.1307,6.1414,6.145,6.1628,6.2057,6.2643,6.3178,6.3392,6.3428,6.3627,6.3734,6.3734,6.3984,6.4071,6.4071,6.4071,6.3785,6.3413,6.3289,6.2871,6.2326,6.2045,6.1561,6.107,6.0947,6.0899,6.0899,6.0899,6.0736,6.0655,6.0851,6.0595,6.0291,6.0291,5.955,5.8813,5.8619,5.8005,5.7407,5.715,5.7116,5.7047,5.684,5.6805,5.6805,5.6805,5.5839,5.4853,5.409,5.3686,5.3161,5.2392,5.1016,5.0361,5.0908,5.0501,5.0177,5.0177,5.0177,5.008,4.9886,5.008,5.008,4.9886,5.008,5.0177,5.0177,5.0727,5.1264,5.1782,5.2268,5.2767,0.0,0.0,3.2236,3.4425,3.6745,3.8848,4.0283,4.1832,4.3434,4.5156,4.558,4.6012,4.7205,4.872,5.0058,5.0762,5.1925,5.2868,5.3235,5.2991,5.2612,5.2132,5.2146,5.2619,0.0,5.603,5.7614,5.8031,5.8878,5.9206,5.8835,5.9835,6.0427,6.0476,6.0841,6.1058,6.1058,6.1093,6.1093,6.1093,6.1893,6.225,6.2286,6.3,6.3357,6.3392,6.3392,6.3392,6.3464,6.4234,6.4575,6.4646,6.5411,6.5732,6.5732,6.5732,6.4733,6.3392,6.3377,6.3377,6.3311,6.3175,6.3113,6.3081,6.2939,6.2926,6.2926,6.2926,6.2779,6.2646,6.2843,6.2181,6.1453,6.1453,6.0727,5.9975,5.9634,5.9383,5.894,5.8046,5.7874,5.7633,5.6909,5.6805,5.6805,5.6805,5.6771,5.6245,5.4941,5.3617,5.291,5.3045,5.3019,5.3039,5.3194,5.3188,5.3188,5.3188,5.3188,5.2832,5.2139,5.2799,5.2832,5.2106,5.2799,5.3188,5.3188,5.3188,5.322,5.3252,5.3252,5.3285,0.0,0.0,3.5919,3.8333,4.0122,4.1734,4.3294,4.4289,4.5043,4.5646,4.593,4.6234,4.6636,4.7912,4.9162,4.9985,5.1828,5.3183,5.3297,5.3655,5.3256,5.1437,5.2429,0.0,0.0,0.0,0.0,5.7603,5.8963,5.9919,6.0362,6.07,6.1131,6.169,6.1322,6.1093,6.1093,6.1093,6.1379,6.1929,6.2679,6.3036,6.3071,6.3841,6.4198,6.4234,6.4769,6.4983,6.5019,6.5268,6.5411,6.5411,6.5697,6.5804,6.5804,6.5804,6.5447,6.4983,6.4983,6.4626,6.4182,6.412,6.3763,6.332,6.3273,6.3258,6.3258,6.3258,6.3148,6.3057,6.3105,6.286,6.262,6.2524,6.2232,6.1876,6.1534,6.0799,6.0113,5.9701,5.9098,5.8547,5.8306,5.8237,5.8237,5.8237,5.7426,5.6636,5.6178,5.5023,5.4287,5.4356,5.3682,5.324,5.3304,5.3317,5.3317,5.3317,5.3317,5.3188,5.2929,5.3155,5.3188,5.2929,5.3188,5.3317,5.3317,5.3317,5.3544,5.4049,5.4049,5.4256,3.5725,3.7357,3.9102,4.155,4.316,4.4403,4.5307,4.5964,4.6297,4.5878,4.581,4.5776,4.562,4.6437,4.762,4.915,5.1237,5.2927,5.3786,5.434,5.3971,5.2104,5.2992,0.0,0.0,0.0,0.0,5.735,5.9282,6.0528,6.0926,6.1361,6.1699,6.2063,6.1451,6.1093,6.1093,6.1379,6.2057,6.3127,6.3591,6.3984,6.4269,6.4804,6.5038,6.5038,6.559,6.5804,6.5804,6.5804,6.5804,6.5804,6.5804,6.5804,6.5804,6.5804,6.5804,6.5804,6.5804,6.5482,6.5038,6.5038,6.4697,6.4269,6.4269,6.4269,6.4269,6.4269,6.4191,6.4148,6.4148,6.3934,6.3689,6.3594,6.3171,6.273,6.2537,6.1787,6.1083,6.0912,6.0393,5.9927,5.984,5.9599,5.9426,5.9426,5.8392,5.7495,5.7219,5.6304,5.5664,5.5687,5.5063,5.4555,5.4392,5.4385,5.4267,5.4082,5.4062,5.3932,5.3706,5.3932,5.3932,5.3706,5.3932,5.4062,5.4062,5.4062,5.4418,5.515,5.515,5.5507,3.8332,4.0026,4.1674,4.3998,4.5707,4.6749,4.6483,4.6958,4.7129,4.5966,4.5268,4.4702,0.0,0.0,4.5627,4.8327,5.0339,5.2345,5.4676,5.5085,5.4825,0.0,0.0,0.0,0.0,0.0,0.0,5.7435,0.0,6.0996,6.0632,6.1775,6.2215,6.1782,6.135,6.1159,6.1209,6.2,6.3163,6.461,6.4646,6.5038,6.5804,6.5804,6.5804,6.5804,6.5804,6.5804,6.5804,6.5804,6.5804,6.5804,6.5804,6.5804,6.5804,6.5804,6.5804,6.5804,6.5804,6.5804,6.5804,6.5804,6.5804,6.5804,6.5804,6.5804,6.5804,6.5804,6.5804,6.5804,6.5804,6.5233,6.4646,6.4646,6.366,6.2774,6.2809,6.2377,6.1918,6.1727,6.1623,6.1518,6.1324,6.0703,6.0254,6.0254,5.9599,5.8823,5.8081,5.7324,5.69,5.705,5.703,5.6835,5.6315,5.6283,5.604,5.543,5.5389,5.5098,5.447,5.5086,5.5118,5.4535,5.513,5.5454,5.5518,5.5518,5.5863,5.6543,5.6543,5.6952,4.1119,4.2942,4.4605,4.641,4.6965,4.7241,4.7762,4.7375,4.6474,4.4986,4.3761,4.2589,0.0,0.0,0.0,4.6801,5.0525,0.0,5.4825,5.6087,0.0,0.0,0.0,5.5429,5.475,5.6013,0.0,0.0,5.9542,6.0724,6.186,6.251,6.2768,6.2668,6.1933,6.1817,6.2429,6.3474,6.4218,6.461,6.5233,6.559,6.5804,6.5804,6.5804,6.5804,6.5804,6.5804,6.5804,6.5804,6.5804,6.5804,6.5804,6.5804,6.5804,6.5804,6.5804,6.5804,6.5804,6.5804,6.5804,6.5804,6.5804,6.5804,6.5804,6.5804,6.5804,6.5804,6.5804,6.5804,6.5804,6.5661,6.5482,6.5482,6.5132,6.4727,6.4648,6.3921,6.3181,6.2718,6.1969,6.1342,6.1289,6.1151,6.1013,6.1013,6.084,6.022,5.8892,5.8152,5.7769,5.7831,5.7434,5.6928,5.6361,5.6283,5.604,5.543,5.5389,5.5324,5.513,5.5292,5.5604,5.596,5.6122,5.6478,5.705,5.705,5.7147,5.7309,5.7309,5.7438,4.3325,4.5109,4.6661,4.7924,4.81,4.7756,4.6985,4.6342,4.5077,4.2204,4.0853,0.0,0.0,0.0,0.0,0.0,0.0,0.0,5.5233,5.6395,5.6756,0.0,5.6543,0.0,5.6125,5.7276,5.8502,0.0,6.021,6.0962,6.2066,6.268,6.2929,6.2755,6.2395,6.2681,6.3663,6.4286,6.4789,6.511,6.559,6.5804,6.5804,6.5804,6.5804,6.5804,0.0,6.5804,6.5804,6.5804,6.5804,6.5804,6.5804,6.5804,6.5839,6.6196,6.6339,6.6375,6.6696,6.6803,6.6696,6.6018,6.5804,6.5804,6.5804,6.5804,6.5804,6.5804,6.5804,6.5804,6.5804,6.5804,6.5804,6.5804,6.5575,6.5379,6.5363,6.4693,6.3954,6.3607,6.2923,6.245,6.245,6.2102,6.1806,6.1806,6.153,6.0978,6.0116,5.9698,5.9502,5.9502,5.918,5.8646,5.775,5.7672,5.7278,5.6411,5.6349,5.6349,5.6349,5.6349,5.6543,5.6985,5.6985,5.7179,5.76,5.76,5.7762,5.8032,5.8032,5.8194,4.5098,4.6673,4.8036,4.8742,4.8816,4.8041,4.5451,4.4608,4.317,3.8879,0.0,0.0,3.6131,3.7632,4.0346,4.4626,0.0,5.1639,5.5726,5.6395,5.6766,5.7573,5.7658,5.7685,5.7806,5.8465,5.9542,6.1224,6.1373,6.1563,6.2018,6.2706,6.2916,6.2569,6.293,6.3616,6.4575,6.4717,6.5126,6.5804,6.5804,6.5804,6.5804,6.5804,6.5804,6.5804,0.0,0.0,6.5804,6.5804,6.5804,6.5804,6.5804,6.5875,6.6053,6.6748,6.7069,6.7247,6.7873,6.8088,6.7873,6.6553,6.6125,6.6125,6.6125,6.6125,6.6125,6.6125,6.6125,6.6125,6.6125,6.6125,6.6125,6.6125,6.5846,6.5578,6.5639,6.5033,6.4411,6.4251,6.4037,6.3909,6.3838,6.3192,6.2652,6.2652,6.2048,6.1599,6.1599,6.1427,6.1289,6.1289,6.1289,6.0823,5.9631,5.9515,5.9059,5.7925,5.7758,5.7716,5.7716,5.7643,5.7633,5.773,5.773,5.7795,5.7892,5.7892,5.8194,5.8756,5.8756,5.9144,4.6511,4.7771,4.8742,4.889,4.8407,4.7424,4.5638,4.3619,0.0,0.0,0.0,3.4705,3.4593,3.6493,3.9684,4.4514,0.0,0.0,0.0,0.0,5.7573,0.0,0.0,0.0,0.0,0.0,0.0,0.0,0.0,0.0,6.324,6.3425,6.343,6.3308,6.4003,6.4477,6.459,6.5268,6.5661,6.5804,6.5804,6.5804,6.5804,6.5804,6.5804,6.5804,0.0,0.0,6.5804,6.5804,6.5804,6.5804,6.5804,6.6196,6.6819,6.6962,6.739,6.7926,6.8068,6.8088,6.8068,6.7766,6.7695,6.7695,6.7695,6.7695,6.7695,6.7695,6.7695,6.7695,6.7695,6.7695,6.7695,6.7695,6.7546,6.7254,6.6631,6.5522,6.4585,6.4411,6.4127,6.3872,6.3673,6.3533,6.3393,6.3393,6.3289,6.3186,6.3186,6.2082,6.1289,6.1289,6.1289,6.102,6.0272,6.0216,5.9914,5.9217,5.8639,5.8335,5.8335,5.7862,5.7838,5.8432,5.8432,5.8723,5.936,5.936,5.9403,5.95,5.95,5.9889,4.6403,4.7716,4.889,4.889,4.8201,4.665,4.348,0.0,0.0,0.0,0.0,3.2327,3.2327,0.0,0.0,0.0,0.0,0.0,0.0,0.0,0.0,0.0,0.0,0.0,0.0,0.0,0.0,0.0,0.0,0.0,6.359,6.3815,6.3984,6.412,6.4674,6.506,6.5233,6.5625,6.5804,6.5804,6.5804,6.5804,6.5804,6.5804,6.5804,6.5804,0.0,0.0,6.5804,6.5804,6.5804,6.5839,6.6268,6.666,6.7105,6.7909,6.8409,6.8801,6.9194,6.9337,6.9337,6.9337,6.8766,6.8088,6.8088,6.8088,6.8088,6.8088,6.8088,6.8088,6.8088,6.8088,6.8088,6.8088,6.8073,6.785,6.7293,6.6734,6.6195,6.5688,6.5473,6.5256,6.4925,6.4847,6.4791,6.4791,6.4427,6.4152,6.4152,6.3186,6.2496,6.2496,6.2496,6.2224,6.1613,6.1556,6.1153,6.0183,5.9816,5.9485,5.9161,5.8852,5.8842,5.9177,5.9177,5.9338,5.9694,6.0105,6.0267,6.0299,6.0623,6.0979,4.6048,4.7398,4.8776,4.8723,4.7822,4.5778,4.1318,3.9217,0.0,0.0,0.0,3.0437,3.0772,0.0,0.0,0.0,0.0,0.0,0.0,0.0,0.0,0.0,0.0,0.0,0.0,0.0,0.0,0.0,0.0,0.0,6.359,6.397,6.4371,6.469,6.5019,6.5391,6.5804,6.5804,6.5804,6.5804,6.5804,6.5804,6.5804,6.5804,6.5804,6.5804,0.0,0.0,0.0,6.5804,6.5804,6.5875,6.6712,6.7105,6.741,6.8785,6.9427,6.9641,7.03,7.0514,7.0514,7.0514,6.9658,6.8623,6.8623,6.8623,6.8623,6.8623,6.8623,6.8623,6.8623,6.8623,6.8623,6.8623,6.848,6.829,6.7969,6.7913,6.7652,6.6881,6.6684,6.6573,6.6145,6.5971,6.5895,6.5895,6.5359,6.4945,6.4945,6.4427,6.4083,6.4083,6.3945,6.3621,6.3079,6.3076,6.2634,6.163,6.1327,6.0922,6.038,6.0236,6.0148,6.0148,6.0148,6.0148,6.0148,6.072,6.1012,6.1012,6.1562,6.1886,4.6216,4.7322,4.8383,4.8151,4.6893,4.4739,4.0813,0.0,0.0,3.1427,3.0034,2.9959,3.1403,0.0,0.0,0.0,0.0,4.4106,0.0,0.0,0.0,0.0,0.0,0.0,0.0,0.0,0.0,0.0,0.0,0.0,0.0,6.397,6.4371,6.469,6.5019,6.5391,6.5804,6.5804,6.5804,6.5804,6.5804,6.5804,6.5804,6.5804,6.5804,6.5804,0.0,0.0,0.0,6.5804,6.5804,6.5875,6.6712,6.7426,6.8088,6.8963,6.9748,7.0407,7.0478,7.0514,7.0514,7.0514,7.0407,7.03,7.03,7.03,7.03,7.03,7.03,7.03,7.03,7.03,7.03,7.03,6.9712,6.9126,6.9009,6.8406,6.7652,6.6881,6.6684,6.6536,6.6028,6.5895,6.5895,6.5895,6.5826,6.5792,6.5792,6.5723,6.5688,6.5688,6.5014,6.4581,6.4525,6.4552,6.4565,6.4444,6.3273,6.2596,6.253,6.1933,6.1627,6.1627,6.1627,6.1627,6.1627,6.1692,6.1724,6.1724,6.1789,6.2145,4.5285,4.6842,4.8114,4.8032,4.6387,4.3835,4.0031,0.0,3.4445,3.0648,2.9625,2.9588,3.0257,3.0734,0.0,0.0,0.0,0.0,0.0,0.0,0.0,0.0,0.0,0.0,0.0,0.0,0.0,0.0,0.0,0.0,0.0,6.4042,6.4452,6.4352,6.5113,6.5636,6.5804,6.5804,6.5804,6.5804,6.5804,6.5804,6.5804,6.5804,6.5804,6.5804,0.0,0.0,0.0,6.5804,6.5804,6.5911,6.716,6.7854,6.8266,6.9551,7.0229,7.0514,7.0514,7.0514,7.0514,7.0514,7.0514,7.0514,7.0514,7.0514,7.0514,7.0514,7.0514,7.0514,7.0514,7.0514,7.0514,7.0514,7.0264,7.0016,6.9965,6.9491,6.8929,6.8357,6.8064,6.7781,6.7318,6.7221,6.7221,6.7221,6.6861,6.6551,6.6551,6.6171,6.5895,6.5895,6.5619,6.5241,6.4786,6.4764,6.4451,6.3642,6.3087,6.264,6.2218,6.1925,6.1821,6.1821,6.1821,6.1821,6.1821,6.2242,6.2469,6.2469,6.2923,6.3279,4.4227,4.6029,4.7476,4.7373,4.5701,4.3039,0.0,0.0,3.3776,3.0139,2.936,2.9339,2.9391,3.0071,3.1143,0.0,0.0,3.7269,0.0,0.0,0.0,0.0,0.0,0.0,0.0,0.0,0.0,0.0,0.0,0.0,0.0,6.4025,6.452,6.413,6.5197,6.5804,6.5804,6.5804,6.5804,6.5804,6.5804,6.5804,6.5804,6.5804,6.5804,0.0,0.0,0.0,0.0,6.5804,6.5804,6.5946,6.7481,6.8088,6.8302,6.9907,7.0514,7.0514,7.0514,7.0514,7.0514,7.0514,7.0514,7.0514,7.0514,7.0514,7.0514,7.0514,7.0514,7.0514,7.0514,7.0514,7.0514,7.0514,7.0514,7.048,7.0341,7.0114,6.9742,6.9231,6.8895,6.8571,6.8162,6.8083,6.8083,6.8083,6.7669,6.7325,6.7325,6.6896,6.6473,6.6279,6.6259,6.598,6.5229,6.4971,6.4446,6.3507,6.3241,6.2938,6.2492,6.2469,6.2469,6.2469,6.2469,6.2469,6.2469,6.2987,6.3214,6.3246,6.3764,6.4097,4.3166,4.4873,4.625,4.5919,4.4642,4.2363,0.0,3.5672,3.3451,3.0083,2.9222,2.9151,2.937,3.0071,3.1143,3.2735,3.5745,0.0,0.0,0.0,0.0,0.0,0.0,0.0,0.0,0.0,0.0,0.0,0.0,0.0,0.0,6.3865,6.452,6.413,6.5197,6.5804,6.5804,6.5804,6.5804,6.5804,6.5804,6.5804,6.5804,6.5804,0.0,0.0,0.0,0.0,0.0,6.5804,6.5804,6.5946,6.7481,6.8088,6.8302,6.9907,7.0514,7.0514,7.0514,7.0514,7.0514,7.0514,7.0514,7.0514,7.0514,7.0514,7.0514,7.0514,7.0514,7.0514,7.0514,7.0514,7.0514,7.0514,7.0514,7.0375,7.0009,6.9885,6.9652,6.8876,6.8705,6.8571,6.8162,6.8083,6.8083,6.8083,6.8083,6.8083,6.8083,6.8083,6.7811,6.714,6.7078,6.6806,6.6072,6.5389,6.499,6.4967,6.4347,6.3991,6.3991,6.3991,6.3991,6.3991,6.3991,6.3991,6.3991,6.3968,6.3968,6.3968,6.4,6.4356,3.9669,4.1355,4.2537,4.194,4.0756,3.8933,3.5917,3.4096,3.2283,2.9738,2.9134,2.9145,2.937,2.9625,3.0846,3.4191,3.5559,0.0,0.0,0.0,0.0,0.0,0.0,0.0,0.0,0.0,0.0,0.0,0.0,0.0,0.0,0.0,6.3502,6.3621,6.5026,6.5804,6.5804,6.5804,6.5804,6.5804,6.5804,6.5804,6.5804,6.5804,0.0,0.0,0.0,0.0,0.0,6.5804,6.5804,6.5946,6.7481,6.8088,6.8302,6.9907,7.0514,7.0514,7.0514,7.0514,7.0514,7.0514,7.0514,7.0514,7.0514,7.0514,7.0514,7.0514,7.0514,7.0514,7.0514,7.0514,7.0514,7.0514,7.0514,7.0375,6.9991,6.9778,6.9543,6.9026,6.8686,6.8455,6.8319,6.8182,6.8083,6.8083,6.8083,6.8083,6.8083,6.7705,6.7339,6.7112,6.6235,6.5569,6.5336,6.5138,6.4796,6.4333,6.4109,6.4,6.4,6.4,6.4,6.4,6.4,6.4,6.4,6.4,6.4227,6.4712,6.5198,6.5578,0.0,3.8809,3.9953,3.9498,3.8625,3.7152,3.4539,3.3067,3.1637,2.9547,2.9089,2.9145,2.937,2.9662,3.0777,3.3627,3.5417,0.0,0.0,0.0,0.0,0.0,0.0,0.0,0.0,0.0,0.0,0.0,0.0,0.0,0.0,0.0,6.3033,6.3408,6.4662,6.5482,6.5804,6.5804,6.5804,6.5804,6.5804,6.5804,6.5804,0.0,0.0,0.0,0.0,0.0,0.0,6.5804,6.5804,6.5911,6.7195,6.7854,6.8266,6.9586,7.0229,7.0514,7.0514,7.0514,7.0514,7.0514,7.0514,7.0514,7.0514,7.0514,7.0514,7.0514,7.0514,7.0514,7.0514,7.0514,7.0514,7.0514,7.0514,7.0358,6.9867,6.9688,6.9434,6.8895,6.8571,6.8377,6.8299,6.8182,6.8083,6.8083,6.8083,6.8083,6.8083,6.7725,6.738,6.7133,6.6084,6.5292,6.5023,6.4783,6.4449,6.4047,6.4,6.4,6.4,6.4,6.4097,6.4356,6.4388,6.4518,6.4777,6.4777,6.5004,6.5424,6.6193,6.6517,0.0,3.672,3.7983,3.8007,3.7557,3.6353,3.3584,3.2334,0.0,2.9458,2.9072,2.9171,2.9514,3.014,3.0957,3.2072,0.0,0.0,0.0,0.0,0.0,0.0,0.0,0.0,0.0,0.0,0.0,0.0,0.0,0.0,0.0,0.0,6.2932,6.3301,6.4055,6.486,6.5804,6.5804,6.5804,6.5804,6.5804,6.5804,6.5804,0.0,0.0,0.0,0.0,0.0,0.0,6.5804,6.5804,6.5875,6.6712,6.7462,6.8195,6.8999,6.9819,7.0514,7.0514,7.0514,7.0514,7.0514,7.0514,7.0514,7.0514,7.0514,7.0514,7.0514,7.0514,7.0514,7.0514,7.0514,7.0514,7.0514,7.0514,7.0324,6.9742,6.9598,6.9379,6.859,6.8416,6.8338,6.8143,6.8172,6.8187,6.8187,6.8221,6.8256,6.8256,6.8216,6.7957,6.7345,6.6672,6.5946,6.5233,6.4444,6.4,6.4065,6.4065,6.4065,6.4129,6.4129,6.4421,6.5068,6.5068,6.5424,6.6096,6.6161,6.6193,6.6193,6.6938,6.7262,2.8863,0.0,3.2891,3.2437,3.224,3.1839,0.0,3.0155,2.9781,2.9022,0.0,0.0,3.0939,3.0883,0.0,0.0,0.0,0.0,0.0,0.0,0.0,0.0,0.0,0.0,0.0,0.0,0.0,0.0,0.0,0.0,0.0,0.0,6.1855,6.2536,6.275,6.377,6.5768,6.5804,6.5804,6.5804,6.5804,6.5804,6.5804,6.5804,0.0,0.0,0.0,0.0,6.5804,6.5804,6.5804,6.5875,6.6712,6.7462,6.8195,6.8999,6.9819,7.0514,7.0514,7.0514,7.0514,7.0514,7.0514,7.0514,7.0514,7.0514,7.0514,7.0514,7.0514,7.0514,7.0514,7.0514,7.0514,7.0514,7.0514,7.0394,6.9938,6.9706,6.9452,6.897,6.8609,6.8377,6.8338,6.872,6.9035,6.9035,6.9518,6.9863,6.9863,6.9412,6.9037,6.8889,6.8232,6.7491,6.6763,6.5022,6.4227,6.4745,6.4777,6.5004,6.5578,6.561,6.5675,6.5837,6.5845,6.5934,6.6096,6.6679,6.6938,6.6938,6.7651,6.7974,2.5621,2.8188,3.0639,3.0777,3.087,3.0719,3.0009,0.0,0.0,0.0,0.0,0.0,0.0,0.0,0.0,0.0,0.0,0.0,0.0,0.0,0.0,0.0,0.0,0.0,0.0,0.0,0.0,0.0,0.0,0.0,0.0,0.0,6.145,6.2286,6.2286,6.325,6.5233,6.5268,6.5447,6.5804,6.5804,6.5804,6.5804,6.5804,0.0,0.0,0.0,0.0,6.5804,6.5804,6.5804,6.5839,6.6268,6.691,6.7695,6.848,6.9248,6.9998,7.0371,7.0514,7.0514,7.0514,7.0514,7.0514,7.0514,7.0514,7.0514,7.0514,7.0514,7.0514,7.0514,7.0514,7.0514,7.0514,7.0514,7.0358,6.9849,6.967,6.9539,6.9345,6.9107,6.9035,6.9283,6.9578,6.9794,6.9794,7.0139,7.0415,7.0415,7.0072,6.9717,6.9399,6.8715,6.7969,6.7245,6.5814,6.5101,6.5489,6.5489,6.5683,6.6096,6.6096,6.6258,6.6614,6.6906,6.7068,6.7068,6.7456,6.7651,6.7651,6.8039,6.8201,2.4358,2.7006,2.9762,3.0434,3.0843,3.0922,3.0361,0.0,0.0,0.0,0.0,0.0,0.0,0.0,0.0,0.0,0.0,0.0,0.0,0.0,0.0,0.0,0.0,0.0,0.0,0.0,0.0,0.0,0.0,0.0,0.0,0.0,0.0,6.2107,6.2107,6.2806,6.4218,6.4468,6.4931,6.5625,6.5732,6.5804,6.5804,6.5804,0.0,0.0,0.0,0.0,6.5804,6.5804,6.5804,6.5804,6.5804,6.6268,6.7105,6.7838,6.8623,6.9427,7.0229,7.0514,7.0514,7.0514,7.0514,7.0514,7.0514,7.0514,7.0514,7.0514,7.0514,7.0514,7.0514,7.0514,7.0514,7.0514,7.0514,7.0341,6.9796,6.974,6.9765,6.9691,6.9738,6.9896,7.0352,7.0484,7.0587,7.0587,7.0691,7.076,7.076,7.0657,7.0332,6.9739,6.903,6.8313,6.7504,6.692,6.6542,6.642,6.6323,6.6323,6.642,6.642,6.6711,6.7327,6.791,6.8201,6.8201,6.8201,6.8201,6.8201,6.8201,6.8201,2.6165,2.7812,2.8559,2.7581,2.8448,2.9537,2.9474,0.0,0.0,0.0,0.0,0.0,0.0,0.0,0.0,0.0,0.0,0.0,0.0,0.0,0.0,0.0,0.0,0.0,0.0,0.0,0.0,0.0,0.0,0.0,0.0,0.0,0.0,6.1272,6.1272,6.17,6.2643,6.3948,6.4646,6.4789,6.5482,6.5804,6.5804,6.5804,6.5804,0.0,0.0,6.5804,6.5804,6.5804,6.5804,6.5804,6.5804,6.6268,6.7105,6.7838,6.8623,6.9427,7.0229,7.0514,7.0514,7.0514,7.0514,7.0514,7.0514,7.0514,7.0514,7.0514,7.0514,7.0514,7.0514,7.0514,7.0514,7.0514,7.0514,7.0445,7.0167,7.0379,7.0508,7.0161,7.0332,7.0519,7.04,7.0932,7.1325,7.1325,7.1933,7.2347,7.2347,7.1803,7.137,7.1282,7.0603,6.9846,6.9035,6.8867,6.8536,6.7927,6.7327,6.7294,6.7845,6.7877,6.7942,6.8039,6.8136,6.8201,6.8201,6.8201,6.8201,6.8201,6.8201,6.8201,2.4931,2.641,2.7581,2.8253,2.9706,3.1013,3.1165,0.0,0.0,0.0,0.0,0.0,0.0,0.0,0.0,0.0,0.0,0.0,0.0,0.0,0.0,0.0,0.0,0.0,0.0,0.0,0.0,0.0,0.0,0.0,0.0,0.0,0.0,0.0,6.1093,6.1272,6.1628,6.277,6.377,6.461,6.4967,6.5375,6.5804,6.5804,6.5804,6.5804,0.0,6.5804,6.5804,6.5804,6.5804,6.5804,6.5804,6.6018,6.6482,6.7659,6.8623,6.9427,7.0229,7.0514,7.0514,7.0514,7.0514,7.0514,7.0514,7.0514,7.0514,7.0514,7.0514,7.0514,7.0514,7.0514,7.0514,7.0514,7.0835,7.1052,7.0753,7.1159,7.1537,7.133,7.142,7.1527,7.165,7.1933,7.214,7.214,7.245,7.2565,7.2146,7.1798,7.1277,7.0425,7.0053,6.9532,6.8765,6.8716,6.8543,6.8226,6.791,6.7877,6.8201,6.8201,6.8201,6.8201,6.8201,6.8201,6.8201,6.8201,6.8201,6.8201,6.8201,6.8395,2.4301,2.5613,2.7243,2.969,0.0,3.2265,3.336,0.0,0.0,0.0,0.0,0.0,0.0,0.0,0.0,0.0,0.0,0.0,0.0,0.0,0.0,0.0,0.0,0.0,0.0,0.0,0.0,0.0,0.0,0.0,0.0,0.0,0.0,0.0,6.1093,6.1093,6.1093,6.1715,6.2699,6.4091,6.4432,6.4931,6.5518,6.5697,6.5804,6.5804,6.5804,6.5804,6.5804,6.5804,6.5804,6.5804,6.5804,6.5911,6.6232,6.7588,6.8623,6.9427,7.0229,7.0514,7.0514,7.0514,7.0514,7.0514,7.0514,7.0514,7.0514,7.0514,7.0514,7.0514,7.0514,7.0514,7.055,7.0728,7.1228,7.164,7.1499,7.2065,7.2552,7.2324,7.239,7.2542,7.2672,7.2692,7.2692,7.2692,7.2565,7.2266,7.1666,7.1277,7.0586,6.9412,6.9147,6.8814,6.8251,6.8201,6.8201,6.8201,6.8201,6.8201,6.8201,6.8201,6.8201,6.8201,6.8201,6.8201,6.8201,6.8201,6.8298,6.846,6.8266,6.8687,2.6454,2.7222,2.8033,3.0512,0.0,0.0,3.5181,0.0,0.0,0.0,0.0,0.0,0.0,0.0,0.0,0.0,0.0,0.0,0.0,0.0,0.0,0.0,0.0,0.0,0.0,0.0,0.0,0.0,0.0,0.0,0.0,0.0,0.0,0.0,0.0,6.1093,6.1093,6.1165,6.1628,6.25,6.3912,6.461,6.4717,6.5482,6.5804,6.5804,6.5804,6.5804,6.5804,6.5804,6.5804,6.5804,6.5804,6.6268,6.7033,6.7802,6.8623,6.9427,7.0229,7.0514,7.0514,7.0514,7.0514,7.0514,7.0514,7.0514,7.0514,7.0514,7.0514,7.0514,7.0514,7.0514,7.0693,7.1442,7.1673,7.1871,7.2388,7.3081,7.3356,7.2626,7.3008,7.3331,7.2797,7.2692,7.2692,7.2692,7.2103,7.1666,7.16,7.0333,6.9412,6.9316,6.8691,6.8251,6.8201,6.8201,6.8201,6.8201,6.8201,6.8201,6.8201,6.8201,6.8201,6.8201,6.8201,6.8201,6.8201,6.8201,6.8557,6.9198,6.8525,6.8978,2.554,2.6705,2.8231,3.1303,0.0,0.0,0.0,0.0,0.0,0.0,0.0,0.0,0.0,0.0,0.0,0.0,0.0,0.0,0.0,0.0,0.0,0.0,0.0,0.0,0.0,0.0,0.0,0.0,0.0,0.0,0.0,0.0,0.0,0.0,0.0,6.1093,6.1093,6.1093,6.1236,6.1572,6.2628,6.3663,6.461,6.4931,6.534,6.5804,6.5804,6.5804,6.5804,6.5804,6.5804,6.5804,6.5804,6.5982,6.641,6.7624,6.8302,6.873,7.005,7.0514,7.0514,7.0514,7.0514,7.0514,7.0514,7.0514,7.0514,7.0514,7.0514,7.0514,7.0514,7.0871,7.1299,7.162,7.2441,7.3191,7.3422,7.388,7.4076,7.3464,7.3392,7.3258,7.2776,7.2692,7.2544,7.2081,7.1776,7.1233,7.0286,6.9651,6.9098,6.8666,6.8376,6.8201,6.8201,6.8201,6.8201,6.8201,6.8201,6.8201,6.8201,6.8201,6.8201,6.8201,6.8201,6.8201,6.8201,6.8655,6.8784,6.8622,6.9059,6.9672,2.5064,2.6298,2.8234,0.0,0.0,0.0,0.0,0.0,0.0,0.0,0.0,0.0,0.0,0.0,0.0,0.0,0.0,0.0,0.0,0.0,0.0,0.0,0.0,0.0,0.0,0.0,0.0,0.0,0.0,0.0,0.0,0.0,0.0,0.0,0.0,0.0,6.1093,6.1093,6.1093,6.1093,6.1679,6.2592,6.3912,6.4361,6.4896,6.5447,6.5697,6.5804,6.5804,6.5804,6.5804,6.5804,6.5804,6.5804,6.5982,6.7517,6.8088,6.8337,6.9943,7.0514,7.0514,7.0514,7.0514,7.0514,7.0514,7.0514,7.0514,7.0514,7.0514,7.055,7.08,7.1299,7.1799,7.2298,7.3208,7.4065,7.4314,7.452,7.4479,7.4096,7.3622,7.3191,7.2859,7.2565,7.2167,7.1688,7.1188,7.0471,6.9436,6.9074,6.8765,6.8251,6.8201,6.8201,6.8201,6.8201,6.8201,6.8201,6.8201,6.8201,6.8201,6.8201,6.8201,6.8201,6.8428,6.8428,6.8201,6.8939,6.9166,6.8914,6.9453,7.0221,2.5502,2.6384,2.8127,0.0,0.0,0.0,0.0,0.0,0.0,0.0,0.0,0.0,0.0,0.0,0.0,0.0,0.0,0.0,0.0,0.0,0.0,0.0,0.0,0.0,0.0,0.0,0.0,0.0,0.0,0.0,0.0,0.0,0.0,0.0,0.0,0.0,6.1093,6.1093,6.1093,6.1093,6.1093,6.1521,6.2357,6.3877,6.4575,6.461,6.5447,6.5804,6.5804,6.5804,6.5804,6.5804,6.5804,6.5804,6.5982,6.7517,6.8088,6.8354,6.9943,7.0478,7.0514,7.0514,7.0514,7.0514,7.0514,7.0514,7.0514,7.0514,7.0514,7.0693,7.1478,7.1709,7.2084,7.3637,7.3993,7.4243,7.5046,7.4875,7.4536,7.4345,7.3777,7.3232,7.3026,7.221,7.16,7.1578,7.0263,6.9292,6.9292,6.8642,6.8201,6.8201,6.8201,6.8201,6.8201,6.8201,6.8201,6.8201,6.8201,6.8201,6.8201,6.8201,6.8201,6.8201,6.8914,6.8939,6.8201,6.8971,6.9691,7.0403,6.9658,7.0468,2.5254,2.721,0.0,3.152,0.0,0.0,0.0,0.0,0.0,0.0,0.0,0.0,0.0,0.0,0.0,0.0,0.0,0.0,0.0,0.0,0.0,0.0,0.0,0.0,0.0,0.0,0.0,0.0,0.0,0.0,0.0,0.0,0.0,0.0,0.0,0.0,6.1093,6.1093,6.1093,6.1093,6.1093,6.1521,6.2322,6.277,6.327,6.3805,6.4626,6.4967,6.5003,6.559,6.5804,6.5804,6.5804,6.5804,6.5911,6.6946,6.7659,6.823,6.9301,7.005,7.0514,7.0514,7.0514,7.0514,7.0514,7.0514,7.0514,7.0514,7.0514,7.0693,7.1478,7.2084,7.2727,7.3744,7.4421,7.4885,7.5153,7.4763,7.4364,7.4306,7.3622,7.2908,7.2326,7.1873,7.1233,7.0146,6.958,6.9098,6.8592,6.8351,6.8201,6.8201,6.8201,6.8201,6.8201,6.8201,6.8201,6.8201,6.8201,6.8201,6.8201,6.8687,6.8719,6.8201,6.8914,6.9198,6.9004,6.9691,7.0177,7.0436,7.0997,7.1417,2.6151,2.8495,0.0,3.3579,3.7358,0.0,0.0,0.0,0.0,0.0,0.0,0.0,0.0,0.0,0.0,0.0,0.0,0.0,0.0,0.0,0.0,0.0,0.0,0.0,0.0,0.0,0.0,0.0,0.0,0.0,0.0,0.0,0.0,0.0,0.0,0.0,6.1093,6.1093,6.1093,6.1093,6.1093,6.1343,6.1807,6.2143,6.2536,6.3036,6.4111,6.461,6.4646,6.5482,6.5804,6.5804,6.5804,6.5804,6.5911,6.6696,6.7462,6.823,6.8999,6.9819,7.0514,7.0514,7.0514,7.0514,7.0514,7.0514,7.0514,7.0514,7.0514,7.0693,7.1478,7.2227,7.3012,7.3815,7.46,7.5225,7.5225,7.465,7.4155,7.4287,7.3299,7.2339,7.1948,7.1221,7.0356,6.9436,6.9026,6.8691,6.8251,6.8201,6.8201,6.8201,6.8201,6.8201,6.8201,6.8201,6.8201,6.8201,6.8392,6.8477,6.8477,6.8733,6.8784,6.8622,6.9367,6.9723,6.9723,7.0468,7.0824,7.0798,7.1481,7.1831,2.767,0.0,0.0,3.5776,3.8569,0.0,0.0,0.0,0.0,0.0,0.0,0.0,0.0,0.0,0.0,0.0,0.0,0.0,0.0,0.0,0.0,0.0,0.0,0.0,0.0,0.0,0.0,0.0,0.0,0.0,0.0,0.0,0.0,0.0,0.0,0.0,6.1093,6.1093,6.1093,0.0,6.1093,6.1093,6.1129,6.1858,6.2215,6.2393,6.3841,6.4539,6.4646,6.5482,6.5804,6.5804,6.5804,6.5804,6.5875,6.6624,6.7338,6.8088,6.8892,6.9712,7.0407,7.0478,7.0514,7.0514,7.0514,7.0514,7.0514,7.0514,7.0514,7.0657,7.1406,7.2191,7.2976,7.3708,7.4564,7.5225,7.5225,7.452,7.4018,7.4267,7.2853,7.1654,7.1774,7.0415,6.9268,6.9195,6.8617,6.8201,6.8201,6.8201,6.8201,6.8201,6.8201,6.8201,6.8201,6.8266,6.8298,6.8298,6.8756,6.9046,6.9046,6.8639,6.8701,6.9341,7.0086,7.0474,7.05,7.109,7.1413,7.1478,7.1478,7.1861,2.7512,3.0496,0.0,0.0,4.2307,4.6866,0.0,0.0,0.0,0.0,0.0,0.0,0.0,0.0,0.0,0.0,0.0,0.0,0.0,0.0,0.0,0.0,0.0,0.0,0.0,0.0,0.0,0.0,0.0,0.0,0.0,0.0,0.0,0.0,0.0,6.0451,6.1093,6.1093,6.1093,0.0,6.1093,6.1093,6.1093,6.1272,6.1715,6.2357,6.327,6.4019,6.4646,6.5482,6.5804,6.5804,6.5804,6.5804,6.5839,6.5982,6.6553,6.7338,6.8088,6.8873,6.9641,7.03,7.0514,7.0514,7.0514,7.0514,7.0514,7.0514,7.0514,7.055,7.0728,7.1763,7.2834,7.3012,7.4154,7.5225,7.5225,7.4688,7.4248,7.4287,7.2977,7.1664,7.1154,7.0066,6.9098,6.8518,6.8301,6.8201,6.8201,6.8201,6.8201,6.8201,6.8201,6.8201,6.8201,6.8719,6.9069,6.9069,6.9704,7.0073,7.0073,7.0089,6.9983,6.9775,7.0484,7.0976,7.1187,7.1316,7.1699,7.2249,7.2249,7.2346,2.8926,0.0,0.0,3.9977,0.0,4.8817,0.0,0.0,0.0,0.0,0.0,0.0,0.0,0.0,0.0,0.0,0.0,0.0,0.0,0.0,0.0,0.0,0.0,0.0,0.0,0.0,0.0,0.0,0.0,0.0,0.0,0.0,0.0,0.0,5.933,5.9544,5.9937,6.0344,6.0522,6.0522,6.0915,6.1093,6.1093,6.1093,6.1343,6.1786,6.2536,6.3306,6.4091,6.4912,6.5447,6.5804,6.5804,6.5804,6.5804,6.5804,6.6303,6.7105,6.7854,6.8623,6.9427,7.0229,7.0514,7.0514,7.0514,7.0514,7.0514,7.0514,7.0514,7.0514,7.0514,7.1371,7.237,7.2727,7.4047,7.5134,7.495,7.4498,7.3959,7.3406,7.2172,7.0996,7.0206,6.9364,6.8642,6.8251,6.8201,6.8201,6.8201,6.8201,6.8331,6.8687,6.8719,6.8849,6.9237,6.9594,6.982,6.982,7.037,7.068,7.068,7.0931,7.0936,7.0595,7.1009,7.1443,7.1925,7.1925,7.212,7.2508,7.2508,7.2508,3.0018,0.0,3.7898,4.2388,4.6415,0.0,0.0,0.0,0.0,0.0,0.0,0.0,0.0,0.0,0.0,0.0,0.0,0.0,0.0,0.0,0.0,0.0,0.0,0.0,0.0,0.0,0.0,0.0,0.0,0.0,0.0,0.0,5.8367,5.851,5.851,5.8581,5.8709,5.9366,5.9758,5.9901,6.0736,6.1093,6.1093,6.1093,6.1093,6.1129,6.1965,6.2714,6.3464,6.4269,6.5074,6.5804,6.5804,6.5804,6.5804,6.5804,6.6232,6.689,6.7659,6.8444,6.9213,7.005,7.0407,7.0514,7.0514,7.0514,7.0514,7.0514,7.0514,7.0514,7.0514,7.1192,7.2049,7.2655,7.3993,7.5005,7.4707,7.4116,7.3331,7.2427,7.1187,7.0029,6.9244,6.8592,6.8201,6.8201,6.8201,6.8201,6.8201,6.8248,6.8572,6.9205,6.9374,6.9672,7.0338,7.05,7.0565,7.0565,7.1003,7.1257,7.1257,7.1595,7.1708,7.1575,7.1549,7.184,7.2508,7.2508,7.2508,7.2508,7.2508,7.2508,0.0,0.0,4.0071,0.0,4.6415,4.9293,0.0,0.0,0.0,0.0,0.0,0.0,0.0,0.0,0.0,0.0,0.0,0.0,0.0,0.0,0.0,0.0,0.0,0.0,0.0,0.0,0.0,0.0,0.0,0.0,0.0,5.6633,5.7025,5.7717,5.7753,5.806,5.8674,5.8831,5.9223,5.9901,6.0736,6.1093,6.1093,6.1093,6.1093,6.1129,6.1965,6.2714,6.3464,6.4269,6.5074,6.5804,6.5804,6.5804,6.5804,6.5804,6.5875,6.6053,6.689,6.764,6.8373,6.9177,6.9926,7.0514,7.0514,7.0514,7.0514,7.0514,7.0514,7.0514,7.0514,7.1585,7.2655,7.2762,7.3758,7.4707,7.4838,7.3592,7.2427,7.2469,7.0838,6.922,6.8468,6.8276,6.8201,6.8201,6.8201,6.8201,6.8201,6.8555,6.8924,6.927,6.9588,6.9988,7.0377,7.0954,7.1251,7.1251,7.1905,7.2293,7.2293,7.2337,7.2363,7.2346,7.2106,7.217,7.2508,7.2508,7.2508,7.2508,7.2508,7.2508,3.0725,3.5776,4.06,0.0,4.6094,4.8247,0.0,0.0,0.0,0.0,0.0,0.0,0.0,0.0,0.0,0.0,0.0,0.0,0.0,0.0,0.0,0.0,0.0,0.0,0.0,0.0,0.0,0.0,0.0,0.0,5.6383,5.6383,5.6561,5.6932,5.6932,5.7061,5.7404,5.7846,5.8688,5.9901,6.0258,6.0665,6.1093,6.1093,6.1093,6.1129,6.145,6.2072,6.2857,6.3591,6.4412,6.5145,6.5625,6.5804,6.5804,6.5804,6.5804,6.5911,6.6712,6.7497,6.823,6.9034,6.9819,7.0514,7.0514,7.0514,7.0514,7.0514,7.0514,7.0514,7.0514,7.1335,7.221,7.2424,7.2792,7.3206,7.3507,7.2984,7.2142,7.1142,6.9713,6.8567,6.8251,6.8201,6.8201,6.8201,6.8201,6.8201,6.8201,6.8595,6.9162,6.9827,7.0272,7.08,7.151,7.1861,7.2022,7.2022,7.2314,7.2508,7.2508,7.2508,7.2508,7.2508,7.2401,7.2375,7.2508,7.2508,7.2508,7.2508,7.2508,7.2508,0.0,0.0,3.9423,4.2384,4.4928,4.7033,0.0,0.0,0.0,0.0,0.0,0.0,0.0,0.0,0.0,0.0,0.0,0.0,0.0,0.0,0.0,0.0,0.0,0.0,0.0,0.0,0.0,0.0,0.0,0.0,5.6383,5.6383,5.6383,5.6383,5.6383,5.6383,5.6383,5.7217,5.8181,5.9309,5.9687,6.0186,6.0808,6.1022,6.1093,6.1093,6.1093,6.1557,6.2357,6.3107,6.3877,6.4682,6.5482,6.5804,6.5804,6.5804,6.5804,6.5875,6.6482,6.7212,6.7945,6.873,6.9534,7.0229,7.0443,7.0514,7.0514,7.0514,7.0514,7.0514,7.0514,7.1228,7.1997,7.2025,7.2174,7.2214,7.185,7.1827,7.1343,6.9651,6.8716,6.8201,6.8201,6.8201,6.8201,6.8201,6.8201,6.8266,6.846,6.8885,6.9517,7.0572,7.1014,7.1606,7.2417,7.2508,7.2508,7.2508,7.2508,7.2508,7.2508,7.2508,7.2508,7.2508,7.2508,7.2508,7.2508,7.2508,7.2508,7.2508,7.2508,7.2508,0.0,3.2454,0.0,3.8495,4.2501,0.0,0.0,0.0,0.0,0.0,0.0,0.0,0.0,0.0,0.0,0.0,0.0,0.0,0.0,0.0,0.0,0.0,0.0,0.0,0.0,0.0,0.0,0.0,0.0,0.0,5.6383,5.6383,5.6383,5.6383,5.6383,5.6383,5.6383,5.7217,5.7646,5.7753,5.9202,5.9901,5.9972,6.0772,6.1093,6.1093,6.1093,6.1557,6.2357,6.3107,6.3877,6.4682,6.5482,6.5804,6.5804,6.5804,6.5804,6.5804,6.5839,6.6375,6.7176,6.7909,6.873,6.9498,7.0264,7.0514,7.0514,7.0514,7.0514,7.0514,7.0514,7.162,7.2531,7.1742,7.2344,7.2527,7.0322,6.9865,6.9556,6.8468,6.8251,6.8201,6.8201,6.8201,6.8201,6.8201,6.8201,6.846,6.9166,6.9595,7.0226,7.1225,7.1783,7.2181,7.2482,7.2508,7.2508,7.2508,7.2508,7.2508,7.2508,7.2508,7.2508,7.2508,7.2508,7.2508,7.2508,7.2508,7.2508,7.2508,7.2508,7.2508,0.0,0.0,0.0,3.6684,4.0039,0.0,0.0,0.0,0.0,0.0,0.0,0.0,0.0,0.0,0.0,0.0,0.0,0.0,0.0,0.0,0.0,0.0,0.0,0.0,0.0,0.0,0.0,0.0,0.0,0.0,5.6383,5.6383,5.6383,5.6383,5.6383,5.6383,5.6383,5.6682,5.711,5.761,5.8617,5.9402,5.9937,6.0736,6.1093,6.1093,6.1093,6.1272,6.1593,6.2357,6.3143,6.3912,6.4733,6.534,6.5804,6.5804,6.5804,6.5804,6.5804,6.6339,6.714,6.7854,6.8658,6.9462,7.0264,7.0514,7.0514,7.0514,7.0514,7.0514,7.0514,7.1233,7.1855,7.1436,7.1134,7.0645,6.9517,6.9107,6.8887,6.8526,6.8326,6.8201,6.8201,6.8201,6.8039,6.7618,6.8179,6.8646,6.8597,6.9626,7.062,7.1296,7.1815,7.2214,7.2482,7.2508,7.2508,7.2508,7.2508,7.2508,7.2508,7.2508,7.2508,7.2508,7.2508,7.2508,7.2508,7.2508,7.2508,7.2508,7.2508,7.2508,2.685,0.0,0.0,0.0,0.0,0.0,0.0,0.0,0.0,0.0,0.0,0.0,0.0,0.0,0.0,0.0,0.0,0.0,0.0,0.0,0.0,0.0,0.0,0.0,0.0,0.0,0.0,0.0,0.0,0.0,5.6383,5.6383,5.6383,5.6383,5.6383,5.6383,5.6383,5.6383,5.6682,5.7217,5.7989,5.8724,5.9509,6.0344,6.0843,6.1093,6.1093,6.1093,6.1165,6.1965,6.275,6.35,6.4305,6.509,6.5804,6.5804,6.5804,6.5804,6.5804,6.6339,6.714,6.7854,6.8658,6.9462,7.0264,7.0514,7.0514,7.0514,7.0289,7.0132,7.0381,7.0631,7.0905,7.1028,7.017,6.9252,6.8945,6.8649,6.8476,6.8476,6.8326,6.8201,6.8201,6.8201,6.8136,6.7935,6.8567,6.9098,6.9244,7.0194,7.1081,7.1711,7.2057,7.2321,7.2482,7.2508,7.2508,7.2508,7.2508,7.2508,7.2508,7.2508,7.2508,7.2508,7.2508,7.2508,7.2508,7.2508,7.2508,7.2508,7.2508,7.2508,0.0,0.0,0.0,0.0,0.0,0.0,0.0,0.0,0.0,0.0,0.0,0.0,0.0,0.0,0.0,0.0,0.0,0.0,0.0,0.0,0.0,0.0,0.0,0.0,0.0,0.0,0.0,0.0,0.0,5.6383,5.6383,5.6383,5.6383,5.6383,5.6383,5.6383,5.6383,5.6383,5.6383,5.6418,5.7217,5.7989,5.8709,5.9544,6.0344,6.1093,6.1093,6.1093,6.1165,6.1929,6.2714,6.35,6.4269,6.509,6.5804,6.5804,6.5804,6.5804,6.5804,6.6339,6.714,6.7854,6.8658,6.9462,7.0264,7.0497,7.048,7.048,6.9831,6.9355,7.0089,6.9955,6.9805,7.059,6.9675,6.86,6.8625,6.8401,6.8201,6.8201,6.8201,6.8201,6.8201,6.8234,6.846,6.9166,6.9295,6.9788,7.1187,7.1349,7.164,7.2411,7.2508,7.2508,7.2508,7.2508,7.2508,7.2508,7.2508,7.2508,7.2508,7.2508,7.2508,7.2508,7.2508,7.2508,7.2508,7.2508,7.2508,7.2508,7.2508,7.2508,2.5568,0.0,0.0,0.0,0.0,0.0,0.0,0.0,0.0,0.0,0.0,0.0,0.0,0.0,0.0,0.0,0.0,0.0,0.0,0.0,0.0,0.0,0.0,0.0,0.0,0.0,0.0,0.0,5.6062,5.6383,5.6383,5.6383,5.6383,5.6383,5.6383,5.6383,5.6383,5.6383,5.6383,5.6418,5.7217,5.7989,5.8709,5.9544,6.0344,6.1093,6.1093,6.1093,6.1129,6.1343,6.2199,6.3428,6.3627,6.459,6.5804,6.5804,6.5804,6.5804,6.5804,6.6339,6.714,6.7854,6.8658,6.9462,7.0264,7.0061,6.958,6.958,6.8959,6.8605,6.9707,6.98,6.976,7.0419,6.9589,6.8649,6.8847,6.8526,6.8201,6.8201,6.8201,6.8201,6.8201,6.8622,6.8881,6.8557,6.8768,6.9427,7.0539,7.0454,7.0879,7.232,7.2508,7.2508,7.2508,7.2508,7.2508,7.2508,7.2508,7.2508,7.2508,7.2508,7.2508,7.2508,7.2508,7.2508,7.2508,7.2508,7.2508,7.2508,7.2508,7.2508,0.0,0.0,0.0,0.0,0.0,0.0,0.0,3.6372,0.0,0.0,0.0,0.0,0.0,0.0,0.0,0.0,0.0,0.0,0.0,0.0,0.0,0.0,0.0,0.0,0.0,0.0,0.0,0.0,5.5455,5.6062,5.6383,5.6383,5.6383,5.6383,5.6383,5.6383,5.6383,5.6383,5.6383,5.6418,5.6896,5.7667,5.8709,5.9188,6.0008,6.1093,6.1093,6.1093,6.1093,6.1093,6.2021,6.3392,6.3392,6.4376,6.5804,6.5804,6.5804,6.5804,6.5804,6.6517,6.7533,6.7945,6.8873,6.9804,6.9919,6.9617,6.9108,6.879,6.8743,6.8937,6.9605,6.9775,6.9913,7.0232,6.9373,6.8476,6.8625,6.8426,6.8226,6.8351,6.8276,6.8201,6.8201,6.8715,6.9142,6.9115,6.9466,7.0129,7.1128,7.1088,7.1384,7.2384,7.2508,7.2508,7.2508,7.2508,7.2508,7.2508,7.2508,7.2508,7.2508,7.2508,7.2508,7.2508,7.2508,7.2508,7.2508,7.2508,7.2508,7.2508,7.2508,7.2508,0.0,0.0,0.0,0.0,0.0,0.0,3.5658,3.6336,0.0,0.0,0.0,0.0,0.0,0.0,0.0,0.0,0.0,0.0,0.0,0.0,0.0,0.0,0.0,0.0,0.0,0.0,5.3872,5.3872,5.4621,5.5419,5.6204,5.6276,5.6311,5.6383,5.6383,5.6383,5.6383,5.6383,5.6383,5.6383,5.6383,5.7204,5.8709,5.8709,5.958,6.1093,6.1093,6.1093,6.1093,6.1093,6.2021,6.3392,6.3392,6.4376,6.5804,6.5804,6.5804,6.5804,6.5804,6.6803,6.8088,6.8088,6.9108,7.0219,6.9436,6.9052,6.8752,6.794,6.8658,6.9615,6.9467,6.9715,6.9982,7.0053,6.9131,6.8201,6.8251,6.8226,6.8276,6.855,6.8376,6.8201,6.8201,6.8652,6.9324,7.0254,7.0686,7.1284,7.2352,7.2346,7.2314,7.2476,7.2508,7.2508,7.2508,7.2508,7.2508,7.2508,7.2508,7.2508,7.2508,7.2508,7.2508,7.2508,7.2508,7.2508,7.2508,7.2508,7.2508,7.2508,7.2508,7.2508,2.9897,3.0511,3.1011,0.0,0.0,0.0,0.0,3.2339,0.0,0.0,0.0,0.0,0.0,0.0,0.0,0.0,0.0,0.0,0.0,0.0,0.0,0.0,0.0,0.0,0.0,0.0,5.3113,5.3113,5.38,5.4585,5.537,5.5441,5.574,5.6383,5.6383,5.6383,5.6383,5.6383,5.6383,5.6383,5.6383,5.7204,5.8709,5.8709,5.958,6.1093,6.1093,6.1093,6.1093,6.1093,6.2021,6.3392,6.3392,6.4376,6.5804,6.5804,6.5804,6.5804,6.5804,6.6803,6.8088,6.8088,6.8714,6.9418,6.9272,6.8239,6.701,6.617,6.6935,6.8126,6.8472,6.8895,6.9301,6.9699,6.8952,6.8251,6.8476,6.8351,6.8276,6.855,6.8376,6.8201,6.8201,6.904,6.9871,7.0319,7.024,7.0677,7.2287,7.1504,7.1245,7.2379,7.2508,7.2508,7.2508,7.2508,7.2508,7.2508,7.2508,7.2508,7.2508,7.2508,7.2508,7.2508,7.2508,7.2508,7.2508,7.2508,7.2508,7.2508,7.2508,7.2508,3.1403,3.1696,3.2196,3.1831,0.0,0.0,0.0,0.0,0.0,0.0,0.0,0.0,0.0,0.0,0.0,0.0,0.0,0.0,0.0,0.0,0.0,0.0,0.0,0.0,0.0,0.0,5.247,5.2863,5.3242,5.3778,5.455,5.4978,5.537,5.5776,5.6204,5.6383,5.6383,5.6383,5.6383,5.6383,5.6383,5.7204,5.8709,5.8709,5.958,6.1093,6.1093,6.1093,6.1093,6.1093,6.2021,6.3392,6.3392,6.4376,6.5804,6.5804,6.5804,6.5804,6.5804,6.6574,6.7496,6.7496,6.8007,6.8524,6.8098,6.7072,6.6105,6.632,6.7167,6.808,6.8649,6.9161,6.9556,6.9699,6.9026,6.8401,6.8401,6.8301,6.8251,6.8376,6.8301,6.8201,6.8201,6.904,6.9875,7.0325,7.0592,7.1161,7.2358,7.1893,7.1731,7.2411,7.2508,7.2508,7.2508,7.2508,7.2508,7.2508,7.2508,7.2508,7.2508,7.2508,7.2508,7.2508,7.2508,7.2508,7.2508,7.2508,7.2508,7.2508,7.2508,7.2508,0.0,0.0,0.0,0.0,0.0,3.3294,0.0,0.0,0.0,0.0,0.0,0.0,0.0,0.0,0.0,0.0,0.0,0.0,0.0,0.0,0.0,0.0,0.0,0.0,0.0,0.0,5.1471,5.2577,5.2269,5.2541,5.3729,5.4407,5.4884,5.5192,5.5847,5.624,5.6383,5.6383,5.6383,5.6383,5.6383,5.7204,5.8709,5.8709,5.958,6.1093,6.1093,6.1093,6.1093,6.1093,6.2021,6.3392,6.3392,6.4376,6.5788,6.5623,6.5575,6.5559,6.5376,6.5931,6.6685,6.6685,6.7159,6.7602,6.6698,6.5954,6.5614,6.6703,6.7569,6.8272,6.8781,6.9434,6.9865,6.958,6.9034,6.8526,6.8251,6.8201,6.8201,6.8201,6.8201,6.8201,6.8201,6.8936,6.9717,7.0325,7.1097,7.1835,7.2428,7.2508,7.2508,7.2508,7.2508,7.2508,7.2508,7.2508,7.2508,7.2508,7.2508,7.2508,7.2508,7.2508,7.2508,7.2508,7.2508,7.2508,7.2508,7.2508,7.2508,7.2508,7.2508,7.2508,0.0,0.0,0.0,0.0,3.7032,0.0,0.0,0.0,0.0,0.0,0.0,0.0,0.0,0.0,0.0,0.0,0.0,0.0,0.0,0.0,0.0,0.0,0.0,0.0,0.0,0.0,0.0,5.1685,4.99,4.9984,5.2863,5.3113,5.3791,5.5156,5.5299,5.5669,5.6383,5.6383,5.6383,5.6383,5.6383,5.7204,5.8709,5.8709,5.958,6.1093,6.1093,6.1093,6.1093,6.1093,6.2021,6.3392,6.3392,6.4376,6.5724,6.4993,6.472,6.4635,6.3935,6.4616,6.5855,6.5855,6.6308,6.669,6.5801,6.5492,6.5448,6.557,6.6644,6.7635,6.7463,6.846,6.9358,6.8871,6.8674,6.8526,6.8251,6.8201,6.8201,6.8201,6.8201,6.8201,6.8201,6.8936,6.9717,7.0325,7.1097,7.1835,7.2428,7.2508,7.2508,7.2508,7.2508,7.2508,7.2508,7.2508,7.2508,7.2508,7.2508,7.2508,7.2508,7.2508,7.2508,7.2508,7.2508,7.2508,7.2508,7.2508,7.2508,7.2508,7.2508,7.2508,0.0,0.0,0.0,0.0,0.0,0.0,0.0,0.0,3.3481,0.0,0.0,0.0,0.0,0.0,0.0,0.0,0.0,0.0,0.0,0.0,0.0,0.0,0.0,0.0,0.0,0.0,0.0,0.0,0.0,4.8687,5.1364,5.2399,5.3398,5.4478,5.4942,5.5598,5.6383,5.6383,5.6383,5.6383,5.6383,5.7204,5.8709,5.8709,5.958,6.1093,6.1093,6.1093,6.1093,6.1093,6.2021,6.3346,6.2939,6.3733,6.506,6.472,6.4288,6.3863,6.3503,6.4073,6.5022,6.5377,6.5719,6.5954,6.5954,6.5724,6.5459,6.5878,6.6655,6.7334,6.7217,6.8176,6.9067,6.8699,6.86,6.8526,6.8251,6.8201,6.8201,6.8201,6.8201,6.8201,6.8201,6.8936,6.9717,7.0325,7.1097,7.1835,7.2428,7.2508,7.2508,7.2508,7.2508,7.2508,7.2508,7.2508,7.2508,7.2508,7.2508,7.2508,7.2508,7.2508,7.2508,7.2508,7.2508,7.2508,7.2508,7.2508,7.2508,7.2508,7.2508,7.2508,3.9575,0.0,0.0,0.0,0.0,0.0,0.0,0.0,0.0,0.0,0.0,0.0,0.0,0.0,0.0,0.0,0.0,0.0,0.0,0.0,0.0,0.0,0.0,0.0,0.0,0.0,0.0,0.0,0.0,0.0,5.0352,5.1613,5.2779,5.3966,5.4585,5.537,5.6383,5.6383,5.6383,5.6383,5.6611,5.7418,5.8709,5.8923,5.9794,6.1093,6.1093,6.1093,6.1093,6.1093,6.188,6.305,6.2519,6.2995,6.3953,6.3953,6.361,6.3109,6.3087,6.3637,6.4522,6.5193,6.5403,6.5481,6.5975,6.579,6.5481,6.5975,6.67,6.7311,6.7311,6.8233,6.9042,6.8773,6.8649,6.8526,6.8251,6.8201,6.8201,6.8201,6.8201,6.8266,6.846,6.9065,6.9717,7.0325,7.1097,7.1835,7.2428,7.2508,7.2508,7.2508,7.2508,7.2508,7.2508,7.2508,7.2508,7.2508,7.2508,7.2508,7.2508,7.2508,7.2508,7.2508,7.2508,7.2508,7.2508,7.2508,7.2508,7.2508,7.2508,7.2508,0.0,0.0,0.0,0.0,0.0,0.0,0.0,0.0,3.68,0.0,0.0,0.0,0.0,0.0,0.0,0.0,0.0,0.0,0.0,0.0,0.0,0.0,0.0,0.0,0.0,0.0,0.0,0.0,0.0,0.0,5.0209,5.0566,5.1624,5.393,5.4037,5.4799,5.6383,5.6383,5.6383,5.6418,5.7182,5.7953,5.8709,5.9509,6.0308,6.1093,6.1093,6.1093,6.1093,6.1093,6.1588,6.2337,6.232,6.2314,6.2363,6.2363,6.2377,6.2322,6.2266,6.3192,6.4509,6.5194,6.5403,6.5425,6.5448,6.5425,6.5425,6.5448,6.6485,6.7566,6.7566,6.8493,6.931,6.9042,6.8797,6.8526,6.8251,6.8201,6.8201,6.8201,6.8201,6.8428,6.9133,6.9387,6.9717,7.0325,7.1097,7.1835,7.2428,7.2508,7.2508,7.2508,7.2508,7.2508,7.2508,7.2508,7.2508,7.2508,7.2508,7.2508,7.2508,7.2508,7.2508,7.2508,7.2508,7.2508,7.2508,7.2508,7.2508,7.2508,7.2508,7.2508,0.0,0.0,4.5974,4.1762,0.0,0.0,0.0,0.0,0.0,0.0,0.0,0.0,0.0,0.0,0.0,0.0,0.0,0.0,0.0,0.0,0.0,0.0,0.0,0.0,0.0,0.0,0.0,0.0,4.2904,0.0,0.0,4.9674,5.1351,5.3207,5.3765,5.4764,5.6383,5.6383,5.6383,5.6418,5.7217,5.7989,5.8709,5.9544,6.0344,6.1093,6.1093,6.1093,6.1099,6.1105,6.1584,6.2239,6.1701,6.1824,6.2318,6.2318,6.1977,6.1632,6.2605,6.3559,6.452,6.5194,6.5403,6.5403,6.5403,6.5403,6.5403,6.5403,6.6463,6.7589,6.7589,6.8342,6.9116,6.9018,6.8674,6.8326,6.8226,6.8201,6.8201,6.8201,6.8201,6.8377,6.8917,6.9445,7.0056,7.094,7.1574,7.2079,7.2455,7.2508,7.2508,7.2508,7.2508,7.2508,7.2508,7.2508,7.2508,7.2508,7.2508,7.2508,7.2508,7.2508,7.2508,7.2508,7.2508,7.2508,7.2508,7.2508,7.2508,7.2508,7.2508,7.2508,4.6712,4.7402,0.0,0.0,4.2715,0.0,0.0,0.0,0.0,0.0,0.0,0.0,0.0,0.0,0.0,0.0,0.0,0.0,0.0,0.0,0.0,0.0,0.0,0.0,0.0,0.0,3.8148,4.1619,4.1084,0.0,0.0,0.0,5.0685,5.2827,5.3635,5.4764,5.6383,5.6383,5.6383,5.6418,5.7489,5.8224,5.8745,5.983,6.0629,6.1093,6.1093,6.0959,6.0752,6.0989,6.1233,6.1449,6.1219,6.1422,6.1877,6.1877,6.1881,6.2013,6.2962,6.3957,6.4829,6.526,6.5403,6.5403,6.5403,6.5403,6.5436,6.5701,6.6593,6.7516,6.778,6.8421,6.8994,6.8994,6.8674,6.8351,6.8351,6.8276,6.8201,6.8201,6.8201,6.8424,6.9143,6.9716,7.0337,7.1126,7.173,7.2214,7.2482,7.2508,7.2508,7.2508,7.2508,7.2508,7.2508,7.2508,7.2508,7.2508,7.2508,7.2508,7.2508,7.2508,7.2508,7.2508,7.2508,7.2508,7.2508,7.2508,7.2508,7.2508,7.2508,7.2508]}]]